GEFSNGP_500_meanwind_000.txt.gz
Wind_Speed
20 21 24 27 27 28 31 32 34 34 38 41 43 44 45 44 47 47 48 51 55 60 63 68 64 64 63 67 65 62 67 72 76 62 60 70 68 63 50 51 54 50 46 44
21 23 26 30 30 31 33 34 36 37 38 41 46 49 51 52 54 57 59 62 65 68 71 74 76 76 75 76 77 70 69 73 64 61 65 71 70 67 66 77 77 65 50 47
24 27 28 31 32 34 34 33 36 41 46 50 52 55 58 60 63 65 68 73 77 80 82 84 85 85 83 81 88 88 87 85 86 86 80 76 78 79 79 78 74 62 50 46
24 26 26 28 31 34 37 38 43 48 52 55 58 61 65 69 73 76 79 82 83 84 84 83 80 77 73 69 68 69 67 64 71 80 87 84 80 83 81 80 72 62 51 51
24 26 29 30 34 39 43 45 49 53 56 60 64 67 70 75 80 82 82 79 75 70 65 61 55 46 40 36 34 34 37 39 39 43 51 60 67 70 74 78 75 65 57 49
28 29 32 36 39 42 47 51 55 59 62 66 70 72 74 79 79 74 66 59 52 45 41 38 38 41 44 41 39 37 37 36 37 37 36 37 41 50 57 64 68 67 64 53
29 31 35 38 41 44 49 54 58 62 65 69 74 79 80 74 63 53 44 38 36 38 40 43 46 48 49 50 50 47 45 46 46 39 34 35 35 37 41 48 58 61 60 58
32 34 39 42 44 47 52 57 62 66 70 76 81 80 71 56 44 38 35 37 40 43 47 51 52 51 51 51 50 49 48 49 48 43 37 35 33 31 31 33 41 49 54 58
36 37 41 45 49 52 57 61 66 71 76 83 81 69 55 43 36 37 40 44 47 48 48 49 51 52 50 48 49 52 52 49 48 48 42 38 36 31 26 24 27 38 50 61
40 41 43 47 50 54 60 66 72 77 82 82 68 53 43 36 37 42 46 48 48 47 48 48 49 52 55 53 53 54 52 51 51 48 48 45 40 33 26 23 25 25 33 55
44 47 48 50 54 59 64 70 76 81 80 69 54 44 38 39 43 47 49 49 51 54 54 51 51 52 52 54 56 58 53 52 54 54 54 47 43 35 26 24 26 25 21 40
44 46 49 52 57 62 67 73 78 82 73 55 46 41 42 45 47 49 50 52 55 57 54 49 48 49 49 52 56 53 49 48 48 48 45 45 45 41 30 28 28 23 19 26
47 49 52 56 60 64 70 76 80 78 62 44 42 44 47 48 49 51 53 53 54 55 53 49 49 49 49 52 51 46 42 40 39 37 37 43 42 38 32 27 26 21 18 24
50 52 53 56 61 66 72 77 77 68 49 41 45 48 50 51 51 54 54 53 55 54 50 49 45 42 41 42 40 33 28 27 26 25 32 38 37 34 30 26 26 23 19 24
49 52 55 58 62 67 74 78 76 59 42 43 47 51 52 51 53 55 53 52 51 49 48 42 36 36 37 33 26 21 19 18 17 21 29 33 33 34 30 26 25 23 20 22
50 53 56 60 62 68 75 78 73 56 44 45 48 52 52 52 54 54 51 50 51 49 38 31 33 33 27 21 17 16 10 5 9 16 24 30 33 32 30 28 26 25 24 24
51 54 58 61 64 69 77 78 68 54 47 48 50 51 51 54 54 49 47 47 47 42 32 33 34 24 19 14 11 10 4 4 12 22 30 33 32 29 28 28 28 29 29 32
52 54 59 62 65 71 77 76 65 51 47 48 50 50 53 54 50 48 46 44 41 40 34 32 23 17 13 10 10 10 10 14 22 29 31 28 26 25 25 30 35 37 39 42
51 54 58 63 66 71 77 77 64 48 45 47 49 50 52 52 51 49 46 43 40 42 35 29 21 20 15 12 17 19 16 17 20 23 24 23 22 22 22 26 32 36 38 39
50 53 58 63 66 71 77 76 61 45 43 45 48 48 49 47 46 49 47 43 41 41 34 23 19 21 18 17 18 18 17 16 17 22 27 29 30 34 35 39 42 41 40 40
49 52 57 62 65 70 76 74 59 43 41 45 47 46 45 42 43 48 48 44 43 42 41 30 20 20 20 20 19 22 26 30 34 37 42 44 45 43 38 40 43 42 36 30
48 51 56 61 64 69 74 73 58 41 39 43 44 44 42 39 40 42 42 42 44 46 43 37 29 28 30 33 36 40 44 43 42 45 48 45 44 43 40 40 40 37 31 28
47 50 55 60 63 67 73 71 55 38 35 39 41 40 40 40 38 37 40 43 44 44 43 39 37 39 42 45 45 45 44 42 41 42 39 36 36 36 36 35 33 32 31 30
47 50 54 58 61 65 71 70 54 36 31 36 37 34 32 31 34 37 37 39 40 40 38 36 33 32 34 35 35 37 39 38 36 34 29 27 29 30 30 28 27 28 28 27
46 49 52 56 58 61 66 68 55 34 26 30 32 29 27 25 26 29 31 33 35 35 34 32 29 27 27 27 29 33 34 34 30 27 26 25 26 26 24 23 22 23 23 22
46 49 51 54 56 58 63 65 57 36 22 24 27 26 22 18 19 24 26 26 27 28 29 29 27 24 22 23 25 26 24 23 24 23 23 25 24 23 23 22 20 20 20 19
45 48 50 53 54 56 59 62 59 40 21 18 22 23 20 14 11 16 20 21 20 20 20 21 21 21 19 17 17 17 17 16 14 14 19 23 23 22 22 20 18 16 14 13

GEFSNGP_500_meanwind_006.txt.gz
Wind_Speed
15 14 15 18 21 23 27 30 33 36 40 49 50 52 54 56 59 62 65 68 70 72 74 76 77 77 77 77 77 77 77 77 78 79 80 80 81 81 81 79 74 72 69 65
17 14 18 22 23 26 31 35 39 42 44 50 53 55 58 61 64 68 71 74 77 79 80 80 78 76 72 67 63 59 57 56 57 59 62 66 72 78 81 82 81 78 77 74
17 15 17 24 26 31 35 39 44 47 48 50 54 58 61 64 68 72 75 76 76 73 69 63 57 52 47 42 39 37 35 34 34 35 37 39 43 49 55 61 67 72 76 75
20 21 23 27 30 35 39 42 46 48 51 54 56 59 62 68 73 76 74 69 62 55 50 46 43 40 39 37 37 36 35 35 36 36 35 34 32 30 31 32 37 45 55 63
24 24 30 34 35 39 43 46 50 52 56 58 61 65 69 73 74 70 61 54 49 47 45 44 43 42 43 43 43 44 43 43 43 43 42 40 37 35 32 29 28 28 31 38
28 31 34 38 41 43 46 48 54 56 58 61 64 69 72 73 69 59 51 48 48 49 50 49 48 48 48 48 48 48 46 46 46 46 46 43 41 39 37 34 30 28 26 26
30 33 39 41 44 45 47 49 52 55 59 64 70 74 75 69 59 51 49 50 52 53 54 54 53 53 53 52 52 50 48 48 47 46 45 42 40 37 36 34 32 29 28 27
34 37 40 43 45 48 51 54 57 62 65 69 73 74 70 61 54 51 51 53 56 57 57 57 56 55 55 55 54 53 51 49 48 46 44 41 39 37 37 36 34 33 31 29
37 39 43 45 48 51 54 57 61 66 69 73 76 73 63 54 51 52 54 56 57 58 58 57 56 55 54 53 53 52 51 49 47 45 42 41 40 39 39 39 37 36 33 30
38 41 43 47 49 52 54 58 63 68 72 75 74 65 55 52 52 54 56 58 59 58 56 54 53 53 52 51 50 49 47 45 44 42 40 39 39 37 37 37 38 37 34 31
42 45 45 47 50 53 55 60 65 69 74 74 67 56 53 54 56 57 59 59 60 58 56 53 52 50 49 47 46 44 42 40 38 38 37 36 36 35 34 35 35 34 33 30
44 46 48 49 51 54 57 62 66 70 74 68 58 54 55 56 57 59 60 60 59 58 56 53 50 47 44 41 39 37 34 32 31 31 32 32 31 31 31 33 33 33 32 29
45 46 47 48 51 54 58 63 66 71 72 62 55 54 55 56 56 58 59 59 57 56 54 50 45 40 35 32 30 29 28 26 26 27 27 27 27 27 28 30 31 32 31 29
47 47 47 48 50 54 58 62 65 69 66 56 53 52 53 54 56 59 61 61 57 53 49 44 39 33 29 27 26 24 22 22 21 21 20 19 19 22 25 27 27 27 26 26
46 46 46 47 50 54 57 61 64 67 63 52 49 49 51 54 57 60 64 64 57 50 46 42 38 33 29 26 24 21 20 18 15 11 9 9 12 17 21 23 22 20 19 19
43 44 44 46 50 53 56 59 63 66 59 47 44 47 50 54 56 58 63 64 60 52 47 43 39 36 32 28 25 22 18 14 10 6 5 9 14 19 22 22 19 15 12 11
42 43 44 46 50 53 56 58 61 64 55 43 41 45 48 52 54 56 59 61 60 56 51 45 40 36 33 31 29 28 26 24 23 22 22 23 25 26 25 22 17 13 11 12
42 43 45 48 51 54 56 57 59 61 53 41 38 41 45 48 51 52 54 57 58 57 53 48 43 38 34 31 31 31 31 30 30 29 28 27 26 24 21 18 16 14 14 18
40 42 44 46 50 54 55 55 57 59 52 39 35 37 40 43 46 47 49 52 54 55 54 51 48 43 37 33 29 27 26 25 25 25 24 23 22 19 18 17 17 17 18 24
40 42 43 45 48 53 54 53 53 56 52 40 33 33 35 38 41 42 43 46 49 51 51 50 48 46 43 37 32 28 25 22 20 18 18 18 17 17 18 18 18 19 23 29
40 42 42 44 47 51 52 51 51 52 51 42 32 29 30 33 36 37 39 40 42 44 45 46 46 45 45 44 40 36 32 28 23 19 17 16 16 16 17 18 19 22 27 32
40 42 42 42 45 49 50 49 49 50 50 42 32 27 26 27 29 32 34 35 36 37 38 39 40 41 42 42 42 40 38 36 34 31 28 26 23 22 22 24 25 28 30 32
41 43 42 42 45 47 48 47 47 47 48 45 35 27 24 23 24 26 28 29 30 31 32 33 35 36 36 37 38 38 37 37 37 38 37 35 33 32 31 30 30 30 30 30
42 43 43 42 44 46 45 44 44 45 47 46 40 30 24 21 21 22 24 25 26 26 27 27 28 29 30 30 31 31 31 31 30 30 30 31 31 30 29 29 28 28 27 25
43 43 43 41 44 45 43 41 41 42 44 46 43 35 26 20 17 17 18 20 21 21 22 22 22 22 23 25 26 25 24 25 25 25 26 26 26 26 25 24 23 23 22 22
42 43 42 42 43 44 42 40 39 39 41 43 43 37 29 22 17 15 14 15 16 17 17 18 18 17 17 18 19 20 20 19 19 19 20 21 22 22 22 22 21 20 19 18
41 42 42 41 43 43 42 40 38 38 38 40 41 38 32 24 19 16 15 13 13 13 13 14 15 15 14 13 12 13 14 13 12 12 13 14 14 14 15 15 14 13 13 12

GEFSNGP_500_meanwind_012.txt.gz
Wind_Speed
13 14 15 15 18 22 25 28 31 33 36 39 42 45 48 52 56 59 62 65 66 66 65 63 62 61 60 58 57 55 53 51 49 47 45 43 42 40 41 45 53 61 68 72
16 17 18 19 22 26 28 29 29 32 36 40 43 46 50 54 57 60 61 60 58 57 56 57 58 58 59 58 57 57 55 53 51 48 46 43 40 37 36 35 37 41 47 55
18 21 22 23 27 29 30 31 33 37 41 44 47 49 54 58 61 60 56 54 54 56 58 59 60 60 60 60 59 59 58 56 53 51 48 46 43 41 38 35 33 32 33 36
22 24 26 28 30 33 35 36 38 41 44 48 51 54 57 59 57 53 52 53 55 58 60 62 63 63 62 61 61 60 58 56 55 53 51 49 47 44 41 38 36 33 31 30
25 27 28 31 34 36 37 39 41 44 46 49 52 54 55 54 52 51 52 55 58 60 64 66 66 65 64 63 61 59 57 54 52 52 51 50 48 46 44 42 39 36 35 34
25 28 31 34 37 39 39 39 41 45 48 52 55 57 56 52 49 49 52 56 59 63 65 66 64 62 60 58 56 53 50 48 47 47 47 48 47 46 45 44 42 39 36 35
27 30 33 37 40 40 39 40 43 48 53 56 57 59 56 50 48 50 53 57 61 64 65 64 61 58 56 54 51 47 44 42 41 42 43 44 45 43 43 43 42 40 38 36
29 32 35 38 40 41 41 43 46 51 54 55 56 56 52 48 48 51 54 58 61 64 65 63 60 56 53 50 46 41 37 35 35 35 37 38 40 40 40 40 40 39 37 36
29 32 35 38 42 44 44 45 47 51 53 53 55 55 49 46 48 51 54 58 61 64 64 62 58 54 51 46 42 36 31 28 26 27 29 31 32 34 35 37 38 37 35 34
27 31 35 39 41 42 42 43 46 51 52 52 54 53 48 45 47 50 54 57 61 64 64 60 56 53 51 47 42 35 30 26 22 20 21 23 26 27 29 31 33 34 34 33
26 30 34 36 38 40 40 42 46 50 51 52 54 52 47 45 47 50 53 56 60 63 63 59 54 52 51 48 43 36 29 25 20 16 14 15 17 20 22 25 28 30 31 31
28 31 34 35 38 40 41 43 47 51 51 51 53 52 47 45 46 49 51 54 58 61 62 58 53 50 51 50 47 40 32 25 18 13 9 9 11 14 17 20 24 26 29 30
29 32 34 35 39 41 42 44 47 51 51 50 52 51 47 45 45 47 50 52 56 60 60 58 52 48 49 50 49 44 37 28 20 12 6 5 6 10 13 16 20 23 26 28
31 32 33 35 38 41 42 44 46 50 50 49 51 50 47 45 44 46 48 50 53 57 59 58 53 48 46 47 48 47 41 34 26 18 10 4 1 6 10 13 16 19 22 25
31 32 32 34 38 41 43 44 46 49 49 47 49 50 48 45 43 44 46 47 50 53 56 56 54 50 45 43 44 45 43 39 33 27 21 15 10 7 7 10 13 16 19 22
32 32 33 35 38 41 44 44 45 48 49 47 48 49 49 46 43 42 43 44 46 50 52 54 54 52 47 42 40 40 40 38 35 32 29 25 21 16 12 10 11 13 15 18
32 32 33 35 38 40 43 44 45 48 49 48 47 48 49 47 43 40 40 42 43 46 48 50 52 52 49 44 39 38 37 36 34 31 29 27 24 21 17 14 11 10 11 14
31 32 34 36 38 41 43 44 45 47 49 48 47 47 47 46 43 39 38 38 39 41 44 46 48 50 49 46 40 35 34 34 32 29 27 26 24 21 19 16 13 11 10 11
32 34 36 38 40 42 43 45 45 47 48 48 46 46 46 45 44 40 36 36 36 37 39 41 43 45 47 47 44 37 32 30 29 28 27 26 25 24 22 21 19 18 18 17
34 35 37 39 41 43 44 45 45 46 47 47 45 45 45 44 42 40 35 33 34 34 35 36 38 40 41 43 43 39 34 29 27 26 26 26 26 26 26 27 26 26 26 26
35 37 39 41 43 44 45 45 46 45 46 46 45 43 43 43 42 39 35 30 30 30 31 32 32 34 36 38 38 37 34 31 28 26 26 26 27 28 28 28 29 29 29 30
37 39 41 43 44 45 46 46 46 45 45 45 44 42 41 40 41 40 36 31 27 27 27 28 28 29 30 32 33 33 31 30 28 26 25 25 26 27 28 28 28 28 28 29
39 42 43 44 45 46 47 47 46 45 44 44 42 41 39 38 38 37 36 32 27 24 24 24 25 25 24 25 26 28 27 26 25 24 23 23 23 24 25 26 26 26 26 26
44 46 47 46 46 47 47 46 45 44 44 44 42 40 38 37 37 37 35 32 28 23 21 21 22 21 20 20 20 22 23 23 23 23 21 20 20 21 22 24 25 25 26 26
46 48 48 47 47 48 46 44 43 42 42 41 41 39 37 36 35 35 35 33 29 24 20 19 18 18 17 16 15 16 17 18 19 20 20 19 19 19 19 20 21 23 24 24
45 45 46 47 47 46 43 41 40 39 39 39 38 38 36 34 33 33 33 32 29 24 19 17 15 15 15 13 11 10 11 12 14 16 16 17 16 17 17 18 18 19 21 21
42 42 43 45 44 42 39 38 37 37 37 37 37 36 34 33 32 31 32 31 29 25 20 16 14 12 12 10 8 6 6 7 8 10 11 12 12 13 14 14 15 15 16 17

GEFSNGP_500_meanwind_018.txt.gz
Wind_Speed
12 11 13 16 19 22 26 28 29 29 29 30 32 36 40 43 45 47 49 50 49 46 44 45 47 51 55 59 63 65 66 66 66 66 65 62 59 55 53 52 51 51 51 52
14 14 16 19 22 25 28 29 29 29 30 32 35 40 43 45 47 49 51 50 46 43 43 45 49 53 58 62 64 66 65 64 63 62 62 60 56 52 49 48 48 49 49 50
15 16 17 21 24 27 28 30 31 32 33 35 36 41 45 46 48 51 52 48 44 43 44 47 51 56 60 64 65 63 62 62 62 61 58 55 51 48 45 43 44 46 46 47
17 18 21 24 26 28 30 31 33 34 36 38 39 42 45 48 50 52 51 46 43 44 46 49 53 57 61 64 63 61 60 61 61 58 53 48 44 41 40 39 40 42 45 45
20 21 23 26 28 30 32 32 34 36 38 40 41 42 43 45 48 50 50 46 45 46 48 51 54 58 61 62 60 59 60 60 59 54 48 42 38 35 34 35 36 39 43 44
22 23 25 26 28 31 33 34 36 38 41 43 44 45 44 46 49 51 51 48 46 47 49 51 55 58 61 60 58 57 58 59 55 50 43 37 32 28 28 30 32 35 39 42
23 23 23 24 28 31 33 35 37 40 42 44 46 48 49 49 51 53 52 48 46 47 48 51 55 58 60 58 56 57 57 57 52 45 38 32 26 22 22 25 28 31 35 38
23 22 23 25 28 31 32 34 37 40 42 44 45 47 49 49 51 52 51 48 46 46 48 51 55 58 59 57 55 56 55 54 50 43 35 28 22 18 16 19 24 28 31 34
22 22 24 26 29 31 32 35 38 40 43 44 45 47 49 49 51 52 51 48 46 45 47 50 54 58 58 56 55 55 54 52 48 42 34 26 20 14 11 14 19 24 28 31
22 23 25 27 29 31 33 36 39 41 43 45 46 48 49 50 50 51 51 48 45 45 46 49 53 56 56 55 54 54 53 51 47 41 34 27 20 13 8 7 13 19 24 27
22 24 26 28 30 32 35 37 39 41 43 45 46 47 49 49 50 50 50 48 46 44 45 48 51 53 54 54 52 52 52 50 46 41 35 28 21 14 8 4 6 13 19 24
23 25 27 29 31 33 35 37 39 41 43 44 45 47 48 49 49 50 49 48 45 44 44 46 49 51 52 52 51 50 50 49 45 41 36 30 22 15 9 4 2 8 15 20
24 26 28 30 31 33 35 37 39 40 42 43 45 46 48 49 49 49 49 48 45 42 42 44 47 49 50 50 49 49 48 47 44 40 36 31 25 18 12 7 2 5 11 17
26 28 29 30 32 34 36 38 39 40 42 43 45 46 48 48 48 48 48 47 45 42 41 42 44 47 48 48 48 47 46 45 43 40 36 31 26 20 15 10 5 4 8 14
28 29 31 32 34 36 37 38 39 41 43 44 45 46 47 48 47 47 47 46 45 42 40 40 41 44 45 46 46 45 44 43 41 39 36 31 27 21 16 12 7 4 6 11
30 31 33 34 36 38 39 39 40 42 43 45 45 46 47 47 47 47 46 45 44 42 38 37 38 41 42 43 43 43 42 40 39 38 35 32 27 23 17 13 9 5 5 9
33 34 35 37 38 39 40 39 40 43 45 46 47 47 47 46 45 45 45 44 44 42 38 36 36 37 39 40 40 40 40 39 38 36 35 32 28 24 19 14 10 6 5 8
36 37 38 38 39 39 40 40 41 44 46 47 48 48 47 45 43 43 42 42 42 41 39 35 33 34 35 37 37 37 36 36 36 35 34 32 29 26 22 17 12 8 6 7
37 38 39 39 38 38 39 40 42 45 46 47 47 48 47 44 42 42 42 41 40 39 37 33 31 31 32 33 34 33 33 33 34 34 33 31 30 27 24 20 15 12 8 7
38 39 40 39 38 37 38 39 42 45 46 47 47 46 45 43 41 40 41 40 39 38 36 33 29 28 28 29 30 30 30 30 31 32 32 30 28 27 26 23 19 16 13 11
40 40 39 38 37 37 38 40 42 46 47 47 46 45 43 42 41 40 39 39 38 37 36 33 29 26 25 25 26 27 27 28 28 29 30 29 27 26 26 25 23 20 19 17
41 40 39 38 37 37 38 40 43 46 48 47 46 45 43 42 40 39 39 37 36 35 34 32 28 24 22 21 22 23 24 25 26 26 26 27 26 25 25 25 25 23 22 21
41 41 39 38 37 38 39 41 42 45 46 46 45 44 43 42 39 37 37 36 35 34 33 31 28 24 20 18 18 19 19 21 22 23 23 24 25 24 23 23 23 23 23 23
41 40 40 38 37 38 40 41 42 43 44 44 43 43 42 41 40 38 36 35 34 32 31 30 27 23 19 16 15 15 15 16 18 19 20 21 22 23 22 22 21 22 22 23
42 41 40 39 38 39 41 42 42 42 42 42 42 41 40 39 38 37 36 35 33 31 30 29 26 23 18 15 12 11 11 12 13 14 16 17 18 19 20 21 21 20 20 20
45 43 43 42 41 41 42 42 41 41 41 41 40 40 39 38 37 37 36 34 32 31 29 28 26 23 18 14 11 10 9 8 9 10 11 12 14 15 15 17 18 19 19 18
45 44 42 42 42 43 42 40 40 40 40 40 39 38 37 36 36 36 35 34 32 30 28 27 25 23 19 15 11 9 8 7 7 7 7 8 9 9 10 11 13 14 15 16

GEFSNGP_500_meanwind_024.txt.gz
Wind_Speed
12 14 15 17 17 17 17 18 20 22 24 26 29 32 34 35 37 39 40 41 42 42 43 43 41 40 40 40 41 43 46 49 51 53 54 56 58 59 59 58 57 57 58 59
15 15 17 18 18 18 18 19 20 23 25 27 30 33 36 37 39 40 41 42 42 42 43 43 42 41 40 41 42 45 48 51 52 54 55 57 57 57 55 53 52 51 52 53
17 18 18 18 18 18 18 20 22 24 27 30 32 35 38 39 41 42 43 43 43 43 44 43 42 42 42 42 44 47 50 52 54 54 56 56 56 54 50 47 46 45 45 46
19 19 19 18 19 18 18 21 24 26 28 31 33 36 38 40 42 43 44 44 45 45 45 44 44 43 43 44 46 49 52 53 54 54 56 55 54 50 46 42 39 37 36 37
19 20 21 19 17 18 19 21 24 27 29 31 34 38 40 42 44 45 46 47 47 47 46 46 45 44 44 45 47 50 52 53 53 54 55 54 52 47 42 37 33 30 29 30
20 20 20 20 19 20 22 23 25 28 30 33 35 38 41 44 45 46 48 48 48 48 48 47 46 45 45 46 47 49 52 52 52 52 53 52 49 44 39 34 29 25 22 23
20 20 21 20 21 22 24 26 28 30 32 35 38 40 42 44 45 47 48 48 48 48 48 47 46 45 45 46 47 49 51 51 51 51 51 50 46 41 36 31 26 20 16 17
19 20 22 21 21 23 25 27 29 31 33 36 39 42 44 46 47 48 48 48 48 48 47 47 47 45 45 46 46 48 50 50 49 50 49 47 43 39 34 29 23 16 11 11
19 20 21 21 22 23 25 27 29 31 34 37 40 43 45 47 48 48 49 48 48 47 46 47 47 46 45 45 46 47 48 48 48 48 47 45 41 37 32 27 21 14 8 6
20 20 21 22 23 24 26 28 30 33 36 39 41 44 46 48 48 48 48 48 47 46 46 46 46 45 45 44 44 45 46 47 48 46 44 43 39 35 30 25 19 13 7 4
19 20 21 23 24 25 27 29 32 35 38 40 42 44 46 48 48 48 48 47 46 46 45 45 45 45 44 43 43 44 45 46 46 45 43 40 37 34 29 24 19 13 7 2
19 20 21 23 25 26 28 31 34 37 39 41 43 44 45 47 48 47 47 46 45 45 45 45 45 44 43 42 42 42 43 44 44 44 42 39 36 32 28 23 19 14 8 1
20 21 22 24 26 27 30 33 36 39 41 42 42 43 44 46 46 47 46 46 45 45 44 44 44 43 42 41 40 41 41 42 42 42 40 37 34 31 27 23 18 13 9 2
21 22 24 26 28 30 32 35 38 40 42 43 42 42 43 45 46 46 46 46 46 45 44 44 43 42 41 40 39 39 39 40 41 41 39 36 33 30 26 21 17 12 8 3
23 24 26 28 30 32 35 38 40 42 43 43 42 41 42 44 45 45 46 46 46 45 45 44 43 42 40 38 37 37 38 38 39 39 37 35 32 28 24 20 15 11 7 4
26 27 29 31 33 35 37 39 41 42 43 43 42 40 41 43 45 45 46 46 46 45 44 43 42 40 39 36 35 35 36 36 37 37 35 34 31 28 23 19 14 10 6 3
31 32 33 34 36 38 39 41 42 43 43 42 41 40 41 42 44 45 45 46 46 45 44 43 41 39 38 35 34 34 34 34 35 35 34 33 31 28 23 17 14 9 5 3
35 35 36 37 38 39 40 40 41 41 41 41 40 40 40 41 42 43 43 44 44 45 44 42 40 38 37 34 32 32 32 32 33 34 33 32 30 28 24 18 14 10 6 3
37 37 37 38 38 39 39 39 39 39 39 40 40 40 39 39 40 41 42 42 42 42 42 41 40 38 36 33 31 30 29 30 31 32 32 31 29 27 24 20 16 11 8 5
41 40 40 40 40 40 39 38 38 38 39 39 40 39 39 39 38 39 40 40 40 41 41 40 39 37 35 32 30 28 27 27 29 30 30 29 28 26 23 21 17 14 10 7
43 43 43 42 42 41 39 37 37 38 38 38 39 39 38 38 37 37 37 38 38 39 39 39 37 36 34 31 29 26 25 24 26 27 28 28 27 25 23 20 18 15 13 10
46 45 44 43 43 41 38 37 38 39 39 38 39 38 38 37 35 35 35 35 35 36 37 37 36 34 32 30 28 25 23 22 22 24 25 26 26 25 23 21 19 17 15 13
49 48 46 44 43 41 38 38 39 40 40 40 39 39 38 35 33 33 33 32 32 33 35 35 34 33 31 29 26 24 21 19 20 20 22 23 23 23 22 21 20 19 17 15
53 51 49 45 43 40 38 40 41 40 39 38 38 38 37 35 32 31 30 30 30 31 32 33 33 31 30 28 25 23 20 17 17 17 18 19 20 21 20 20 19 18 18 16
56 54 50 46 42 41 42 42 41 40 38 37 38 37 35 34 32 30 29 29 28 29 30 31 31 30 28 27 24 22 19 16 14 13 14 15 16 17 18 18 18 17 16 16
57 54 52 48 45 43 43 43 41 39 38 37 37 36 34 33 33 31 29 28 27 27 28 29 30 29 27 26 23 21 18 15 12 11 10 11 12 13 14 15 15 16 16 15
58 57 54 51 48 46 45 44 41 40 39 38 37 35 34 34 33 32 30 28 27 27 27 27 28 27 26 25 22 20 17 14 12 10 8 7 7 8 9 11 12 12 13 14

GEFSNGP_500_meanwind_030.txt.gz
Wind_Speed
10 11 12 13 14 16 16 16 17 19 22 26 27 28 30 31 33 35 36 38 39 40 41 41 42 42 43 43 43 43 43 44 43 43 43 43 44 45 46 48 49 49 50 51
9 9 12 14 16 17 18 18 19 20 23 26 28 29 30 31 33 35 36 38 39 41 42 42 43 43 43 44 44 44 44 44 44 43 43 44 45 46 47 48 48 49 49 48
8 8 10 15 16 19 21 20 22 23 25 26 27 29 30 31 34 35 37 39 40 41 42 43 44 44 44 45 45 45 45 45 44 44 44 44 45 46 47 48 47 47 46 44
9 8 10 14 18 20 21 21 22 23 25 26 28 31 32 33 36 37 39 40 41 42 43 44 44 45 46 46 47 47 46 45 44 44 44 44 46 47 47 47 45 44 42 41
12 10 10 16 22 20 21 22 20 21 23 25 28 32 36 36 38 40 41 41 42 43 43 44 44 45 46 47 48 47 46 45 45 44 44 44 46 46 46 45 43 41 39 38
16 15 13 15 19 21 22 24 22 23 24 26 28 30 34 37 39 39 40 41 41 42 43 44 45 46 47 48 48 47 46 45 44 43 44 44 45 45 44 42 41 39 37 36
21 19 17 21 21 21 23 24 24 25 26 27 29 31 34 36 38 39 40 41 42 43 45 46 46 47 48 48 48 47 46 45 43 43 43 44 44 43 42 41 39 37 35 34
22 20 21 26 25 24 23 23 24 25 26 28 30 33 35 38 40 40 41 42 42 43 45 47 48 48 49 49 48 47 46 44 43 42 43 44 43 41 40 39 37 36 33 30
21 22 26 27 26 25 24 24 25 26 27 29 32 34 36 38 40 40 41 42 42 43 45 47 48 49 49 49 48 47 45 43 42 42 42 43 41 39 38 37 36 34 31 27
22 21 24 26 26 26 26 26 27 27 29 31 33 35 37 38 40 40 41 41 42 43 45 47 48 49 50 49 48 46 45 43 42 41 41 42 40 38 37 35 34 32 29 24
24 23 24 24 26 27 28 28 28 29 31 32 34 36 37 39 40 41 41 42 43 44 45 47 48 49 50 50 48 46 44 42 41 41 41 41 39 37 35 34 32 30 26 22
24 24 26 26 27 28 29 29 29 31 32 34 35 37 39 40 41 41 41 42 43 44 46 47 48 49 50 50 48 46 44 42 40 40 40 40 38 36 34 33 30 28 25 20
26 25 26 26 27 28 30 31 32 33 34 35 37 38 40 41 41 41 42 43 44 45 46 47 48 48 49 49 48 46 43 41 39 39 39 39 36 34 32 30 28 26 23 19
27 27 26 26 27 29 30 32 34 36 37 38 39 40 41 42 42 42 42 43 45 45 46 47 47 48 48 48 47 45 43 40 39 38 38 37 35 33 31 28 26 23 21 17
28 29 29 30 30 31 32 34 36 38 40 41 42 42 43 43 43 43 43 43 44 45 46 46 47 47 47 47 46 44 42 39 37 37 37 35 33 31 29 27 25 22 19 15
32 32 34 35 36 36 37 38 40 41 43 44 44 44 45 45 45 44 44 44 45 45 46 45 45 45 45 45 44 42 40 38 36 35 35 34 33 30 28 26 24 21 17 14
37 38 39 40 40 41 42 43 44 45 45 46 47 47 46 46 46 45 45 45 45 45 45 44 44 43 43 43 42 41 39 37 35 34 34 33 32 30 27 25 23 21 17 14
40 42 43 44 44 44 45 45 46 47 48 47 48 48 47 47 46 45 45 45 45 45 44 43 42 41 41 41 41 39 38 36 34 32 32 32 31 29 27 25 22 20 17 14
43 45 46 47 48 48 48 48 47 48 49 49 49 49 48 47 47 46 45 44 44 44 42 41 40 39 39 39 39 38 36 34 33 31 30 30 29 27 26 25 23 20 17 14
45 46 47 49 50 51 51 51 51 51 51 51 50 50 49 48 47 46 46 45 44 42 40 39 37 37 37 37 36 36 35 33 31 29 28 28 27 26 25 24 22 20 17 15
50 50 50 51 52 53 53 53 52 53 53 52 52 50 49 48 47 46 46 45 42 39 38 36 35 34 34 34 34 34 33 31 29 27 26 25 25 25 24 22 20 19 18 16
55 55 55 56 56 56 56 55 55 55 54 54 53 51 49 48 47 46 44 42 39 37 36 35 33 32 32 32 32 32 31 29 27 25 24 23 23 22 22 21 19 19 18 17
59 60 60 61 61 60 59 57 56 56 56 55 53 51 49 47 46 45 42 40 39 38 36 33 31 30 29 29 29 29 29 27 25 23 21 20 20 20 19 19 18 18 19 18
62 63 64 64 63 62 60 58 57 56 55 54 52 50 48 46 45 44 42 40 40 38 36 34 31 29 27 27 27 27 27 25 23 21 20 18 17 17 16 16 16 17 18 18
64 64 64 63 62 61 59 58 57 56 54 53 51 49 47 45 44 43 42 41 39 38 36 33 29 27 25 24 24 25 25 23 22 20 18 16 15 14 14 13 13 14 15 16
63 62 61 60 59 58 57 56 55 53 52 51 49 47 45 43 42 42 42 41 38 36 33 31 27 24 23 23 23 23 23 22 20 19 16 14 12 11 11 11 10 11 12 12
62 60 59 57 56 54 53 51 49 47 46 46 45 43 41 40 40 40 41 39 36 33 31 29 26 22 21 21 22 22 21 21 19 17 15 13 11 9 8 8 8 8 9 9

GEFSNGP_500_meanwind_036.txt.gz
Wind_Speed
9 10 10 10 10 13 15 16 17 18 19 20 20 21 22 24 26 28 30 32 33 33 34 34 35 36 37 38 39 41 41 42 43 43 43 43 42 41 40 38 38 38 39 39
7 10 10 11 11 13 14 16 18 19 20 21 21 22 23 25 27 29 31 33 34 34 35 36 36 37 39 40 41 42 43 44 44 44 44 44 42 41 39 38 39 39 40 40
7 9 10 12 11 12 14 16 18 20 21 21 22 22 23 25 27 30 32 34 35 36 37 37 38 39 40 42 43 44 45 46 46 46 45 44 43 41 39 39 39 39 39 39
9 9 9 11 13 14 16 18 18 19 21 22 23 23 24 26 29 31 33 35 37 37 38 39 39 41 42 43 45 46 47 47 48 47 46 45 43 41 40 39 40 39 39 38
11 11 11 13 14 15 17 18 19 21 23 23 24 25 26 28 31 33 34 36 37 38 39 40 41 42 43 44 46 47 47 48 48 48 46 44 43 41 40 40 40 39 39 38
13 14 13 12 13 17 19 20 21 23 23 24 26 27 29 30 32 34 35 37 38 39 39 41 42 43 44 45 46 47 48 48 48 48 46 44 43 41 41 41 40 39 38 38
17 18 18 18 20 21 22 23 23 23 24 25 26 28 29 32 34 35 36 37 38 39 41 42 43 44 45 46 47 47 48 48 48 48 47 45 43 41 41 40 39 39 38 37
21 23 23 23 24 24 24 24 24 24 24 25 26 28 30 32 34 35 37 38 39 40 42 43 44 45 45 46 47 47 47 48 48 48 47 45 43 41 41 40 39 38 36 34
23 23 24 24 25 26 26 26 25 25 24 25 26 28 30 33 36 37 38 39 40 42 43 44 45 45 46 46 46 47 47 47 47 48 47 45 43 41 40 39 38 36 34 33
26 24 24 24 25 26 26 27 26 26 25 26 27 28 31 34 37 39 40 41 42 43 44 45 45 45 45 46 46 47 47 46 47 47 46 44 42 41 39 38 37 34 33 31
27 25 24 24 25 26 27 28 28 28 28 28 29 30 32 35 38 41 42 43 43 43 44 45 46 46 46 46 46 46 46 46 46 46 45 44 42 40 38 37 36 33 31 30
27 26 26 26 27 28 30 30 31 32 33 33 34 34 35 37 40 42 44 44 45 45 46 46 46 46 46 46 46 46 45 45 45 45 44 43 41 39 37 36 35 32 30 28
29 28 28 28 30 31 32 33 34 34 35 37 38 39 40 41 41 43 45 46 46 47 47 48 47 47 47 47 46 46 45 44 44 44 43 42 40 37 35 34 33 31 29 27
30 30 30 31 32 33 34 35 36 37 38 39 40 41 42 42 43 45 47 48 49 50 49 49 49 49 48 47 47 46 44 43 43 42 42 41 39 37 34 32 31 29 28 25
30 31 33 34 35 36 37 38 39 40 41 41 42 43 43 44 45 46 48 49 51 51 51 51 51 51 50 48 46 45 43 42 42 41 40 39 37 35 33 31 30 28 26 23
33 34 35 36 37 37 38 39 41 42 43 44 45 46 47 48 48 48 49 51 51 52 52 53 53 52 50 48 45 44 42 41 40 39 38 37 36 34 32 30 28 27 25 23
34 35 36 37 38 40 41 43 44 45 46 46 47 48 50 51 51 52 53 54 54 54 54 54 53 52 50 47 45 42 41 39 38 37 36 35 34 32 31 28 27 26 24 22
36 37 38 39 41 43 45 47 49 49 49 50 51 52 53 54 55 56 56 57 57 56 55 54 52 51 49 46 43 41 39 38 36 35 34 33 32 30 29 27 26 25 24 22
40 41 43 44 46 48 49 50 51 52 53 54 56 56 57 58 58 59 59 59 57 55 54 52 51 49 47 44 40 38 36 35 34 33 32 31 30 29 27 25 25 25 24 23
45 46 48 49 50 52 52 53 54 55 58 59 59 59 60 61 62 61 59 57 55 53 52 50 48 46 44 41 38 36 34 34 32 31 31 30 28 27 26 24 23 24 24 23
51 51 52 52 54 55 57 57 59 60 61 63 63 64 64 63 62 60 57 53 51 51 49 46 45 43 41 38 36 34 33 32 30 29 28 28 26 25 24 23 22 22 22 22
53 54 54 55 56 58 59 61 62 63 64 64 64 64 62 60 58 55 52 49 48 46 44 43 42 40 37 35 33 32 30 29 27 26 26 26 24 23 23 22 20 20 20 20
56 56 57 59 60 61 63 64 65 65 64 62 61 59 57 55 52 49 47 45 43 42 40 39 37 36 34 32 30 29 27 26 25 24 24 24 22 21 21 20 18 18 18 19
59 60 62 63 64 64 64 64 63 63 61 60 58 56 54 51 48 45 42 40 38 37 37 36 34 33 31 29 28 27 25 24 23 22 22 21 20 19 19 17 16 16 16 17
63 63 64 64 64 63 63 62 61 59 58 56 55 53 51 48 45 41 38 36 35 34 33 33 31 28 27 26 25 24 23 22 21 21 20 19 18 18 17 15 14 14 14 14
65 65 64 64 64 63 63 62 60 59 57 55 53 49 46 43 41 38 36 34 32 31 30 29 28 26 25 24 23 21 20 20 20 19 19 18 17 16 15 13 12 11 11 11
64 64 65 65 65 64 63 62 60 58 56 53 50 45 42 39 37 35 33 31 30 28 28 26 25 24 22 22 21 20 19 19 18 18 17 16 15 14 12 11 10 9 8 8

GEFSNGP_500_meanwind_042.txt.gz
Wind_Speed
12 13 13 13 13 14 13 13 13 13 14 16 17 18 18 19 20 20 21 22 23 25 27 29 30 32 33 35 36 37 38 39 40 41 43 44 45 46 46 46 45 44 43 41
11 12 12 12 12 13 13 13 14 15 17 18 20 20 21 22 22 22 22 23 25 26 28 30 32 34 36 37 38 39 40 41 41 43 44 45 46 47 47 46 46 45 43 41
10 11 11 11 11 12 13 14 15 16 18 20 22 22 23 23 23 23 24 25 26 28 30 32 34 36 37 39 39 40 41 41 42 44 45 46 47 47 47 47 46 45 43 41
10 10 10 10 11 11 12 13 15 17 19 21 22 23 23 23 23 24 25 26 28 30 32 34 36 38 39 40 40 41 42 43 44 45 46 47 48 48 47 46 46 44 42 41
11 11 9 9 12 12 13 13 16 18 20 21 22 23 23 24 25 26 26 28 29 31 33 36 38 39 40 40 41 42 43 44 45 46 47 48 48 48 47 46 45 44 42 41
15 14 11 11 13 14 14 14 17 19 20 21 23 23 24 26 27 28 29 30 31 33 35 37 38 39 40 40 41 43 44 45 46 47 48 49 48 47 46 45 44 43 42 40
19 17 15 15 17 16 18 18 18 19 21 22 24 25 26 27 28 30 31 33 34 36 37 39 39 40 41 41 42 44 45 46 48 49 50 50 48 47 45 44 43 42 41 40
22 20 21 20 20 21 21 21 22 22 23 24 25 26 27 28 30 31 33 35 37 39 39 40 41 41 42 43 44 46 47 48 50 51 51 49 47 45 44 43 42 41 40 38
24 23 23 24 24 24 25 25 25 26 26 27 27 28 29 30 32 33 36 38 39 40 41 41 42 43 44 45 47 48 50 51 52 51 51 49 46 44 43 42 41 40 38 37
28 26 27 28 28 28 28 29 29 29 30 31 31 30 31 32 34 35 37 39 41 41 42 43 43 44 46 47 49 51 52 52 52 51 50 48 45 43 42 41 39 38 37 36
30 30 31 30 30 30 30 31 32 32 33 34 34 33 34 35 36 37 38 39 41 42 42 44 45 46 48 50 52 53 54 54 53 51 49 47 44 42 41 40 38 37 36 35
33 33 34 33 33 33 33 33 34 35 36 36 37 37 37 37 38 38 39 40 41 42 43 45 47 49 51 53 55 56 55 54 52 50 48 45 42 41 40 38 37 36 35 34
34 35 35 35 35 34 35 35 36 37 38 39 39 39 39 39 39 40 41 42 43 43 45 47 50 52 54 56 57 57 56 54 51 49 46 43 40 38 37 37 36 35 35 34
34 36 37 37 37 37 37 38 39 40 41 42 42 41 41 42 41 43 45 45 45 46 47 50 52 54 56 57 58 57 56 53 50 47 44 41 39 37 36 35 34 34 34 33
34 36 38 39 40 40 40 41 42 42 43 44 44 44 45 46 46 47 48 49 48 48 49 52 53 55 58 59 58 57 54 51 48 45 42 39 38 37 36 35 33 32 32 32
37 38 40 41 42 43 44 44 44 45 45 45 46 47 48 49 50 51 51 51 51 51 53 54 55 57 59 59 58 55 52 49 46 43 40 38 37 36 35 33 32 32 31 30
39 41 42 43 44 44 45 46 46 46 46 47 48 50 51 53 53 53 53 55 56 57 57 57 59 60 60 58 55 53 50 47 44 41 39 37 35 34 33 32 31 31 31 30
40 41 42 43 44 45 45 46 47 47 48 50 52 53 54 55 56 57 59 60 60 60 59 60 60 59 58 56 53 51 48 45 41 39 36 34 33 33 31 30 30 30 30 29
43 43 44 45 45 46 47 48 50 52 53 54 56 58 59 60 61 62 62 63 62 61 60 61 60 58 55 53 51 48 45 42 39 36 34 32 32 31 30 29 29 29 28 27
45 45 46 47 49 50 51 52 54 56 58 59 61 62 63 64 65 65 65 65 64 62 61 59 57 54 51 49 47 44 42 39 36 34 32 31 30 29 28 27 27 27 26 25
48 49 50 52 53 55 57 58 60 62 63 65 66 66 67 67 67 67 66 64 62 60 58 55 52 49 47 45 42 40 38 35 33 31 29 29 28 26 25 25 25 24 24 23
53 54 56 57 59 60 62 64 65 66 67 68 68 69 68 67 66 65 63 61 58 56 53 50 48 45 43 41 38 36 34 32 30 29 28 27 25 23 23 23 22 22 22 21
58 59 61 62 64 65 66 66 67 67 68 68 67 67 65 64 62 60 57 56 54 51 49 46 44 41 39 37 35 33 30 29 28 27 25 24 23 21 20 20 20 20 19 19
62 63 64 65 65 65 66 66 66 66 65 65 64 63 62 60 58 57 55 52 50 48 45 43 40 37 35 33 30 28 27 26 25 24 22 21 20 19 18 18 18 18 17 16
63 64 64 65 65 65 65 65 64 64 64 63 62 61 60 58 56 54 51 49 46 44 41 38 35 33 31 30 28 26 25 24 23 22 21 20 18 17 17 16 16 15 15 14
63 63 64 64 64 64 64 63 63 62 61 60 58 56 54 52 50 48 45 43 41 38 35 33 31 29 28 28 26 24 23 22 21 20 19 17 16 15 15 14 14 13 12 12
60 61 61 61 61 60 59 59 58 56 54 53 51 48 47 45 42 40 38 36 33 31 29 27 26 25 24 24 23 22 21 20 19 18 17 15 14 14 13 12 12 11 9 9

GEFSNGP_500_meanwind_048.txt.gz
Wind_Speed
11 13 13 12 13 14 14 13 14 14 15 16 16 14 14 14 14 14 14 15 15 16 17 18 19 20 22 24 25 27 28 28 29 31 32 33 35 37 39 40 42 43 44 44
12 13 13 12 12 13 13 14 14 14 15 16 15 15 14 14 14 14 15 15 16 17 18 19 21 23 24 26 27 28 29 30 31 32 34 35 37 39 41 42 44 45 45 44
12 14 13 10 11 12 12 13 14 14 15 16 15 15 15 15 15 16 16 16 17 18 20 21 23 25 27 28 29 30 31 31 32 34 35 37 39 41 43 44 45 45 45 44
13 13 12 10 14 12 12 12 14 15 16 17 17 17 18 17 17 17 17 17 19 20 22 24 25 27 28 29 30 31 32 32 34 35 37 39 41 44 45 46 46 46 45 43
14 13 13 13 16 15 14 14 17 18 18 19 20 19 20 20 19 19 19 20 21 23 24 26 28 29 30 31 32 32 33 34 35 37 39 41 44 46 47 47 47 46 44 42
16 16 15 16 19 18 17 16 20 21 21 22 21 20 21 22 22 22 22 24 25 26 28 29 30 32 33 33 34 34 35 36 38 40 42 44 46 48 49 48 47 45 43 41
19 19 17 22 21 20 19 20 22 22 23 23 22 22 23 24 25 25 26 27 28 30 31 33 34 35 35 36 36 37 38 39 41 42 44 47 49 50 50 49 47 44 42 39
22 21 21 27 24 24 24 24 24 24 24 24 24 24 25 26 27 28 29 30 32 33 34 36 37 38 39 39 40 40 41 42 43 44 47 50 51 51 51 49 46 43 40 37
26 25 28 28 27 26 25 25 25 26 26 26 26 27 27 28 29 30 31 33 34 36 37 38 40 41 43 44 44 45 45 45 46 47 49 51 52 52 51 49 45 42 39 36
28 28 30 29 29 29 29 29 29 29 29 30 30 30 30 31 32 33 34 35 37 38 39 40 42 44 46 48 49 50 49 48 49 49 51 52 52 52 51 48 45 41 38 36
30 31 32 32 31 32 32 33 33 33 33 33 33 33 33 34 35 35 36 38 39 40 41 42 45 47 49 51 53 52 51 51 52 53 53 53 53 52 50 47 44 40 37 35
32 32 33 33 33 34 34 34 34 34 34 34 35 35 35 36 37 38 39 41 42 43 44 46 48 49 50 52 54 54 54 54 54 54 53 53 52 50 48 45 43 40 37 35
31 32 33 33 34 34 34 34 34 34 35 35 36 36 37 38 39 41 42 43 44 46 47 48 50 51 53 54 55 56 55 55 55 56 55 53 51 49 47 44 41 38 36 34
30 31 32 33 34 34 35 35 35 36 36 37 38 39 40 41 43 44 45 46 48 49 50 51 52 54 54 55 57 57 57 58 57 56 54 53 50 47 44 41 39 36 35 34
31 32 34 35 36 37 37 38 38 39 40 40 41 42 44 45 46 47 48 49 51 52 53 54 56 57 58 58 59 59 59 58 57 55 53 51 48 45 43 40 37 35 34 33
33 35 36 37 38 38 39 40 40 41 42 43 44 45 47 48 49 51 52 53 55 56 57 58 59 60 60 61 61 60 59 58 56 54 52 49 46 43 41 38 35 34 33 32
36 37 37 38 39 40 40 41 42 43 45 46 47 49 50 52 53 54 56 57 58 59 60 61 62 62 63 62 62 61 59 57 54 52 49 46 43 40 38 36 34 32 31 30
37 38 39 40 41 42 43 44 46 47 48 50 51 52 53 55 56 57 58 60 61 61 62 63 64 63 63 62 61 59 57 54 52 49 46 43 40 37 35 33 31 30 29 27
39 40 42 43 44 45 46 48 49 50 52 53 55 56 58 59 60 61 62 62 63 64 64 64 63 63 62 60 58 55 53 50 47 44 42 39 36 34 32 30 29 27 26 26
41 42 44 45 46 48 50 51 53 54 55 57 58 60 61 62 63 64 64 65 65 65 65 64 62 60 58 56 54 51 48 46 43 41 38 36 33 31 29 28 26 25 25 24
44 45 47 48 49 51 53 54 56 57 59 60 61 63 64 64 65 65 66 66 65 64 63 62 60 58 56 53 51 48 45 42 40 37 34 32 30 28 26 25 24 23 23 22
47 48 50 51 53 54 55 57 59 60 61 62 63 64 64 65 65 64 64 64 62 61 60 58 56 54 52 49 46 43 40 38 36 33 30 27 26 25 24 23 22 21 20 20
50 52 53 55 56 57 58 59 60 61 62 62 62 63 62 62 62 61 59 58 57 55 53 51 50 48 46 44 41 38 35 33 30 28 26 25 24 22 21 21 20 19 18 18
54 55 56 57 58 59 60 60 60 60 60 60 59 59 58 56 55 53 52 51 49 48 46 44 43 41 39 36 34 31 29 27 27 26 24 23 21 20 19 19 18 17 16 16
56 57 57 58 58 58 58 58 57 56 55 54 53 51 50 48 47 46 45 44 43 41 39 38 37 34 31 28 26 25 24 23 22 20 20 19 19 18 17 16 15 15 15 13
55 56 56 56 55 54 53 52 51 50 48 46 44 43 42 41 40 40 39 38 37 35 33 31 29 27 24 21 20 20 20 19 18 17 17 17 16 15 15 14 13 13 12 11
52 52 51 50 49 48 47 45 44 42 41 39 37 37 36 36 36 35 34 33 32 30 28 24 22 21 19 17 15 14 14 15 16 15 14 14 14 13 13 12 12 11 10 9

GEFSNGP_500_meanwind_054.txt.gz
Wind_Speed
13 13 12 10 11 11 13 14 14 14 14 16 19 21 23 22 21 20 19 18 18 18 18 18 18 18 19 20 21 22 24 25 26 27 28 28 29 30 32 33 34 35 36 37
14 11 12 11 12 13 13 13 13 13 14 18 20 22 22 22 21 21 20 20 19 19 19 19 20 20 21 22 23 24 26 27 28 29 30 31 32 33 34 36 37 38 38 39
13 12 14 13 13 15 14 12 13 14 15 18 20 22 21 21 21 21 21 21 21 21 21 21 21 22 23 23 25 26 27 29 29 30 31 33 34 35 37 38 39 40 41 42
14 13 14 12 12 13 13 12 13 15 16 18 19 19 20 20 20 21 21 22 23 23 23 23 23 24 25 26 27 28 29 30 31 32 33 35 36 38 39 40 41 42 43 45
14 15 16 16 18 18 17 16 15 16 17 19 19 19 21 22 22 21 23 24 25 25 25 26 26 26 27 29 30 31 32 33 34 35 36 38 39 41 42 44 43 43 45 47
16 16 18 21 21 20 19 20 18 17 18 19 20 20 22 24 26 27 27 27 27 27 28 29 29 30 30 31 33 34 35 36 37 39 40 42 43 43 45 45 45 45 47 49
17 16 19 24 23 21 21 23 20 18 19 22 25 26 26 27 28 30 31 31 30 30 30 31 32 33 33 34 36 38 39 40 41 42 44 45 46 46 47 47 47 47 48 49
22 21 24 25 25 24 24 24 23 24 26 27 29 29 29 29 30 31 32 32 33 33 33 34 35 36 36 37 39 41 43 44 46 47 48 49 48 48 48 48 49 50 50 50
26 26 27 29 28 25 25 27 28 30 30 30 31 31 32 32 33 33 34 34 35 36 36 37 38 39 40 41 43 44 46 47 48 49 50 50 50 50 50 50 52 52 53 52
28 30 31 31 28 28 29 30 32 33 33 33 33 34 35 35 35 35 36 36 37 38 39 40 41 42 43 44 46 47 48 49 50 51 51 52 52 53 53 53 54 54 54 54
30 34 35 31 31 32 33 34 34 34 35 35 35 36 36 37 37 37 38 38 39 40 41 42 43 44 45 47 47 49 50 51 52 53 53 54 54 55 55 55 55 55 54 53
34 35 36 37 36 37 37 37 36 36 36 36 36 37 37 38 38 39 40 40 41 42 43 44 45 46 47 48 49 50 52 53 54 55 55 56 57 56 56 57 56 55 53 52
34 35 37 38 38 38 39 39 38 37 37 37 37 38 39 40 41 42 42 43 44 45 46 46 47 48 49 50 51 52 53 55 56 56 57 58 59 59 59 59 57 54 51 50
34 35 37 38 38 38 39 40 40 40 40 40 41 41 42 43 44 45 45 45 46 47 48 49 50 51 52 52 53 55 56 57 59 59 60 60 61 61 60 58 56 53 51 48
34 36 38 39 40 41 41 41 42 43 43 44 44 44 45 45 46 46 47 47 48 49 50 52 53 54 55 56 57 58 59 61 61 62 62 62 62 61 59 56 53 50 48 45
35 37 38 39 40 41 42 42 43 44 45 45 46 46 46 47 48 48 49 50 52 53 54 56 57 57 58 60 61 62 62 63 64 64 64 63 61 59 56 53 50 48 45 42
36 36 38 39 40 41 42 43 44 44 45 46 47 47 48 49 50 51 53 54 55 57 58 60 61 61 62 64 64 65 65 65 65 64 63 61 58 56 53 50 47 43 40 38
36 37 38 40 41 42 42 43 44 45 46 47 48 49 50 52 53 55 56 57 59 60 62 63 64 65 66 67 67 66 66 65 64 62 60 57 54 51 48 45 42 39 36 34
37 38 39 40 41 42 43 44 45 46 47 49 50 52 53 55 56 58 60 61 62 64 64 65 66 66 66 66 66 65 63 62 60 57 55 51 48 44 42 39 37 35 33 32
37 38 39 41 42 43 44 46 47 49 50 52 53 55 56 58 59 61 62 63 64 65 65 65 65 65 64 63 62 60 58 55 53 51 48 44 41 38 36 34 32 32 30 29
40 41 42 43 44 45 47 48 50 52 53 54 56 57 58 60 60 61 62 62 62 63 62 62 61 60 59 57 55 53 51 49 47 44 41 38 35 32 30 29 29 28 27 26
42 43 44 45 46 47 49 51 52 54 55 56 57 58 59 59 59 60 60 60 59 58 57 56 55 53 52 51 50 48 46 43 41 39 35 32 30 28 28 26 26 25 24 23
45 45 46 47 49 50 51 52 54 55 56 57 57 57 57 56 56 55 54 53 52 51 50 49 48 47 47 46 45 43 41 38 35 32 28 27 26 25 24 23 23 22 21 21
47 48 49 50 51 52 53 53 54 55 54 54 53 53 52 51 50 48 47 46 45 45 44 43 42 42 42 42 39 37 35 32 30 27 24 22 21 21 20 20 20 20 19 19
49 50 50 51 52 52 53 53 52 52 51 49 47 46 45 44 43 42 41 40 40 40 40 39 39 39 38 36 34 32 31 28 24 22 20 19 18 17 17 17 17 17 17 17
49 49 50 50 50 50 49 48 47 46 45 43 41 40 39 38 37 36 36 36 37 36 36 37 37 36 34 31 30 29 26 23 19 17 15 14 14 14 13 14 15 15 15 14
47 47 48 47 46 46 44 43 42 40 39 37 36 35 34 34 33 33 33 33 34 34 34 34 34 32 30 28 26 24 20 16 12 10 9 9 10 12 12 12 12 12 12 12

GEFSNGP_500_meanwind_060.txt.gz
Wind_Speed
18 17 13 12 13 14 15 15 15 15 15 15 16 16 15 14 12 10 10 10 10 10 11 12 13 13 15 16 17 19 20 22 23 23 24 24 25 26 26 27 29 30 31 32
18 17 17 16 15 17 17 17 17 17 17 17 17 16 16 15 14 13 12 11 11 12 13 14 15 16 17 18 20 21 23 24 25 26 27 27 28 29 29 30 31 32 33 34
18 18 18 17 16 18 19 19 20 20 20 19 18 17 17 16 15 14 14 13 12 13 14 15 17 18 20 21 23 24 25 27 28 29 30 30 31 31 32 33 34 34 35 36
19 18 19 16 18 20 22 22 23 23 22 22 20 19 17 16 15 15 15 15 16 16 17 19 20 21 23 24 26 27 28 30 31 32 32 33 33 34 35 36 37 37 38 39
21 21 20 18 19 21 22 23 23 23 23 22 21 20 18 17 16 18 19 20 20 21 22 22 23 24 25 27 29 30 31 32 33 34 34 35 36 37 38 39 39 40 40 41
24 24 23 20 21 22 22 23 22 23 23 23 23 23 21 19 19 21 22 23 24 25 27 27 27 28 29 30 31 32 33 34 35 36 37 38 39 40 41 42 42 42 42 43
27 27 25 22 21 21 22 22 22 22 22 22 22 24 23 22 23 24 26 27 28 29 30 31 32 33 33 34 34 35 36 36 37 38 39 40 41 43 44 45 45 45 45 44
26 25 23 22 22 21 20 20 20 20 19 20 20 21 23 23 25 26 28 29 31 33 34 35 36 36 37 38 37 38 38 39 40 40 42 43 44 45 46 47 47 47 47 47
25 24 23 23 21 21 20 20 19 18 19 20 21 21 23 25 27 29 30 31 33 35 36 37 38 39 39 40 40 40 41 42 43 44 45 46 47 48 48 49 49 49 49 49
27 26 25 25 22 23 23 22 21 21 21 22 22 23 24 26 27 29 30 32 34 35 36 38 39 40 40 41 43 44 45 45 46 47 48 49 50 51 51 51 52 51 52 52
28 28 27 27 26 25 24 24 24 25 24 24 25 25 26 27 29 30 31 33 34 36 37 39 40 41 43 44 45 46 47 48 49 50 51 52 52 53 54 54 54 55 55 55
30 29 30 29 27 26 25 26 27 27 27 27 28 29 30 31 32 33 34 35 36 38 39 40 41 42 44 45 46 47 48 49 51 52 53 54 55 56 56 57 57 58 58 58
30 29 29 28 28 28 28 28 29 29 30 31 32 33 34 35 35 36 37 38 39 40 41 42 43 44 45 46 47 49 50 52 53 55 56 57 58 58 58 59 60 60 61 61
27 27 28 28 29 30 30 31 31 32 33 34 35 36 37 37 38 39 40 41 42 43 44 45 46 47 48 49 50 52 53 55 56 58 59 60 60 61 62 62 62 62 62 61
25 26 27 28 29 30 32 32 33 34 35 36 37 38 39 40 41 42 43 44 44 45 46 47 48 50 51 52 54 55 57 58 59 60 61 62 63 64 64 64 64 63 62 60
25 26 27 29 30 31 32 33 34 35 37 38 39 40 41 42 43 44 45 46 47 48 50 51 52 53 55 56 57 58 59 60 61 62 63 64 64 64 64 64 63 61 59 57
26 27 28 29 30 31 32 34 35 37 38 40 41 42 43 44 45 47 48 49 51 52 53 55 55 56 57 58 59 60 61 62 63 64 63 63 63 63 62 60 58 56 53 50
28 29 28 28 30 32 34 35 37 38 40 41 43 44 46 47 48 49 50 52 53 54 55 56 57 58 59 60 61 62 63 63 62 62 61 60 59 57 55 53 51 49 46 43
29 28 28 30 33 34 36 37 39 40 42 44 45 46 48 49 50 52 53 54 55 55 56 57 58 59 60 61 61 61 60 59 58 57 56 54 52 50 48 46 44 41 38 36
32 32 33 34 36 37 39 40 42 44 45 46 47 49 50 51 52 53 54 55 56 57 57 58 58 58 57 57 56 55 54 53 52 52 50 49 47 45 43 40 38 34 32 31
34 36 38 39 39 41 43 44 46 47 47 48 49 50 52 53 54 55 55 55 55 55 55 55 54 53 52 51 50 49 49 49 48 47 45 44 41 40 37 34 30 27 25 25
39 40 41 42 43 44 46 47 48 49 50 50 51 52 53 54 54 54 53 53 53 52 51 49 48 47 46 45 45 45 44 44 44 42 40 38 36 34 30 26 23 21 20 19
42 43 44 46 47 48 48 49 50 50 51 51 52 52 52 52 51 50 49 48 47 46 44 43 42 41 41 41 41 41 40 40 39 38 36 33 31 27 23 20 18 16 16 15
45 47 48 49 49 49 50 50 50 51 51 51 50 50 49 48 46 45 44 42 40 39 38 38 37 37 37 38 38 38 37 37 35 33 30 28 24 20 17 14 12 12 11 11
47 48 49 49 49 50 50 50 49 49 48 47 46 44 43 41 40 39 37 36 35 35 35 35 35 35 36 37 36 35 34 32 30 28 25 21 17 14 12 9 8 7 8 8
47 48 48 48 47 47 46 45 45 44 42 41 39 37 36 35 34 33 32 32 32 32 32 33 33 34 34 34 33 31 29 27 25 23 20 17 13 10 8 5 3 4 4 6
45 45 44 44 43 41 40 39 38 37 36 34 33 32 32 31 30 30 30 29 29 29 30 31 32 31 31 30 28 27 25 23 22 20 16 12 9 7 5 3 2 2 2 4

GEFSNGP_500_meanwind_066.txt.gz
Wind_Speed
15 15 16 17 18 19 18 18 18 16 16 15 15 15 14 14 14 15 14 14 14 14 14 14 14 15 15 16 17 18 18 19 20 20 21 23 24 25 27 28 29 29 29 30
17 17 19 18 18 19 19 19 18 18 17 16 16 17 17 16 16 16 15 15 15 15 15 15 15 16 17 18 19 20 20 21 22 23 24 25 27 28 29 30 31 32 32 33
18 19 20 19 19 20 20 19 18 19 18 18 18 18 18 18 18 18 18 17 17 17 17 17 17 18 19 21 21 22 23 24 25 26 27 28 30 31 32 34 35 35 35 36
20 20 21 19 18 19 19 19 19 19 20 20 21 20 20 21 21 20 20 20 19 19 19 19 20 20 22 23 24 25 25 26 28 29 30 31 32 33 35 37 38 38 39 39
21 22 20 19 20 21 22 21 20 20 20 21 21 21 22 23 22 22 22 22 22 23 22 22 22 23 24 26 27 28 28 30 31 32 33 35 36 36 38 40 41 42 42 42
22 22 21 19 20 21 23 22 21 21 20 20 22 23 22 22 22 23 23 24 25 25 24 24 25 26 27 29 30 31 32 32 34 35 37 39 40 40 41 43 45 46 46 46
21 21 21 20 21 21 22 21 20 20 20 19 20 22 22 21 22 22 23 23 25 26 25 25 27 28 30 31 32 34 35 35 36 38 40 42 43 44 45 46 47 48 49 49
21 21 20 20 20 21 21 20 20 19 19 20 21 22 21 21 21 21 21 23 24 25 27 28 28 30 32 33 35 36 37 38 39 41 42 44 46 46 48 49 50 51 52 52
21 21 21 21 21 21 21 20 20 20 20 21 22 22 23 22 21 22 22 24 25 26 28 30 31 32 34 36 37 38 40 41 43 44 45 46 48 49 50 51 52 53 54 54
23 22 23 22 22 21 21 21 22 22 23 23 23 22 21 21 21 22 23 25 26 28 30 31 33 34 36 38 40 41 42 44 45 46 48 49 50 51 52 53 54 56 56 57
24 24 24 23 23 23 23 23 23 23 23 22 21 21 22 23 24 25 26 27 29 30 32 33 35 37 38 40 42 43 44 46 47 48 50 51 52 54 55 56 58 59 60 61
25 25 25 25 26 26 25 25 24 24 24 24 25 25 25 26 27 27 29 30 31 33 34 36 37 39 40 42 43 45 46 48 49 51 52 54 55 56 58 60 61 63 64 65
26 26 26 26 26 26 25 25 26 26 26 26 26 26 27 28 29 30 31 32 33 35 36 38 40 41 42 44 45 47 48 50 52 54 55 57 58 59 60 61 63 65 66 68
26 26 26 26 26 26 26 26 26 26 26 26 27 28 28 29 30 31 32 34 35 37 39 40 42 43 44 46 48 49 51 53 55 56 57 59 60 62 63 64 65 66 67 69
26 26 26 26 27 28 28 28 27 27 28 28 28 29 29 31 32 33 35 36 38 39 41 43 44 46 47 49 51 52 54 55 57 58 60 62 63 65 66 67 68 68 68 68
25 25 26 27 28 28 30 30 29 29 30 29 29 30 31 33 34 35 37 38 40 42 44 45 47 49 50 52 54 55 57 58 60 61 63 64 65 66 66 66 66 66 65 65
25 25 26 26 27 27 27 28 29 30 29 29 31 32 33 35 36 38 40 42 43 45 47 49 50 52 54 56 57 58 59 60 62 63 63 64 64 63 63 62 62 61 60 59
25 26 26 25 24 25 26 27 27 28 28 30 32 34 36 38 40 42 43 45 47 49 51 53 54 55 57 58 58 59 60 60 61 61 61 60 59 59 58 57 56 54 53 51
26 26 26 26 25 24 25 27 29 30 32 34 36 38 40 42 44 46 48 49 51 52 53 55 56 56 57 57 58 58 58 58 57 56 55 54 53 52 51 50 49 47 44 41
27 27 27 27 27 27 28 29 31 33 35 38 40 42 44 46 48 49 50 51 52 53 54 54 55 55 55 55 55 54 53 52 51 50 49 48 48 47 46 44 42 40 37 34
27 27 27 28 29 31 33 35 37 38 40 42 44 46 47 48 49 50 50 51 52 52 52 52 52 51 50 50 49 48 47 46 45 44 44 44 43 42 40 38 36 33 31 29
28 31 32 34 35 36 38 40 41 42 44 45 47 48 48 49 49 50 50 50 49 48 48 47 47 46 45 44 43 42 42 42 41 41 41 40 38 37 35 32 30 27 26 23
34 36 36 37 38 40 42 44 45 46 47 48 48 48 48 48 48 47 46 45 44 43 43 42 41 40 40 39 39 39 39 40 39 38 37 36 35 33 30 27 24 23 21 17
36 38 40 42 43 44 46 47 48 48 48 48 47 47 46 45 44 43 41 40 39 39 39 38 38 37 37 37 37 37 37 36 34 33 33 32 29 26 24 22 19 17 15 12
40 42 44 45 46 47 47 48 48 47 46 45 44 43 42 40 39 38 37 37 36 36 35 35 35 35 35 35 34 34 33 31 30 29 28 25 23 21 19 18 16 13 11 9
42 43 44 45 45 45 45 44 43 42 41 39 39 38 37 36 35 34 34 33 33 33 33 33 32 32 31 31 30 29 28 27 26 24 22 21 19 17 16 14 12 10 9 8
41 42 42 42 42 41 40 38 37 36 35 34 34 33 33 32 31 31 30 30 30 30 30 29 29 28 27 27 26 25 24 23 22 20 19 18 16 14 12 11 10 9 8 7

GEFSNGP_500_meanwind_072.txt.gz
Wind_Speed
17 18 16 16 15 14 13 12 11 11 12 14 14 14 14 14 14 14 14 14 14 14 15 15 16 16 16 17 17 18 19 20 21 22 23 24 26 27 28 28 29 29 29 29
18 18 18 17 16 15 14 14 13 12 13 13 14 15 16 15 15 16 16 16 17 17 17 18 19 20 20 20 20 21 22 23 23 24 25 26 28 29 29 30 31 31 31 31
18 19 18 16 15 16 16 15 15 14 15 14 15 16 17 18 18 18 19 20 20 20 20 21 22 23 23 23 23 24 24 26 27 27 28 29 30 31 32 32 33 33 33 34
19 20 19 17 17 17 18 17 17 17 17 16 17 17 19 20 20 20 21 22 23 24 24 25 25 25 26 26 26 27 28 29 30 31 31 32 33 33 35 35 36 36 36 37
21 20 18 19 18 19 18 18 18 19 19 19 19 20 20 21 21 22 23 25 26 27 28 29 29 29 29 30 30 31 31 32 32 33 34 35 36 36 37 38 38 39 40 41
22 21 20 21 19 18 18 18 18 18 19 20 20 21 21 21 23 24 25 27 29 30 31 32 31 32 32 33 34 34 34 34 34 35 36 37 38 39 40 40 41 42 43 44
22 21 21 21 19 18 18 18 18 18 19 19 20 21 22 23 24 25 26 27 29 30 32 33 33 33 32 33 35 36 37 37 37 38 38 40 41 42 43 44 44 45 46 47
23 22 22 21 20 20 19 19 19 19 19 19 20 21 22 24 24 26 27 28 30 31 31 32 32 33 34 35 36 37 38 39 39 40 41 42 44 45 46 46 47 48 49 50
23 23 23 21 21 21 21 21 21 20 21 21 21 22 23 24 25 26 28 29 31 32 33 32 32 33 34 35 36 37 39 40 40 42 43 44 45 46 47 48 49 50 52 53
22 23 23 23 22 22 22 23 23 23 23 23 24 24 25 26 26 27 28 29 30 31 31 31 32 33 34 35 36 38 40 40 42 43 44 45 46 48 49 50 51 52 54 55
24 24 23 24 24 24 24 25 25 25 25 25 26 27 27 27 27 27 27 27 26 27 28 30 32 33 34 35 36 38 39 41 42 44 45 46 48 49 51 52 54 56 57 59
22 22 24 24 24 24 25 25 26 26 26 26 27 28 28 29 29 29 29 28 28 29 30 32 33 34 35 36 38 39 41 42 44 45 47 48 50 52 54 56 57 59 61 63
21 22 23 23 24 24 25 26 26 26 27 27 28 29 30 31 31 31 31 30 31 32 33 33 34 35 37 38 40 41 43 44 46 48 50 51 53 55 57 59 61 63 65 66
21 22 23 23 24 25 25 26 27 27 28 30 31 32 32 33 33 32 32 33 33 34 35 36 37 38 39 41 43 44 46 48 49 51 53 55 57 59 61 63 65 66 68 69
21 22 22 23 24 25 25 26 27 28 29 31 32 33 34 35 35 35 35 35 36 37 38 39 39 41 42 44 46 47 50 52 54 56 57 59 61 63 65 66 67 68 69 69
20 21 22 23 24 25 25 26 28 29 30 31 33 34 35 36 36 37 38 38 39 40 40 41 42 43 45 47 49 51 53 55 57 59 61 62 64 65 65 66 66 66 65 64
21 22 23 24 25 26 27 28 29 31 32 34 34 35 35 35 36 38 39 39 39 40 41 43 45 47 49 51 52 54 56 58 59 60 61 62 63 63 62 61 60 59 57 55
22 23 24 25 26 27 28 29 30 30 31 31 33 34 35 37 38 38 38 39 40 42 44 46 48 50 51 53 54 56 57 58 59 59 59 58 58 56 55 54 53 51 49 47
24 25 26 27 27 28 28 29 30 31 32 34 35 36 38 38 39 40 41 42 43 45 46 48 49 51 52 53 54 55 55 55 55 54 53 51 50 50 49 48 46 44 43 41
25 26 27 27 28 29 30 31 31 32 33 34 36 37 39 40 42 43 43 44 45 46 48 49 50 51 52 52 51 51 50 49 48 47 46 46 46 46 44 42 41 40 38 36
26 27 28 28 29 30 31 32 32 33 35 36 37 39 40 42 43 44 45 46 47 48 49 49 48 48 47 47 46 45 45 44 43 43 42 42 41 40 38 37 36 34 32 30
29 30 31 32 32 33 35 36 36 37 39 40 41 42 43 44 45 46 46 47 47 47 46 45 44 43 42 41 41 41 40 39 39 38 38 37 36 34 33 31 29 27 25 24
30 31 32 33 34 36 37 38 39 40 42 43 44 44 45 45 45 45 45 44 43 43 42 40 39 38 38 37 37 36 36 35 35 34 33 32 30 29 27 25 24 22 21 19
31 32 34 35 37 38 39 40 41 42 42 43 43 43 43 43 43 42 41 40 39 38 37 36 36 34 33 33 33 33 32 31 30 29 28 27 26 24 22 21 19 18 17 16
33 34 36 37 38 39 40 40 40 41 41 41 41 41 40 40 39 38 37 36 35 34 34 33 32 31 30 30 29 29 28 27 26 25 25 24 22 20 19 18 17 15 14 13
35 35 36 37 37 38 38 39 39 39 38 38 37 36 35 34 34 33 32 32 31 31 30 29 28 27 27 26 26 25 25 23 22 22 21 20 19 17 17 15 15 14 13 12
34 34 35 35 36 36 36 36 35 34 33 33 33 32 31 31 30 29 29 29 28 27 26 25 24 24 24 23 23 22 21 20 19 19 18 17 16 15 15 14 13 13 12 11

GEFSNGP_500_meanwind_078.txt.gz
Wind_Speed
27 25 24 18 13 13 14 14 16 17 21 22 21 19 18 19 18 16 15 14 14 14 13 12 13 14 15 15 15 16 17 18 19 19 20 21 22 22 23 24 25 25 26 27
30 25 23 19 14 14 17 17 18 20 24 25 23 21 20 20 19 18 18 16 16 16 16 16 16 16 16 17 19 20 20 21 21 22 23 23 24 25 25 26 26 27 29 30
32 26 25 24 20 19 20 20 21 22 25 26 25 22 21 20 19 19 20 19 20 19 19 19 19 19 20 20 21 23 24 24 25 25 26 25 26 27 28 29 30 30 31 32
32 29 29 26 25 24 23 24 25 25 26 27 25 23 22 22 21 21 22 22 22 22 22 22 22 22 23 23 25 26 27 27 28 28 29 30 30 31 32 33 33 33 34 34
32 30 30 28 28 26 25 26 26 25 26 25 24 24 23 22 22 22 22 22 23 23 23 24 24 26 26 27 28 29 30 32 32 32 33 34 34 35 35 35 36 36 36 37
33 31 30 30 30 28 28 28 26 25 26 26 24 23 21 21 22 22 22 23 23 25 26 26 27 28 28 30 31 32 34 35 35 36 36 36 36 37 38 38 39 39 40 41
32 32 32 33 32 28 25 25 24 24 24 25 25 23 22 21 21 22 23 24 25 25 27 28 29 30 31 32 34 35 36 36 37 37 37 37 38 38 38 39 40 41 42 42
35 33 34 33 30 27 25 25 24 24 25 24 25 24 23 23 23 23 23 24 25 27 28 29 30 32 33 35 36 37 37 37 38 39 39 39 39 39 39 41 41 42 42 43
35 36 35 35 33 30 27 23 23 25 26 25 26 26 26 25 25 25 25 26 27 28 29 30 31 33 34 35 37 37 37 38 38 39 40 39 39 39 40 40 41 43 44 45
28 29 30 32 32 28 23 24 25 25 26 26 26 27 26 27 27 27 27 28 28 29 30 31 32 33 33 34 35 36 37 37 36 37 37 37 38 38 40 42 43 45 46 47
25 27 26 25 25 21 21 23 24 25 25 26 26 26 27 28 28 28 29 29 30 31 31 31 32 33 34 34 35 36 36 36 37 37 38 38 39 40 42 43 44 46 48 50
21 21 21 21 20 20 20 21 23 25 26 26 26 27 28 28 29 29 29 31 31 32 33 33 33 33 34 35 36 37 37 37 38 39 40 41 42 43 44 46 47 49 51 53
18 17 17 19 19 19 20 21 22 24 25 26 27 28 28 29 29 30 32 32 33 33 33 34 35 36 36 37 38 39 39 39 40 41 42 43 45 46 48 49 51 53 55 57
18 18 18 19 19 19 21 22 23 24 25 26 27 28 29 30 31 31 32 33 34 35 36 36 37 37 38 38 38 38 39 41 42 42 44 46 47 49 51 53 55 58 60 62
17 18 19 19 20 20 21 22 22 23 25 26 27 28 29 30 31 32 33 34 35 37 37 37 38 38 38 39 40 41 42 43 44 45 46 48 50 52 55 57 58 60 61 62
15 17 18 19 20 20 21 22 23 24 25 26 27 28 30 31 32 33 34 35 35 36 37 38 39 39 40 41 42 43 44 45 46 47 49 50 52 54 55 56 57 58 58 58
17 18 18 19 20 21 22 23 24 24 26 27 28 29 30 32 32 33 34 36 37 38 39 39 40 40 41 42 44 45 46 47 49 50 51 52 53 54 54 54 54 54 54 53
18 18 19 20 21 21 22 23 24 25 27 28 29 30 31 32 34 35 36 37 38 39 40 41 42 42 42 43 45 46 47 48 49 50 51 51 51 51 50 50 50 49 48 47
19 19 20 21 22 23 24 25 26 27 28 30 31 32 33 35 36 37 38 39 40 41 42 42 43 43 44 45 46 47 48 48 49 49 48 48 47 46 46 46 45 43 42 41
20 21 22 23 24 25 26 27 28 29 30 31 32 33 35 36 38 39 40 41 42 43 43 44 44 45 46 46 47 48 47 47 46 46 45 43 43 42 42 41 39 38 38 37
22 23 24 25 26 27 28 29 30 31 33 34 35 36 38 39 40 41 42 43 43 43 44 44 44 45 46 46 46 46 45 44 43 42 40 40 39 38 37 36 35 35 34 33
24 25 26 27 28 30 31 32 33 34 35 36 37 39 40 41 41 41 41 41 42 43 43 44 43 43 43 43 43 42 41 40 40 38 37 36 35 34 33 32 32 31 30 30
26 27 29 30 31 33 33 35 36 36 37 38 39 39 40 40 40 40 41 41 41 41 41 41 41 40 40 39 39 38 37 36 35 34 34 33 31 30 29 29 28 27 26 26
28 30 30 32 33 34 35 36 36 37 37 38 38 39 39 39 39 39 39 38 38 38 37 38 38 37 37 36 35 34 33 32 31 31 30 29 27 26 26 25 25 24 23 23
30 31 32 33 35 36 36 36 36 37 38 39 39 39 38 38 37 36 36 36 35 36 36 36 35 34 34 33 32 30 30 29 28 27 25 24 23 24 23 23 22 21 21 20
32 33 33 34 34 35 36 37 37 38 38 37 36 36 36 35 34 33 33 33 33 33 33 32 32 31 30 29 28 28 27 26 25 24 23 22 22 22 21 21 21 20 20 19
33 33 34 35 35 36 36 36 36 36 35 35 34 33 32 31 30 30 30 30 30 29 29 29 29 29 28 27 26 25 24 23 22 22 21 21 21 20 20 20 20 20 19 19

GEFSNGP_500_meanwind_084.txt.gz
Wind_Speed
37 35 33 31 29 27 26 24 24 22 20 17 17 15 13 12 11 10 9 8 7 7 7 8 8 8 9 10 11 12 12 14 16 17 18 19 20 21 22 23 24 25 26 27
40 38 38 36 33 30 28 25 25 24 22 19 18 16 15 14 13 12 10 9 8 8 8 8 9 10 11 11 13 14 14 15 16 17 17 18 20 22 23 24 25 26 27 29
43 41 40 39 35 32 29 27 26 25 22 20 20 19 16 15 14 12 11 10 10 11 11 11 12 13 14 14 15 16 17 17 17 18 19 20 22 22 23 24 25 27 29 30
46 44 45 40 37 34 33 31 29 27 25 24 22 20 17 16 15 15 14 13 13 12 13 13 14 15 15 16 17 18 18 19 20 21 22 24 24 24 25 26 27 29 30 31
48 49 47 43 39 36 34 32 30 28 28 26 24 22 19 18 17 16 15 15 14 14 15 15 16 16 17 17 19 20 21 23 23 24 25 25 25 26 28 29 31 32 32 34
47 48 47 42 40 37 35 35 31 29 29 28 27 23 21 20 19 17 16 16 15 15 16 17 17 18 19 20 21 22 24 25 26 27 27 28 28 29 30 33 34 34 34 37
45 46 46 43 42 39 38 35 32 31 31 30 28 25 22 21 20 18 17 16 15 16 17 18 19 20 21 22 23 25 26 27 27 29 30 31 32 32 33 34 35 36 37 38
39 43 44 41 39 38 36 34 33 31 31 29 27 26 24 21 20 19 18 17 17 18 19 19 20 21 23 24 25 27 28 29 30 31 32 33 34 35 35 36 36 37 38 38
33 36 37 36 37 36 33 32 30 29 27 25 25 24 24 22 20 18 18 18 18 19 20 21 22 23 25 26 28 30 31 31 33 34 34 35 35 35 36 37 38 39 40 41
25 25 29 30 31 31 29 26 25 26 24 23 24 22 21 20 19 19 19 20 20 21 21 23 24 25 26 28 29 31 32 33 34 35 36 36 36 36 37 37 39 40 41 42
19 21 22 25 24 23 23 23 23 22 22 23 21 19 18 17 17 17 18 19 20 21 22 24 25 26 28 29 31 32 33 34 34 35 36 37 38 38 39 39 40 41 42 44
15 15 16 16 15 15 17 19 19 17 18 18 17 17 17 17 18 18 19 20 21 23 24 25 27 28 29 30 31 32 33 34 35 36 37 38 39 39 40 41 42 44 45 46
9 10 11 11 11 11 12 13 14 15 15 15 15 15 15 16 17 19 20 21 22 23 25 26 27 28 30 31 32 33 34 35 35 36 37 39 40 41 42 44 45 46 47 49
6 6 7 7 8 8 9 10 11 12 12 13 14 14 15 16 17 18 20 21 22 24 25 26 28 29 30 31 32 33 34 36 37 38 39 41 42 43 44 45 46 48 49 51
5 6 6 6 7 7 8 9 9 10 10 11 13 14 15 17 18 20 21 23 24 25 26 27 29 30 31 32 34 35 36 38 39 40 41 42 43 45 46 47 48 50 51 52
7 7 7 7 7 7 8 8 10 11 12 13 15 16 18 19 20 22 23 24 26 27 28 29 31 32 34 35 37 38 39 40 41 42 43 44 45 46 47 49 50 51 52 52
6 6 6 7 7 7 9 10 12 13 14 15 17 18 19 20 22 23 25 26 27 29 30 32 34 35 37 38 39 40 41 42 43 44 45 46 47 48 49 50 50 51 50 50
8 8 8 9 9 10 11 12 13 14 15 17 18 20 21 22 23 25 26 28 29 31 33 34 36 38 39 40 41 42 43 44 45 46 46 47 47 47 48 48 47 47 46 46
9 9 9 10 11 12 13 14 15 16 18 19 20 22 23 25 26 28 29 31 32 34 35 37 39 40 41 41 42 43 43 44 45 45 46 46 46 45 45 44 43 42 41 41
11 11 12 13 13 14 15 16 17 19 20 22 23 24 26 28 29 31 32 34 35 36 37 39 40 41 41 41 41 41 42 42 42 43 43 43 42 41 39 38 37 37 36 35
12 13 14 15 15 16 17 19 20 22 23 25 26 28 29 31 32 33 34 35 36 37 38 39 40 40 39 39 40 40 40 40 40 40 39 38 36 35 34 33 33 32 31 30
14 15 16 17 18 19 20 22 24 25 27 28 30 31 32 33 34 34 35 36 37 38 38 38 38 38 38 38 38 38 38 37 37 36 34 33 32 31 30 30 29 28 26 25
16 17 19 20 21 23 24 26 27 29 30 31 32 32 33 33 34 34 35 36 37 37 37 36 37 36 36 35 35 34 34 34 33 32 31 30 29 28 27 27 26 25 24 23
19 20 22 23 25 26 28 29 30 30 31 32 32 33 34 34 34 34 35 35 35 34 34 34 33 33 32 33 33 33 32 32 31 30 29 28 27 25 25 24 24 23 22 22
22 23 25 27 28 29 30 30 31 31 32 33 33 33 33 33 34 33 33 32 32 31 31 31 31 30 31 31 31 31 30 30 29 28 27 25 24 23 23 23 23 22 22 22
25 26 27 28 29 30 30 31 31 32 32 32 33 33 33 32 32 32 31 30 30 30 29 28 28 29 29 29 29 28 28 27 26 26 25 24 23 23 23 23 22 22 22 22
26 27 28 29 29 30 30 31 31 31 31 31 31 31 30 29 29 28 28 28 28 27 27 27 27 28 27 27 27 27 26 25 25 25 24 23 23 23 23 23 22 22 22 22

GEFSNGP_500_meanwind_090.txt.gz
Wind_Speed
34 32 31 30 29 29 29 27 26 23 20 18 17 16 14 13 14 13 13 12 10 9 8 7 7 7 8 8 8 8 9 10 11 12 13 15 17 18 19 20 22 24 25 26
39 37 36 35 32 30 30 29 28 25 22 20 20 18 17 16 16 15 14 13 12 12 11 10 10 10 10 11 11 12 12 12 13 14 15 15 17 18 20 22 23 25 26 27
43 42 42 40 35 34 33 31 31 29 25 24 22 20 19 18 17 16 16 15 14 15 14 13 13 13 12 13 14 14 14 15 16 15 16 17 18 19 22 23 25 26 27 28
45 44 46 41 38 37 36 34 32 30 28 27 25 23 22 21 20 19 18 17 16 17 16 16 16 15 15 15 16 16 17 18 18 18 19 19 20 21 23 25 26 27 29 30
46 46 45 42 40 38 38 36 33 31 28 27 27 26 24 23 23 22 22 20 19 19 19 18 18 18 18 18 17 17 17 18 19 20 21 21 22 23 24 25 27 29 30 32
41 43 43 40 37 37 36 35 32 31 30 29 29 29 27 26 25 24 24 23 20 21 21 21 20 20 20 20 19 19 19 20 20 20 21 22 24 26 27 28 30 31 32 34
35 38 39 36 35 34 35 33 31 31 31 30 30 31 30 30 28 26 26 25 23 22 21 22 22 22 21 20 20 21 22 22 22 23 24 26 27 29 30 31 32 33 34 35
31 33 34 33 32 32 32 31 31 31 31 31 31 31 31 31 30 29 28 27 25 24 22 22 23 23 23 22 22 23 24 24 25 26 28 29 29 31 32 33 34 35 36 37
28 29 29 30 30 30 30 29 29 30 31 32 31 31 32 32 31 29 27 27 26 25 24 24 23 23 24 24 24 25 25 26 27 28 30 31 32 33 34 35 36 37 38 39
24 24 26 26 27 27 27 27 26 27 27 28 28 28 29 30 29 27 26 26 25 24 25 24 24 24 25 26 25 26 27 29 30 31 32 33 35 35 37 38 38 39 40 41
20 20 20 21 22 22 23 22 22 23 24 25 27 27 26 26 26 26 25 25 24 24 24 24 25 25 25 26 27 28 29 30 31 32 33 34 36 36 37 38 39 40 42 43
16 16 16 16 16 18 19 19 20 20 21 22 23 25 25 24 23 22 23 24 23 22 23 23 23 24 25 26 27 29 29 31 32 34 35 36 37 38 39 41 42 44 45 47
12 12 12 11 11 13 15 15 17 18 18 17 18 20 20 20 18 18 19 20 20 20 21 22 23 24 25 26 28 29 31 33 34 36 37 38 39 41 42 44 46 47 49 50
9 9 9 10 10 11 13 14 15 16 15 16 16 16 17 16 16 17 17 18 18 19 20 22 23 24 26 27 29 31 33 34 36 38 39 41 42 44 45 47 49 50 52 53
6 7 7 8 8 8 10 11 12 13 13 13 12 13 14 14 15 15 16 16 17 19 20 22 24 25 27 29 31 33 35 36 38 40 42 44 46 47 49 50 51 53 54 55
5 6 6 6 6 7 8 8 9 9 9 8 9 10 11 12 13 14 15 16 18 20 22 24 25 27 29 31 33 35 37 39 41 43 45 47 48 49 50 51 52 53 54 54
5 5 5 6 6 7 7 7 7 8 8 8 9 10 11 12 13 15 16 18 20 22 24 26 27 29 32 34 37 39 41 43 45 46 47 48 49 50 50 51 52 52 52 51
6 6 6 6 7 6 6 6 6 7 7 8 9 10 12 13 15 17 19 21 23 25 27 29 31 34 36 39 41 42 44 45 46 46 47 48 49 49 49 50 49 49 48 48
8 8 7 7 6 5 5 6 7 8 9 10 11 12 14 16 18 20 22 24 26 29 31 33 35 38 39 41 42 42 43 45 46 46 47 47 47 46 46 45 45 44 43 41
8 8 7 7 7 7 7 8 10 11 12 13 15 17 18 20 22 24 26 28 30 32 34 36 38 39 40 41 42 43 43 44 44 44 44 43 42 42 42 41 40 40 39 38
8 8 8 8 9 9 11 12 13 14 15 17 18 20 22 24 26 28 30 32 33 34 36 37 38 39 39 40 41 42 42 42 41 40 40 39 39 39 39 38 37 37 36 35
9 9 9 10 11 12 13 14 16 17 18 20 22 24 26 27 29 31 32 34 35 35 36 37 38 38 39 39 40 40 40 39 38 38 37 37 37 37 36 36 35 34 33 32
10 11 12 12 13 15 16 17 19 20 22 23 25 27 29 30 31 32 33 34 35 35 36 37 37 38 38 38 38 38 37 36 36 36 36 36 35 35 34 33 32 31 31 30
12 13 14 15 16 18 19 21 22 24 25 26 28 29 30 31 31 32 33 33 34 34 35 35 36 37 36 36 35 34 34 35 35 35 34 33 33 33 32 31 31 30 30 29
15 16 17 18 20 21 22 24 25 26 27 28 29 29 29 30 31 32 32 32 33 33 33 33 33 33 33 32 32 32 32 33 32 32 32 31 31 31 30 30 30 29 29 28
17 18 20 21 22 23 25 25 26 27 28 28 29 29 30 31 31 31 31 31 31 31 30 30 30 30 30 30 31 31 31 31 31 30 30 30 30 30 30 29 29 28 27 27
20 21 21 22 24 24 25 26 27 28 28 28 29 30 30 30 30 29 28 28 28 28 27 27 27 27 28 28 28 28 28 28 28 28 28 29 28 28 28 27 26 27 27 28

GEFSNGP_500_meanwind_096.txt.gz
Wind_Speed
28 28 27 25 25 24 24 23 23 21 20 20 18 16 15 14 13 12 11 11 10 10 9 9 8 8 8 8 8 9 10 10 11 12 13 13 14 16 17 17 18 20 21 22
30 30 30 29 27 27 27 26 26 25 23 22 21 19 18 17 15 14 13 13 12 12 11 10 9 9 9 9 9 10 11 11 12 13 14 14 14 15 17 18 20 21 21 22
31 32 33 32 29 29 28 27 27 27 26 25 23 23 21 20 19 18 17 16 15 14 13 13 12 12 11 11 11 11 12 13 14 14 15 15 16 17 18 20 21 22 24 24
34 35 37 31 32 30 30 30 30 30 29 27 26 26 25 24 23 21 19 18 17 16 15 15 15 16 16 15 15 15 15 16 16 16 17 18 18 19 20 21 23 24 25 26
35 35 36 33 33 31 31 31 31 31 30 29 28 28 28 27 26 24 22 21 20 19 18 18 18 19 19 19 18 18 18 19 19 19 20 21 21 21 22 23 23 25 26 27
34 34 34 32 33 30 31 32 31 31 31 30 30 30 30 29 28 27 26 25 24 23 22 22 21 21 22 22 22 21 21 22 22 23 23 23 23 23 23 25 26 27 29 30
30 32 32 32 30 29 31 31 29 29 30 30 31 32 31 30 30 30 29 28 27 25 25 24 24 23 23 24 25 25 24 25 25 25 25 24 25 26 27 28 29 30 31 32
28 29 30 29 27 29 29 28 28 28 29 30 31 31 31 31 32 31 31 30 30 29 28 27 27 27 27 28 28 28 28 27 27 27 27 27 28 28 29 30 31 33 34 35
27 27 28 27 27 27 27 28 28 28 29 30 31 31 31 31 31 32 32 31 31 31 31 29 29 30 30 31 30 30 29 29 29 28 28 29 30 31 32 32 33 35 36 38
24 24 25 25 25 25 26 26 27 28 28 30 31 31 31 31 31 32 33 33 32 32 32 31 31 31 32 31 31 30 29 29 29 30 30 31 31 32 32 33 35 36 37 39
22 22 23 23 23 24 24 24 25 26 27 28 28 29 29 29 30 30 30 29 29 30 30 31 30 31 31 31 30 31 30 29 29 29 30 31 32 33 34 35 37 38 40 41
20 21 21 20 21 22 22 22 23 25 25 26 26 27 28 28 27 27 27 28 28 29 29 29 28 28 29 30 29 28 28 27 28 29 30 31 33 34 35 37 39 41 42 44
17 18 18 17 17 17 17 18 20 22 23 23 24 25 25 25 25 26 26 27 27 26 26 27 27 26 26 27 27 27 27 28 29 30 31 33 34 36 37 39 41 43 45 47
14 14 14 14 14 13 14 15 17 18 19 20 20 21 22 21 22 22 22 23 22 22 23 24 24 23 23 24 26 27 27 28 30 31 33 35 37 39 41 43 45 47 49 50
11 11 11 11 12 12 11 13 15 15 16 18 19 19 19 19 19 18 18 18 18 19 20 20 20 21 23 24 26 27 28 30 32 34 35 37 39 42 44 46 48 50 51 52
8 8 8 9 10 11 10 11 13 14 15 16 16 17 18 18 17 16 15 15 15 16 18 19 20 22 23 24 25 27 30 32 34 36 38 40 42 45 47 48 49 50 51 51
8 9 9 9 9 10 10 10 11 11 11 12 12 13 13 13 12 12 13 14 15 17 18 19 21 22 24 25 28 30 32 34 36 39 41 43 45 47 48 48 49 50 50 50
9 9 9 8 7 7 7 8 9 9 9 9 9 10 9 10 10 11 12 14 15 17 19 20 22 24 27 29 31 34 36 38 40 42 44 45 46 47 48 48 48 48 48 47
9 9 9 9 8 8 8 9 10 10 11 9 9 8 8 9 10 12 14 16 18 20 21 24 26 28 30 33 35 37 39 41 43 44 44 45 46 47 47 47 46 45 45 44
10 9 8 7 7 7 7 7 8 7 6 6 6 7 9 11 12 14 16 18 20 23 25 27 29 31 33 36 38 39 41 42 43 44 44 45 45 44 44 44 43 42 41 40
9 8 7 7 6 6 6 5 5 5 6 7 9 10 12 14 16 18 20 22 24 26 28 30 32 34 35 37 38 39 40 41 42 42 43 43 42 42 41 41 40 39 38 38
10 9 8 7 6 6 7 7 8 8 9 11 12 14 16 18 19 21 23 25 27 29 30 32 33 34 35 36 37 38 39 40 40 40 40 40 39 39 38 37 37 36 36 35
12 10 9 9 8 9 9 10 10 11 13 14 16 18 20 22 23 25 26 28 29 30 31 32 33 34 35 36 36 37 37 38 38 38 37 37 36 35 35 34 34 34 34 34
11 10 10 10 10 11 11 12 13 15 16 18 19 21 23 25 26 27 29 30 30 31 32 33 33 34 34 35 35 35 35 35 35 34 34 33 33 32 32 33 33 33 32 32
11 11 11 12 13 13 14 15 16 18 19 21 22 24 25 26 28 28 29 30 30 31 32 32 33 33 32 32 32 32 32 31 31 30 30 30 30 30 31 31 30 30 29 29
12 12 12 13 14 16 17 18 19 20 22 23 24 26 27 28 29 29 29 30 30 30 30 30 30 29 29 29 28 28 28 28 27 27 27 28 28 28 28 27 26 26 27 27
13 14 15 16 17 18 20 21 22 22 23 24 26 27 27 28 28 28 28 28 27 27 27 26 25 25 25 25 25 25 25 25 25 25 25 25 25 24 24 24 25 25 25 25

GEFSNGP_500_meanwind_102.txt.gz
Wind_Speed
28 26 25 26 24 24 25 23 23 23 25 28 28 25 22 18 18 18 18 16 14 12 12 11 11 9 8 7 6 5 5 5 6 8 9 10 11 12 13 15 16 18 19 19
31 28 27 29 26 22 23 22 22 24 26 27 29 27 23 21 21 20 19 18 17 15 14 13 12 11 9 8 8 8 8 8 9 10 11 12 13 14 14 15 16 18 19 20
32 28 28 29 26 23 22 22 23 25 28 32 31 28 27 25 24 22 22 21 20 19 17 16 15 14 12 11 10 11 11 12 12 12 13 14 15 16 16 17 18 18 19 19
31 31 32 29 27 26 25 26 27 31 34 36 36 36 35 32 31 29 27 25 24 22 20 19 18 16 15 13 13 13 13 13 14 15 16 17 17 18 19 19 20 21 21 23
31 30 31 29 29 31 31 30 32 36 39 38 37 36 37 35 34 32 31 29 27 26 24 23 21 20 19 18 17 16 16 16 17 18 18 18 19 20 21 21 22 23 24 26
31 31 29 27 29 31 33 33 35 36 37 36 36 36 36 35 34 34 33 32 31 29 28 26 25 23 23 22 20 20 19 19 20 20 20 21 22 23 24 25 26 27 27 28
30 30 28 31 33 33 33 36 36 35 35 37 38 38 37 36 36 35 34 34 33 32 31 29 27 26 25 25 24 23 23 23 24 24 24 25 25 26 27 28 29 29 29 30
27 27 29 34 34 35 35 35 35 36 35 35 36 37 37 37 37 35 36 35 34 33 32 31 30 29 29 28 28 27 27 27 28 28 28 29 29 29 30 32 32 33 33 33
29 28 31 33 33 34 35 36 36 36 34 34 35 35 36 36 36 36 35 36 35 35 34 33 33 32 31 30 30 30 30 30 30 31 31 32 32 33 34 35 35 35 35 35
29 29 31 31 32 33 34 34 33 33 33 33 34 34 34 35 35 35 35 34 34 35 34 34 34 34 32 31 31 32 32 32 33 33 33 33 34 35 36 36 35 35 35 34
27 29 31 31 31 31 32 31 31 31 31 31 32 33 32 33 33 33 33 34 33 34 34 34 34 34 32 31 31 32 32 33 33 33 33 34 34 34 33 33 33 33 34 35
27 28 29 28 28 29 29 29 29 29 29 29 30 30 30 30 30 30 31 31 31 31 32 32 33 33 33 33 32 32 32 32 32 33 32 32 32 31 31 32 33 33 34 36
26 25 25 26 26 25 26 26 26 26 26 26 27 27 27 27 27 27 27 28 29 29 30 31 32 32 32 32 32 31 31 31 30 30 29 28 28 29 31 33 34 35 36 38
23 23 24 24 23 23 23 22 22 23 23 23 24 24 24 24 25 24 24 25 25 27 28 29 30 30 29 29 28 28 28 28 28 28 29 29 30 31 32 33 35 37 39 41
19 20 19 19 19 19 18 18 18 19 19 19 19 20 20 20 20 19 20 21 22 24 25 25 25 25 25 24 24 24 26 26 27 28 29 30 31 33 34 36 37 39 41 43
15 15 14 14 15 15 15 15 15 14 14 14 15 16 16 17 18 18 18 19 20 21 21 19 19 19 19 19 21 23 24 26 27 28 30 32 34 35 37 39 40 41 42 44
13 12 11 11 11 11 11 12 12 11 10 11 12 13 13 14 14 15 16 15 15 14 14 14 15 16 17 19 21 23 24 26 28 30 32 34 36 37 39 41 43 44 45 46
11 10 9 9 8 8 8 8 8 8 9 9 9 9 10 10 9 10 10 10 11 12 13 14 16 18 20 22 23 25 26 28 29 32 33 35 37 39 41 43 44 45 46 45
10 10 9 8 8 7 8 7 7 6 6 7 8 8 8 7 7 8 8 8 10 11 14 16 17 19 22 23 24 25 27 29 31 33 35 37 39 41 42 43 44 44 45 44
11 9 8 7 7 7 6 6 6 6 7 7 7 7 8 8 8 8 8 9 11 13 15 17 18 20 22 24 26 28 30 32 33 35 37 38 39 40 41 42 42 42 41 41
11 9 8 7 7 7 7 6 6 6 7 7 6 6 6 6 7 8 9 11 13 15 17 19 21 23 25 27 29 30 32 33 34 36 37 38 38 38 38 38 38 38 38 38
11 10 9 9 9 8 7 6 6 6 5 5 5 6 6 7 9 10 12 14 16 18 19 21 23 25 27 29 30 31 32 33 34 35 35 35 34 34 34 34 34 34 35 35
11 11 10 9 9 8 7 7 6 6 6 7 7 8 9 10 12 14 15 17 19 21 22 24 26 27 28 29 30 31 32 32 32 32 31 31 31 31 32 32 32 33 33 33
11 11 10 10 9 9 9 8 8 8 8 9 9 11 12 14 16 17 18 20 22 23 24 26 27 27 28 29 29 29 29 29 29 29 28 29 29 29 30 30 30 30 30 30
10 10 10 9 9 9 9 9 9 10 10 12 13 14 16 17 18 20 21 22 24 25 25 26 26 27 27 27 27 26 26 26 26 26 26 27 27 27 27 27 27 27 27 27
10 9 9 9 8 9 9 10 11 13 14 15 16 17 18 20 21 22 23 24 24 24 24 24 25 25 24 24 24 24 24 24 24 24 24 24 24 24 24 24 25 25 26 27
9 8 8 9 9 10 11 12 14 15 16 17 19 20 21 22 22 23 23 24 24 24 23 23 23 23 23 23 22 22 22 21 21 21 21 22 22 22 22 23 23 24 25 26

GEFSNGP_500_meanwind_108.txt.gz
Wind_Speed
31 31 31 31 30 30 29 29 28 27 25 25 25 23 22 18 15 13 12 11 11 11 10 9 8 8 7 6 5 4 5 6 7 8 9 11 11 12 13 14 15 16 17 18
35 33 33 33 33 33 33 32 32 30 30 28 27 26 24 21 19 18 16 14 15 15 13 11 10 9 9 8 8 7 7 7 8 8 9 10 12 13 14 14 15 16 16 17
36 34 34 35 35 37 37 35 33 33 32 31 30 28 26 23 21 19 19 19 19 16 14 13 12 12 12 11 10 9 9 9 8 8 9 10 11 12 14 15 14 15 16 17
37 34 34 32 35 37 39 38 34 33 32 32 30 29 28 25 23 22 22 23 21 19 17 16 15 15 14 13 12 12 11 11 11 11 11 12 12 13 13 14 16 17 18 19
38 35 33 32 33 35 37 37 35 32 30 30 30 29 28 27 26 26 25 24 25 24 21 20 19 18 17 16 15 15 14 14 13 13 14 14 15 15 15 16 17 18 19 20
37 35 33 31 33 35 36 38 36 34 32 31 31 31 30 29 28 28 28 28 27 26 24 23 21 20 19 19 18 18 17 17 17 17 17 16 17 18 18 18 20 21 22 23
36 34 33 30 30 32 35 36 35 35 34 34 33 31 31 31 30 29 29 29 28 27 26 24 23 23 22 22 21 20 20 20 20 20 19 18 19 19 21 21 22 23 24 25
34 34 33 30 29 31 33 33 34 34 34 34 34 33 33 31 31 31 31 30 30 29 27 25 25 25 24 24 23 22 22 22 23 23 22 22 22 23 24 25 25 26 27 28
33 33 31 30 29 29 30 30 31 31 32 32 33 34 33 33 33 32 31 31 31 30 29 27 26 26 25 25 25 24 24 24 25 24 24 24 25 25 25 26 27 29 30 30
31 31 30 29 28 28 29 29 30 31 31 31 31 31 31 31 31 31 31 31 31 30 28 27 26 26 26 26 26 26 25 25 25 25 25 26 26 25 26 27 29 30 30 32
30 30 30 29 29 29 30 29 28 29 29 29 29 29 29 29 29 28 28 28 28 28 27 26 25 24 25 26 26 27 26 27 26 26 27 27 27 28 29 29 29 30 31 32
31 30 29 28 27 28 28 28 27 27 27 27 27 27 26 26 25 25 26 25 25 25 24 23 23 23 23 24 25 26 26 26 26 27 27 27 28 29 29 29 29 29 29 30
27 27 27 27 27 27 26 26 26 25 25 25 25 25 25 25 24 24 23 23 22 21 21 21 21 21 21 22 23 23 24 25 26 26 26 26 26 25 25 26 27 28 30 31
24 24 24 23 24 23 23 22 22 22 22 22 22 22 21 21 21 21 20 19 20 20 19 19 19 19 19 19 19 21 22 22 22 22 22 23 23 24 26 27 29 31 32 34
21 21 21 21 21 20 19 19 19 19 19 19 19 18 18 18 17 17 17 16 16 17 16 16 16 16 17 17 18 19 19 20 20 21 22 22 23 25 28 29 31 32 34 36
17 17 17 17 17 16 16 16 16 15 15 15 15 15 14 14 15 15 15 15 14 13 13 14 15 16 17 18 17 16 16 17 18 20 22 24 25 27 28 30 32 33 35 37
14 14 13 13 14 14 14 14 14 14 13 12 12 11 12 12 12 12 12 13 13 13 13 13 14 14 14 14 14 15 16 17 19 21 22 24 26 27 29 31 33 34 36 37
12 12 12 12 12 11 11 12 13 12 11 10 10 9 10 10 10 10 10 11 11 11 10 10 10 10 11 12 13 15 17 19 20 22 24 25 27 28 30 32 34 35 37 37
11 10 9 9 9 8 7 8 8 8 8 7 7 7 7 8 8 8 8 8 7 7 7 7 9 10 11 13 14 16 18 20 21 23 25 27 28 30 31 33 34 35 35 36
11 10 9 9 9 8 7 7 6 6 6 6 6 6 6 6 7 7 7 7 7 7 8 9 10 11 13 14 16 17 19 20 22 24 26 27 29 30 31 31 32 32 33 33
11 10 9 8 8 9 8 8 7 7 6 6 6 6 6 6 7 7 7 7 8 9 10 11 12 12 14 16 17 19 21 22 24 25 26 27 28 28 29 29 29 30 30 31
11 10 9 8 8 8 7 8 8 7 7 6 6 5 5 5 6 7 8 9 9 10 11 12 14 15 17 18 20 21 23 24 25 25 26 26 26 27 27 27 27 27 28 27
11 10 9 9 9 8 8 8 8 8 7 6 6 6 6 7 8 9 10 11 12 13 14 15 17 18 19 21 22 23 23 24 24 24 25 25 25 25 25 25 25 25 25 25
10 10 9 9 9 9 9 9 9 8 8 7 7 8 8 9 10 11 12 13 15 15 17 18 19 20 21 22 23 23 23 23 23 23 23 23 23 22 22 22 22 23 23 23
11 10 10 9 9 8 8 8 8 9 8 8 9 9 10 11 12 13 14 15 17 18 19 20 21 22 22 22 22 22 22 22 22 22 21 20 20 20 20 20 20 20 20 21
10 10 9 8 7 7 7 8 8 8 9 9 10 11 12 13 14 16 17 18 19 19 20 21 22 22 21 21 21 21 20 20 20 20 19 19 18 18 18 18 19 19 19 19
9 8 8 7 7 6 7 8 9 10 10 11 12 13 14 15 16 17 18 19 20 21 21 21 21 21 20 20 20 20 19 19 18 18 17 17 17 17 17 17 18 18 18 18

GEFSNGP_500_meanwind_114.txt.gz
Wind_Speed
24 25 27 27 27 27 26 26 25 24 23 21 19 17 15 14 14 14 14 14 14 12 12 11 10 10 10 9 9 8 8 9 9 11 11 11 12 12 14 15 16 16 17 18
29 28 28 29 30 30 30 29 28 28 27 25 23 20 19 18 17 17 16 16 16 15 14 13 13 12 11 10 10 9 9 9 10 11 11 11 11 12 13 14 15 16 17 18
33 32 31 32 31 31 31 30 30 29 29 27 25 23 21 21 20 20 19 18 18 18 16 15 14 14 14 13 12 12 11 11 11 11 12 12 12 13 14 15 16 17 18 18
37 35 37 35 33 33 33 32 32 31 30 29 27 25 24 23 23 22 21 20 20 20 19 19 18 17 16 15 15 14 15 14 14 14 14 14 15 15 15 15 15 17 17 18
40 40 40 38 36 35 34 34 33 31 30 29 28 27 25 25 25 24 22 22 22 22 22 21 20 20 19 18 18 18 17 16 16 16 16 16 16 16 16 17 18 18 18 18
42 42 42 40 39 38 37 35 32 31 30 29 28 27 26 26 26 25 24 24 24 24 24 23 23 21 21 21 20 20 20 19 19 19 18 18 18 18 18 19 20 20 19 20
42 42 42 40 39 38 36 34 31 30 30 29 28 27 27 27 26 26 25 25 25 26 25 24 24 23 23 22 23 23 22 22 21 21 20 20 20 21 21 21 22 21 22 22
39 40 39 38 38 36 34 32 31 30 30 29 28 28 27 26 25 25 25 25 26 25 24 24 24 24 24 24 24 24 24 23 22 22 22 22 22 23 23 24 24 24 24 24
35 36 36 35 35 34 32 32 31 30 29 28 27 27 26 26 25 24 25 25 25 25 25 25 26 25 25 25 26 25 24 25 25 25 24 24 24 24 24 24 25 25 26 26
32 32 33 32 32 32 31 30 29 28 27 27 26 26 25 25 25 25 25 24 24 24 25 25 25 26 26 26 27 27 26 25 26 26 25 25 25 25 25 25 26 27 28 29
31 31 32 32 31 30 29 28 28 27 26 26 25 25 25 24 24 24 23 23 23 23 23 23 24 24 25 25 26 27 27 26 26 25 24 25 25 25 26 27 27 28 29 30
31 31 30 30 30 29 28 28 27 26 26 25 25 25 24 23 23 23 23 23 22 22 22 21 21 22 22 23 23 23 23 24 24 25 24 24 24 25 27 28 28 29 29 30
30 29 29 28 28 27 26 26 25 25 25 24 23 22 22 21 21 22 22 21 21 21 21 21 20 19 19 19 20 21 22 23 23 23 24 24 24 25 26 27 28 28 30 31
28 27 27 27 26 26 25 24 24 23 23 22 21 21 21 21 20 20 20 20 20 20 20 19 18 17 17 18 19 20 21 21 22 22 22 23 24 24 25 26 26 27 28 30
26 27 26 25 24 23 22 22 22 21 20 19 19 19 19 18 18 17 17 17 17 17 17 16 16 15 14 15 16 17 18 18 19 21 22 22 23 23 23 24 25 27 29 30
25 25 24 23 22 20 20 20 20 19 18 18 17 16 16 15 15 15 15 16 16 15 15 14 15 14 13 14 15 16 17 18 20 20 21 22 22 23 23 25 27 28 30 31
23 22 22 22 21 20 19 19 19 17 16 15 15 14 14 14 14 14 14 14 13 13 13 13 13 13 13 14 15 16 16 17 18 19 20 21 22 23 24 26 27 28 30 31
20 19 19 20 20 19 18 18 17 16 15 14 13 13 13 12 12 12 11 11 11 11 11 11 12 13 14 15 16 16 16 16 18 19 20 21 22 23 24 26 27 28 29 30
17 15 15 15 16 16 16 15 15 15 14 13 13 12 11 10 10 9 9 9 9 9 10 10 11 13 14 14 13 14 15 16 17 18 20 21 22 23 25 26 27 28 28 29
16 15 14 14 14 13 13 13 13 12 12 11 11 10 9 8 8 8 8 8 8 8 8 9 10 11 11 12 13 14 16 17 18 19 20 22 23 25 26 26 27 27 28 28
15 14 14 13 13 12 12 12 12 11 11 10 9 9 8 7 8 8 9 8 8 8 9 9 10 11 12 13 14 15 16 18 19 21 22 23 24 25 25 26 26 26 27 27
14 14 13 12 12 11 11 10 10 10 10 9 8 8 7 8 8 9 9 9 10 9 10 11 12 14 15 16 16 18 19 21 22 23 24 24 24 25 25 25 25 25 25 25
14 13 13 12 11 10 9 9 9 9 9 8 8 8 8 8 8 8 9 10 10 11 12 14 15 16 17 18 19 20 21 22 23 24 24 24 24 24 24 24 24 24 24 24
14 13 12 11 10 10 9 8 8 8 8 8 8 8 9 9 9 10 11 12 13 14 15 17 18 19 20 21 21 22 23 23 24 24 25 24 24 24 24 23 23 23 23 22
14 14 12 11 11 10 9 8 8 8 8 8 8 9 10 11 11 12 13 14 15 16 18 19 20 21 21 22 23 23 24 24 25 25 24 24 23 23 22 22 22 21 21 21
14 13 12 11 10 9 8 8 8 8 8 8 9 10 12 13 14 15 15 16 18 19 20 21 21 22 23 23 24 24 25 25 24 24 23 22 22 21 21 21 20 20 19 19
12 12 11 10 9 8 8 8 8 8 9 10 11 12 13 15 16 17 18 19 20 21 22 22 23 23 24 24 24 24 24 24 23 22 22 21 20 20 20 20 19 18 18 18

GEFSNGP_500_meanwind_120.txt.gz
Wind_Speed
24 24 22 20 20 21 21 19 17 16 17 18 17 16 16 15 14 14 13 12 12 12 12 12 12 12 11 12 12 12 11 11 12 12 13 14 14 15 15 15 16 17 18 18
26 26 24 23 23 23 22 21 20 19 20 20 20 19 17 17 16 16 16 15 15 14 14 14 14 13 13 14 14 14 13 12 12 12 13 14 15 15 16 16 16 16 18 18
26 26 26 26 25 24 24 23 22 21 22 22 21 20 20 19 19 18 18 18 18 17 16 17 16 15 15 15 15 15 15 14 14 14 14 15 15 16 16 16 17 17 18 19
27 28 28 27 27 25 25 25 24 24 23 23 23 22 21 20 20 20 20 20 19 19 19 19 18 18 18 17 16 17 17 17 17 17 16 16 17 17 17 17 17 17 18 19
29 28 28 30 29 26 26 27 26 25 25 24 24 23 22 21 21 21 21 21 21 21 21 21 21 20 19 19 19 19 19 18 18 18 19 18 19 19 19 19 19 19 20 21
33 30 28 30 30 27 27 29 27 26 26 26 25 25 24 23 22 22 22 22 22 22 22 22 22 22 22 22 22 22 22 21 20 21 21 21 21 21 21 22 22 22 23 24
34 32 31 34 32 28 30 30 28 27 27 27 27 26 26 24 24 24 23 23 24 24 24 24 24 24 25 24 24 24 23 23 22 22 23 23 22 23 23 23 23 24 25 26
34 33 33 36 33 32 31 30 30 29 29 28 28 27 27 26 26 25 24 25 25 25 25 26 26 26 26 26 26 26 25 24 24 24 24 24 24 24 24 25 25 26 26 27
36 36 36 35 33 32 32 31 31 30 30 29 29 29 28 27 27 26 25 25 25 25 26 26 27 27 27 27 27 26 26 26 26 27 26 26 27 27 27 27 27 27 27 27
35 35 34 33 32 32 31 31 31 30 30 30 30 29 29 28 27 27 26 25 25 26 26 26 26 26 26 26 26 26 27 27 27 27 27 27 27 27 28 27 27 27 27 28
33 33 32 32 31 31 30 30 30 30 30 29 29 28 27 27 26 27 27 27 27 27 26 26 26 26 26 26 26 27 27 27 27 27 27 27 27 26 26 27 27 27 27 27
32 31 31 30 29 29 29 29 29 29 29 28 28 27 26 26 26 27 27 27 27 27 27 27 26 26 26 25 25 25 25 25 25 25 25 26 26 25 25 25 26 26 26 28
31 30 30 29 29 29 29 29 29 29 28 28 27 27 26 26 26 25 26 26 26 26 25 25 25 25 24 24 23 23 23 24 24 23 23 24 24 24 25 25 25 25 25 27
30 30 29 29 29 29 29 29 29 28 27 27 27 26 25 25 25 24 24 24 24 24 24 24 23 23 23 23 22 22 22 22 22 21 21 21 22 23 23 24 24 23 23 25
29 29 29 28 28 28 28 28 27 27 26 24 25 25 25 24 24 23 23 22 22 22 22 22 22 21 21 21 21 21 21 20 20 20 19 20 21 21 22 21 22 22 23 25
28 28 28 27 27 27 26 25 25 25 24 24 24 24 24 23 22 21 21 21 20 20 20 20 20 19 19 19 19 18 18 18 18 18 19 19 18 19 20 20 21 22 23 24
27 26 26 25 25 25 25 24 23 23 23 23 22 21 20 20 19 18 18 18 18 18 18 18 18 17 18 18 18 17 17 17 17 17 17 18 18 18 20 21 22 22 23 24
25 25 25 24 23 23 23 22 22 22 22 21 21 20 19 18 18 17 17 17 17 16 16 16 16 16 16 16 15 15 15 16 16 15 16 17 17 18 19 20 21 22 22 24
25 24 23 23 23 22 22 21 21 21 21 20 20 19 18 17 17 16 16 16 16 15 14 14 13 14 14 13 14 14 14 15 15 15 16 16 17 18 19 20 21 22 23 24
23 23 23 21 21 21 21 20 20 20 20 19 18 17 17 16 15 14 13 13 13 12 12 12 12 11 12 12 13 13 13 13 14 14 15 16 17 18 20 21 22 23 24 24
22 21 21 20 20 20 20 19 18 18 17 17 17 16 15 14 14 13 12 12 12 12 12 13 12 12 13 13 13 13 13 14 15 16 17 18 19 19 20 22 22 23 23 23
20 19 19 19 18 18 18 18 17 17 16 15 15 15 14 13 13 12 12 12 12 12 13 13 13 13 13 13 14 14 15 16 17 17 18 19 20 21 22 23 23 23 23 23
18 18 18 18 18 17 17 16 16 15 15 15 15 14 14 13 12 11 11 11 12 12 12 12 13 13 14 14 15 16 17 18 18 19 20 20 21 22 23 23 23 23 22 22
16 17 16 17 16 16 15 15 15 15 14 14 13 13 13 12 11 11 11 11 11 11 12 12 13 14 15 16 17 17 18 20 20 21 22 22 23 23 23 23 22 22 22 21
16 15 15 14 15 15 14 13 13 13 13 12 11 11 11 11 11 11 11 12 12 12 13 14 15 16 17 18 19 19 20 21 21 22 22 22 23 23 22 22 22 21 21 21
14 13 13 13 13 13 12 11 11 11 10 10 10 10 10 10 10 11 12 12 13 14 15 16 17 18 18 19 20 20 21 21 22 22 22 23 23 22 22 22 21 21 21 20
14 13 13 12 11 11 10 10 9 9 8 8 8 9 9 10 10 11 12 13 15 16 17 18 19 19 20 20 20 21 21 22 22 23 23 23 22 22 22 22 21 21 20 19

GEFSNGP_500_meanwind_126.txt.gz
Wind_Speed
27 23 18 17 19 19 19 20 21 20 23 25 25 25 21 19 19 19 20 20 19 17 17 17 16 16 15 14 14 14 14 13 14 14 14 14 14 14 15 16 16 16 16 16
30 28 22 19 18 18 19 19 21 23 25 27 25 22 20 19 21 20 21 21 20 19 19 19 18 18 18 17 16 16 16 16 15 15 14 14 14 15 16 17 17 18 18 18
30 27 26 27 24 22 21 21 22 25 28 28 27 24 20 19 21 22 22 22 22 21 20 20 20 20 19 19 18 18 18 17 16 16 16 15 16 16 16 18 18 18 18 18
31 28 30 28 25 24 25 24 25 28 31 31 29 26 23 24 24 24 24 24 23 22 22 22 22 21 20 20 20 20 19 19 18 17 17 17 18 18 18 19 18 18 18 18
33 31 30 27 25 26 27 28 28 31 34 33 29 29 29 28 27 26 25 24 24 24 23 23 23 22 22 22 21 21 21 20 19 19 19 19 20 19 19 19 19 19 20 20
35 32 29 27 28 28 29 31 32 34 34 32 29 30 29 27 27 26 25 25 25 25 24 23 23 23 23 23 23 23 22 22 21 22 22 21 21 21 20 20 20 21 21 22
36 35 32 30 32 32 32 33 33 34 33 32 31 29 29 29 28 27 27 26 26 26 25 25 24 24 24 24 23 23 24 24 24 24 24 23 23 22 22 22 22 22 23 24
37 37 34 35 36 37 35 33 32 32 32 32 32 31 31 30 30 29 28 28 27 26 26 26 25 26 25 25 25 25 25 24 24 24 24 24 25 24 24 24 24 24 24 24
35 37 39 38 38 38 37 35 32 33 34 32 32 31 31 31 31 30 30 30 29 28 27 27 26 26 26 26 25 25 26 25 25 25 25 25 25 25 25 25 25 26 26 26
36 38 41 42 41 39 39 38 36 35 35 34 34 33 33 32 32 32 31 31 30 29 29 28 27 27 27 26 26 25 25 25 26 26 26 26 25 25 25 25 26 26 26 27
40 40 40 40 41 41 38 37 36 35 36 35 34 34 33 33 32 32 32 31 30 29 29 28 28 28 27 27 26 26 26 26 26 26 26 26 25 25 25 25 26 26 25 25
40 41 41 40 40 38 37 36 36 35 35 35 35 34 34 33 33 32 31 31 30 29 29 28 28 27 27 28 28 27 26 25 25 25 25 25 24 24 24 25 25 24 24 25
39 39 39 39 39 39 36 35 35 35 34 34 33 33 33 32 32 31 31 30 30 29 29 28 27 27 27 26 26 26 26 25 24 24 24 24 23 24 24 24 24 24 24 24
38 38 38 38 37 37 36 35 35 34 33 32 32 32 31 31 31 31 31 30 29 29 28 27 26 26 26 26 25 25 24 24 23 23 23 23 23 24 24 24 24 24 23 23
36 37 36 36 36 35 35 34 33 32 32 32 32 32 31 31 31 30 30 30 29 28 27 26 25 25 25 24 24 23 23 23 22 22 22 22 22 21 21 22 22 22 22 22
35 34 35 35 35 35 34 33 32 31 31 31 31 31 30 30 29 29 29 28 27 27 26 25 24 24 23 22 22 22 22 22 21 21 21 20 20 20 20 20 21 21 22 23
35 34 34 34 33 32 33 32 31 30 30 29 29 29 28 27 27 26 26 25 25 25 24 24 23 22 21 21 20 20 19 18 18 18 18 19 19 19 20 20 20 21 22 22
32 30 29 30 29 29 29 30 29 29 28 28 27 27 26 25 24 23 22 22 21 20 20 20 20 20 19 18 17 17 16 16 17 17 18 19 19 20 20 20 20 21 21 22
30 29 28 27 27 28 28 28 27 26 26 25 25 24 24 23 23 22 21 21 20 20 19 19 18 18 17 17 16 16 16 17 17 17 17 18 19 20 20 20 20 20 21 22
28 28 27 27 27 27 26 25 24 23 23 23 22 22 22 21 21 21 21 20 20 19 18 18 17 16 16 16 15 15 15 16 16 16 17 18 18 18 18 19 20 21 22 22
27 28 27 26 26 25 24 24 23 22 21 20 21 21 21 20 20 20 19 18 18 17 16 15 14 14 14 15 15 15 16 17 17 18 18 18 19 19 20 20 21 22 23 23
24 25 25 24 24 23 22 22 21 21 20 20 20 19 19 18 18 18 17 16 15 15 14 14 14 14 15 15 16 17 17 18 18 18 19 19 20 21 21 22 22 23 24 24
21 21 21 21 20 20 20 19 19 19 19 19 18 18 17 17 16 15 15 14 14 14 14 14 15 15 16 16 17 18 18 18 18 19 20 21 21 22 22 23 23 24 25 25
20 20 19 18 18 18 17 17 17 17 17 17 16 15 15 15 15 14 14 14 14 14 14 14 15 16 17 17 17 17 18 18 20 21 21 22 22 23 23 24 24 25 26 26
17 17 16 16 16 16 15 15 15 15 15 15 14 13 13 13 13 13 14 14 14 14 15 15 15 16 16 17 17 18 19 20 21 22 22 23 24 24 25 25 25 26 26 26
15 15 15 14 14 14 14 14 14 14 14 14 14 13 13 13 13 13 14 14 14 15 15 15 16 17 18 18 19 20 21 21 22 23 24 24 25 25 25 26 26 26 26 26
12 12 12 12 12 11 11 12 12 12 12 12 12 11 11 12 12 13 13 13 14 15 15 16 17 18 18 19 20 21 22 22 23 24 24 25 25 26 26 26 26 26 26 26

GEFSNGP_500_meanwind_132.txt.gz
Wind_Speed
29 28 29 28 26 25 24 23 22 22 22 22 22 22 22 21 20 18 14 14 14 14 14 14 14 13 13 13 12 12 12 12 12 12 11 11 12 12 12 12 12 13 14 15
32 31 31 32 30 29 26 23 22 22 22 22 23 24 23 22 22 21 19 17 16 16 15 15 15 14 14 14 14 13 13 13 13 13 13 13 13 13 12 12 13 14 15 16
35 33 33 34 32 31 29 27 25 24 22 22 23 24 24 24 24 23 20 19 17 17 17 16 16 15 15 15 15 14 14 14 15 14 14 14 13 14 14 13 13 13 14 15
38 35 37 33 32 33 32 31 29 27 25 24 25 26 26 26 25 24 23 20 18 18 19 18 17 16 16 16 16 15 15 15 15 15 14 14 14 14 15 15 16 16 16 17
40 39 37 34 33 34 34 34 33 31 30 28 27 27 27 27 26 26 24 22 20 18 18 18 18 18 18 18 17 17 17 16 16 16 16 16 16 16 17 17 17 17 17 18
43 41 38 33 33 36 37 37 35 34 32 31 30 29 27 27 26 26 24 22 22 20 20 20 20 19 19 19 19 19 18 18 17 17 17 18 18 18 18 18 18 18 18 19
45 43 39 35 34 36 38 37 35 33 33 32 32 30 28 27 26 25 23 23 22 22 21 21 21 21 21 20 20 20 20 19 19 19 19 19 19 19 20 19 19 19 19 19
47 46 42 35 34 36 36 35 35 34 33 33 33 32 31 29 27 25 23 22 23 23 23 23 23 23 23 23 22 22 22 21 21 20 20 21 21 20 20 20 21 21 21 20
48 46 41 37 36 36 37 37 36 34 34 34 33 33 31 29 28 25 23 24 24 25 25 25 24 24 24 24 24 24 24 23 22 22 21 21 21 21 21 21 22 22 21 21
47 46 43 40 38 38 38 38 37 36 35 34 33 32 31 29 27 27 27 27 28 27 27 26 26 26 26 25 25 25 25 24 24 23 23 23 23 22 22 22 22 22 22 22
46 45 43 41 39 38 37 37 37 36 36 35 34 35 34 32 31 30 29 29 29 28 27 27 27 27 26 26 25 25 25 25 25 24 24 24 23 23 22 22 22 22 22 22
44 43 42 40 38 37 36 36 36 36 35 35 34 33 32 31 30 30 29 29 29 28 28 28 28 28 27 26 26 25 25 24 24 24 24 23 23 22 22 23 23 23 23 22
42 40 39 38 38 37 37 37 37 35 35 34 34 34 32 31 30 30 29 30 30 29 29 28 28 27 27 26 25 25 25 24 23 24 24 23 23 23 23 23 23 23 23 22
40 39 37 37 36 36 36 37 36 35 34 32 33 33 32 31 31 30 30 30 30 30 29 28 28 27 27 26 25 25 24 23 23 23 23 23 22 23 23 23 23 22 21 21
42 40 39 38 36 35 34 35 35 34 34 34 33 33 32 31 30 31 31 31 30 30 29 29 28 28 27 26 25 25 24 23 23 22 22 22 22 22 22 21 21 21 21 21
38 38 37 35 35 34 34 32 31 32 31 31 30 30 29 29 29 30 30 30 30 29 28 27 27 26 25 25 23 22 22 22 22 22 21 21 21 21 21 21 21 21 21 21
36 35 34 34 33 32 32 31 31 30 30 29 28 28 28 29 29 29 29 28 28 27 27 26 25 24 23 22 21 20 20 19 19 19 19 20 19 19 20 20 20 21 22 22
34 32 31 31 30 30 30 28 28 28 28 28 27 27 27 27 27 27 27 26 25 25 24 24 23 22 21 20 20 19 19 19 19 19 19 19 19 19 19 19 20 20 20 21
30 30 30 30 29 28 28 28 27 27 26 26 25 25 24 24 24 24 24 23 23 22 22 21 20 20 19 19 19 18 18 18 17 17 17 17 17 18 19 19 20 20 21 21
27 27 27 27 27 27 26 26 25 25 24 24 23 23 22 22 22 22 21 21 20 20 19 19 19 19 18 18 18 17 16 16 16 17 17 17 18 18 19 20 20 21 21 22
25 25 25 25 25 25 24 24 22 22 22 22 23 23 22 21 20 20 20 20 19 18 18 18 17 17 17 17 16 16 16 16 17 17 18 19 19 19 20 21 22 22 23 23
23 23 23 23 22 22 21 21 20 20 20 20 21 21 21 21 19 19 18 18 17 17 17 17 16 16 16 16 16 16 16 17 17 18 19 19 19 20 20 21 22 22 23 25
22 21 21 21 20 21 21 20 20 19 19 19 19 19 19 18 18 18 17 17 17 17 17 16 16 15 15 16 16 16 17 18 19 19 20 20 20 21 21 22 23 24 25 26
18 18 19 20 20 19 20 19 18 18 18 17 17 17 17 17 17 17 16 16 16 16 16 16 16 16 16 17 17 18 18 19 19 20 20 21 21 22 23 23 25 25 26 26
15 15 16 17 18 18 17 17 16 16 16 15 15 16 16 16 16 15 15 15 15 16 16 16 16 16 17 17 18 18 19 19 20 20 21 22 23 24 25 25 26 26 26 26
12 13 14 14 15 15 15 14 14 14 14 14 14 14 14 14 14 15 15 15 15 16 16 16 16 16 17 18 18 19 20 20 21 22 23 24 25 25 25 26 26 27 27 27
12 12 12 12 12 13 12 12 12 13 13 14 14 15 15 15 15 15 16 16 16 15 16 16 17 18 19 19 20 21 21 22 23 24 24 25 25 25 26 26 27 28 28 29

GEFSNGP_500_meanwind_138.txt.gz
Wind_Speed
31 30 30 29 27 26 26 24 23 20 18 16 14 14 14 13 12 12 13 13 13 12 12 12 11 11 10 10 10 10 10 10 10 11 11 12 13 13 13 14 14 15 16 16
31 30 31 31 30 28 27 26 25 22 20 17 15 14 14 14 13 13 14 14 14 14 13 13 12 12 11 11 11 12 11 11 11 12 12 13 13 14 14 15 15 16 16 16
33 31 31 33 31 30 28 27 26 24 21 19 17 16 15 15 15 15 16 16 16 16 14 13 14 14 13 13 13 13 13 13 13 13 14 14 13 14 14 14 14 15 16 16
35 33 35 31 29 30 29 28 27 26 24 22 21 19 18 17 17 17 17 17 16 16 15 15 15 14 14 14 14 14 14 14 14 14 15 14 14 14 14 14 15 16 16 17
38 36 35 33 31 29 29 28 27 27 25 24 24 23 21 20 19 19 19 18 17 16 16 16 16 16 16 16 16 16 15 15 15 15 15 16 16 15 15 16 17 17 17 18
42 39 38 34 32 32 30 30 28 28 28 27 26 24 23 22 22 21 21 20 18 18 18 18 17 17 17 17 17 17 17 17 17 17 17 17 17 17 17 17 18 18 19 19
45 44 42 38 36 34 34 31 29 29 29 28 27 26 24 23 23 23 22 21 20 20 19 19 19 18 18 18 18 17 17 18 18 18 19 18 18 18 19 19 19 19 19 20
48 47 46 43 40 38 36 34 32 30 29 28 27 27 26 25 25 25 24 23 23 22 22 20 20 20 20 20 19 19 19 19 20 20 20 19 20 20 20 20 20 20 20 21
51 49 47 45 43 41 39 37 34 32 31 29 29 29 28 28 27 27 26 26 25 25 24 22 22 22 21 21 21 20 20 21 21 21 21 22 22 21 22 22 22 22 22 22
52 51 49 48 46 44 42 40 37 34 32 31 31 31 30 30 29 29 28 28 28 27 25 23 22 22 22 21 21 21 21 22 22 22 23 23 23 23 23 23 23 24 24 24
52 52 50 49 47 46 44 41 38 36 33 32 32 32 31 31 31 31 30 28 27 27 26 25 25 24 24 23 23 23 23 23 24 24 24 23 24 24 24 24 24 24 24 24
51 51 51 49 47 46 44 42 40 38 36 34 32 32 32 32 32 31 30 30 29 28 27 27 26 26 25 25 25 25 25 25 25 25 24 25 25 24 24 24 24 24 24 25
49 49 49 49 48 47 46 43 40 38 36 35 34 33 33 33 32 32 32 31 30 29 28 28 28 27 27 27 27 27 27 27 26 26 25 25 25 24 24 24 25 26 25 25
46 46 46 46 46 46 45 43 40 38 37 34 33 33 33 33 32 31 31 30 30 30 31 30 28 28 28 29 28 28 28 28 27 27 26 25 25 25 25 25 25 25 25 25
43 42 41 42 42 42 42 41 40 38 37 35 33 33 32 31 31 31 30 30 30 30 29 29 29 29 30 30 30 29 28 28 27 26 26 25 25 25 25 25 25 25 25 25
39 39 39 39 39 39 39 39 38 37 36 35 33 32 30 29 30 30 30 30 30 30 30 30 30 30 30 30 29 28 27 27 26 26 25 25 24 25 24 24 24 24 25 25
35 36 37 37 37 37 37 36 36 35 33 33 32 31 30 29 29 30 30 31 30 30 30 30 30 29 29 29 28 27 26 26 26 25 25 25 25 24 24 24 24 24 25 25
32 33 34 34 34 35 36 35 34 33 32 31 31 31 31 30 29 28 28 29 28 28 29 28 28 28 28 28 27 26 26 25 25 25 24 24 24 23 23 23 24 24 24 24
30 30 30 31 31 32 33 34 33 32 31 30 29 29 29 28 28 27 27 27 26 26 26 26 26 26 26 25 25 25 24 24 24 24 23 23 23 22 22 22 23 23 23 24
28 28 27 27 27 27 28 28 29 29 29 28 28 27 26 26 25 26 26 26 26 26 25 25 25 25 24 24 24 23 23 23 22 22 22 22 23 22 23 23 23 24 24 25
25 26 24 23 24 25 25 25 25 25 25 25 25 25 24 24 24 24 24 25 25 24 24 24 23 23 23 23 22 22 22 22 22 22 22 22 22 22 23 23 24 25 25 26
22 22 21 21 22 22 22 21 21 22 22 22 22 22 22 22 22 22 22 23 23 22 22 22 22 22 22 22 21 21 21 22 22 22 22 22 23 23 24 25 25 25 25 26
19 20 19 19 20 20 20 19 19 20 20 20 20 20 20 20 21 21 21 21 21 22 22 22 21 21 21 21 21 21 21 21 22 22 23 23 23 24 24 25 25 26 26 27
17 17 18 18 19 18 18 19 19 19 18 18 19 19 20 20 21 21 21 21 21 20 20 21 21 21 20 21 21 21 21 22 22 23 23 24 24 24 25 25 26 27 27 27
15 16 16 17 18 17 17 17 17 17 17 18 18 19 19 19 19 19 20 20 20 20 20 20 20 21 21 21 21 22 22 23 23 23 24 24 25 25 26 26 27 27 27 27
14 14 15 15 16 16 17 17 17 17 17 18 17 17 18 18 17 17 18 18 19 19 19 19 20 20 20 21 21 22 22 23 24 24 24 25 25 26 26 26 27 27 27 27
13 12 13 13 13 14 15 15 15 15 15 16 16 17 17 18 17 17 17 17 18 19 19 19 20 20 21 21 22 22 23 24 24 24 25 25 26 26 27 27 27 27 28 28

GEFSNGP_500_meanwind_144.txt.gz
Wind_Speed
29 28 27 26 26 25 24 22 20 19 17 15 14 13 12 11 11 10 10 10 11 12 12 12 11 11 11 10 10 10 10 10 11 11 12 12 13 13 14 15 16 16 16 16
31 30 29 28 28 27 25 23 21 20 18 16 15 14 13 12 11 12 11 11 12 12 12 13 12 12 11 11 11 11 11 11 12 12 13 13 13 14 15 15 16 16 16 16
32 31 31 31 29 28 26 24 22 21 19 18 17 15 14 13 13 13 14 14 14 13 14 14 14 13 13 12 12 13 13 13 13 13 14 14 14 14 15 15 15 16 16 17
33 34 34 30 29 28 27 26 24 23 21 20 19 17 16 15 15 15 15 16 16 15 15 15 15 14 14 13 14 14 14 15 14 14 15 15 15 16 16 16 16 17 17 18
37 34 33 32 31 28 27 26 25 23 22 22 21 19 19 18 17 17 17 17 18 17 16 16 16 16 15 15 15 16 16 16 16 16 16 16 16 17 17 17 17 17 18 19
40 36 31 30 32 29 29 29 27 25 24 23 22 21 21 20 19 18 18 19 19 19 18 17 17 17 17 17 17 17 18 18 18 18 18 18 18 18 18 18 18 18 18 19
41 39 34 34 34 31 30 29 28 26 26 25 24 23 22 22 21 21 20 20 20 20 20 20 20 20 20 19 19 20 20 21 21 20 20 20 20 20 20 19 20 20 20 20
43 41 37 38 35 34 32 31 30 28 27 27 26 24 23 23 23 23 23 23 23 23 22 22 22 22 22 22 22 22 22 23 22 22 22 22 22 22 21 22 22 22 22 22
45 44 42 40 37 35 34 33 32 31 30 29 28 27 26 25 25 24 25 25 25 25 24 24 24 24 24 24 24 24 24 24 24 24 24 23 23 23 23 23 24 24 24 24
46 45 44 42 39 37 36 35 34 33 32 31 30 29 28 28 27 27 26 27 27 27 27 26 26 26 26 26 26 26 26 25 25 25 25 24 24 24 25 25 25 25 26 26
45 45 44 43 42 40 39 38 37 36 35 34 33 31 30 30 29 29 29 29 29 30 29 29 29 28 28 28 28 28 27 27 27 27 27 26 26 26 26 27 27 27 27 28
43 44 44 43 43 42 41 40 39 38 38 37 35 34 34 33 32 31 31 31 31 31 31 31 31 30 31 31 31 29 28 28 28 28 28 28 28 28 28 28 28 28 28 28
42 42 42 42 42 43 43 42 42 40 39 38 37 36 35 34 34 33 32 32 32 32 33 33 33 32 33 33 32 30 30 30 30 30 29 29 29 29 29 29 28 28 28 28
41 41 41 42 42 42 42 42 42 42 41 40 39 38 36 35 35 34 34 34 34 34 34 34 34 33 33 32 31 31 31 31 31 31 30 30 30 30 29 29 29 29 29 29
39 40 40 40 41 42 42 41 41 41 41 40 40 39 37 36 35 35 35 34 34 35 34 34 33 33 32 32 32 31 31 31 31 31 31 31 30 30 29 29 29 29 30 30
38 38 39 39 39 40 40 40 40 40 40 39 39 38 37 36 35 35 34 34 33 34 34 34 33 33 33 32 32 32 32 32 32 32 31 31 31 30 30 30 30 30 29 29
37 36 36 37 37 38 38 38 38 37 36 36 36 36 36 35 34 34 34 33 33 32 32 33 32 32 31 32 33 32 32 32 32 32 31 31 30 30 30 29 29 29 29 28
34 34 34 34 34 35 36 36 36 36 35 35 35 35 35 34 33 33 33 33 33 32 31 31 31 31 31 32 32 32 32 32 31 31 30 30 29 29 29 28 28 28 28 27
32 33 33 33 33 33 33 34 34 34 34 34 34 34 34 34 34 33 33 33 32 32 32 32 32 31 31 32 32 32 31 31 31 30 30 29 29 29 29 28 28 27 27 27
29 30 31 31 32 32 32 32 32 32 32 33 33 33 33 33 33 33 32 32 32 32 32 32 32 32 32 32 31 31 31 30 30 29 29 28 28 28 28 27 27 27 26 26
26 27 28 29 30 30 30 31 31 32 32 31 32 32 32 32 31 31 31 31 31 31 31 31 31 31 31 31 31 30 30 30 30 28 28 28 28 28 27 27 27 27 27 27
23 23 25 26 27 27 28 29 29 30 30 31 31 30 29 29 29 29 29 29 30 29 29 30 30 30 30 30 29 29 29 30 29 28 27 27 27 27 27 27 27 27 27 27
21 21 21 23 23 24 25 26 26 26 27 27 27 27 26 26 27 27 28 28 28 28 28 28 28 28 28 28 28 28 28 28 27 27 26 27 27 27 27 27 27 27 28 28
17 18 18 19 20 21 22 23 24 24 24 23 23 24 24 25 25 25 26 26 26 26 26 27 27 27 27 27 27 27 27 27 27 27 27 27 27 27 27 27 27 28 28 28
16 16 16 17 18 19 19 19 20 20 20 21 21 21 22 22 23 23 23 23 24 24 24 24 24 24 25 25 26 25 25 26 26 26 26 26 26 27 27 27 27 28 28 29
13 13 14 16 17 17 17 17 16 16 17 18 19 19 20 20 21 22 22 22 22 22 22 23 23 23 24 24 24 24 24 24 24 25 25 25 26 26 27 27 28 28 29 29
11 11 12 13 14 14 15 15 15 15 15 16 17 17 18 18 19 19 19 20 20 20 20 21 22 22 22 23 23 23 24 24 24 25 25 26 26 27 27 27 28 28 28 28

GEFSNGP_500_meanwind_150.txt.gz
Wind_Speed
31 26 21 19 20 20 22 23 21 19 17 18 18 20 20 19 19 17 16 15 15 15 14 14 15 15 16 15 15 15 15 14 14 14 13 14 14 14 15 15 15 15 15 15
34 32 27 22 19 19 19 21 22 22 20 20 22 21 20 20 20 18 17 16 16 15 15 15 15 15 16 16 16 15 15 15 15 14 14 14 15 15 15 15 16 16 16 16
34 31 31 30 25 21 20 21 22 23 22 23 25 24 23 22 21 20 18 17 17 16 16 16 16 16 16 16 17 16 16 16 16 16 16 16 16 16 17 17 17 17 17 17
35 32 33 31 26 25 24 23 23 23 23 25 26 27 27 24 22 21 20 19 18 18 18 18 17 17 17 17 17 17 17 17 18 18 18 18 18 18 18 18 18 18 18 18
37 34 33 30 26 25 25 25 26 26 28 29 28 29 28 26 24 22 21 20 19 19 19 19 18 18 18 18 18 19 19 19 20 20 20 20 20 20 20 20 19 19 19 19
38 36 31 27 26 26 28 29 29 30 30 29 28 29 27 26 25 24 23 21 20 20 20 19 19 20 20 20 20 20 20 21 21 21 22 22 22 22 21 21 21 21 20 19
39 38 35 29 26 27 28 30 31 31 31 30 30 30 30 28 27 25 25 23 22 22 22 21 21 21 21 22 22 22 22 23 23 23 23 23 23 22 22 22 22 22 22 21
40 38 37 34 33 32 32 31 31 33 32 30 31 31 31 30 28 28 27 26 25 25 24 24 23 23 23 23 24 24 24 24 25 25 25 25 24 23 23 23 24 23 23 23
36 38 39 39 39 38 38 35 33 33 33 31 31 32 32 31 31 30 29 29 28 27 27 26 26 26 26 27 27 26 26 26 26 26 27 27 26 25 25 25 25 25 25 25
37 39 41 42 42 42 42 40 39 38 36 35 34 34 32 31 31 32 31 31 30 29 29 29 28 28 29 29 29 29 29 29 29 29 28 28 27 27 27 26 26 26 26 27
42 42 42 43 44 44 42 42 41 40 38 37 37 36 34 34 34 34 33 33 32 31 31 31 31 31 31 32 32 32 32 31 31 30 30 30 29 29 29 28 28 28 29 28
43 44 46 46 45 44 43 42 42 41 40 39 39 37 36 36 36 35 35 34 34 34 33 33 33 33 33 34 34 34 34 33 33 32 32 31 31 31 31 30 30 30 30 29
45 46 45 45 43 42 43 43 42 42 41 41 40 39 38 38 37 37 36 36 36 36 36 35 35 35 35 35 34 34 34 34 33 33 33 33 32 32 32 31 31 31 31 30
44 44 43 44 44 43 43 44 43 42 42 43 41 40 40 40 40 39 38 38 38 38 38 37 37 36 36 36 36 35 35 35 34 34 34 34 33 33 33 33 33 33 32 32
42 42 42 43 43 43 43 43 43 43 44 44 43 42 42 41 41 40 40 39 39 39 39 38 38 37 36 37 37 36 36 36 35 35 35 34 34 34 33 33 33 33 33 32
40 40 41 42 42 42 43 43 43 43 44 44 43 43 43 43 42 41 41 40 40 40 39 39 38 38 37 37 37 36 36 36 35 35 35 34 34 34 34 34 33 33 32 31
39 40 40 40 41 42 42 43 44 43 43 43 42 42 42 42 42 41 41 40 40 40 40 39 39 38 38 38 37 36 35 35 34 34 34 34 34 34 34 34 33 32 32 32
37 38 38 39 39 39 40 40 41 41 42 42 42 41 41 42 42 42 41 41 40 39 39 38 38 38 37 36 35 35 35 35 34 34 34 34 34 34 34 34 33 33 32 32
35 36 37 37 36 36 38 38 38 38 39 39 40 40 40 40 40 40 41 40 40 40 39 39 38 37 37 36 35 35 35 35 35 35 35 35 35 34 34 33 33 32 32 31
34 34 35 36 37 36 36 37 38 38 38 38 39 39 39 39 38 38 38 38 39 39 39 38 37 37 36 35 35 35 35 34 34 34 34 34 34 34 33 33 32 32 32 32
31 32 33 34 35 35 36 36 37 37 37 37 38 37 38 38 38 38 38 38 38 38 38 37 36 35 35 34 34 35 34 34 34 34 34 34 34 33 32 32 32 32 32 32
27 27 28 30 31 32 33 34 35 34 35 36 37 37 36 37 37 38 38 37 37 36 36 35 35 34 34 34 34 34 35 34 34 34 33 33 33 33 32 32 32 32 32 32
23 24 24 24 25 27 29 31 33 34 34 34 34 34 34 34 35 35 36 35 35 35 34 33 33 33 33 33 33 33 33 33 33 33 33 33 33 33 33 32 32 32 32 33
19 20 21 21 22 22 22 24 26 28 29 29 29 30 30 31 31 32 32 32 31 31 31 30 30 31 32 32 32 32 32 32 32 32 33 32 32 32 31 31 31 32 32 33
14 15 16 18 19 20 20 20 21 22 22 23 24 25 25 26 26 26 27 27 27 28 28 28 29 29 29 29 30 30 31 31 32 32 33 32 31 31 30 31 32 32 33 33
12 13 13 14 15 15 16 17 18 19 19 19 20 20 20 21 21 22 22 23 23 24 25 26 26 26 27 27 28 28 29 30 30 31 31 30 30 30 30 31 32 33 33 33
9 10 10 11 12 13 13 13 15 15 16 16 17 17 17 17 17 18 19 20 21 21 22 23 24 24 25 26 26 27 28 28 28 28 28 28 28 29 30 31 32 32 32 32

GEFSNGP_500_meanwind_156.txt.gz
Wind_Speed
31 30 30 29 26 23 22 21 22 20 20 21 19 19 18 17 17 17 16 15 14 13 12 12 12 12 12 11 11 11 10 10 10 11 11 11 10 10 11 11 11 11 11 12
33 32 32 32 29 26 24 22 22 21 21 21 21 22 21 20 20 19 18 16 15 15 14 13 13 13 12 12 11 11 11 11 11 11 11 11 11 12 12 12 12 12 12 12
37 34 33 33 30 28 26 23 23 23 23 23 23 24 24 23 22 21 20 18 17 17 16 15 14 14 14 14 13 13 13 13 13 13 13 13 13 13 13 13 13 13 13 14
38 37 38 34 32 32 29 27 26 26 24 24 25 25 25 26 25 24 22 21 20 19 18 17 16 15 16 16 15 14 14 14 15 15 15 15 15 15 15 15 15 15 15 15
39 39 38 36 35 36 35 32 31 29 28 26 25 26 27 27 27 26 24 22 22 21 19 19 18 17 17 17 16 16 16 15 16 16 16 17 17 17 16 16 16 16 17 16
40 40 39 36 36 38 39 38 35 33 32 30 29 29 28 28 27 26 26 25 24 23 21 21 20 19 18 18 19 19 18 18 18 18 18 19 19 19 18 18 18 18 18 18
42 41 40 38 37 38 40 41 39 38 36 34 33 33 31 31 29 29 28 27 25 24 23 22 21 21 20 20 21 21 21 21 21 21 21 21 21 20 20 20 20 20 20 19
44 43 42 38 38 39 41 41 41 40 39 38 36 36 36 34 33 32 30 29 27 25 25 25 24 23 22 22 23 23 23 23 23 23 23 23 23 22 22 22 22 22 22 21
44 43 41 39 40 41 42 42 41 41 40 38 37 37 36 36 35 34 33 30 29 27 27 28 27 26 25 25 26 26 26 26 26 25 25 25 25 25 25 25 25 25 24 24
45 45 43 42 41 42 42 42 41 41 40 39 40 38 36 36 35 34 33 32 30 29 29 30 30 29 28 29 29 29 28 28 27 27 27 27 27 27 27 27 27 27 26 25
45 44 42 42 42 42 42 42 41 41 41 40 40 40 38 37 36 35 35 32 31 32 33 33 32 31 31 31 31 31 30 30 29 29 28 28 28 28 29 28 28 28 28 27
43 43 41 41 41 40 41 41 40 41 42 42 41 41 40 39 38 37 36 36 35 35 36 35 34 34 34 34 34 34 32 31 31 31 30 30 30 30 30 29 30 30 30 30
42 42 41 40 40 40 41 41 41 42 42 42 42 42 40 38 37 38 37 37 37 37 37 36 35 35 35 35 34 34 34 34 33 33 33 32 31 32 31 31 30 31 31 31
43 42 41 41 41 39 40 40 40 40 41 41 41 41 41 40 38 38 38 37 37 37 36 35 34 35 35 36 35 34 35 35 35 35 34 33 33 33 32 32 32 32 32 32
42 43 43 42 42 41 40 39 39 39 40 40 40 40 40 40 40 40 39 39 38 38 38 37 37 37 37 37 37 36 36 36 36 35 35 35 34 33 33 33 32 32 32 32
42 42 43 43 44 43 42 40 39 39 40 40 40 40 41 41 41 42 41 40 40 41 41 40 39 39 39 39 38 37 37 37 37 37 36 36 35 34 34 34 33 33 33 32
41 42 42 42 42 42 42 41 40 40 41 41 42 42 42 42 42 41 40 40 40 40 41 40 40 39 39 39 39 38 38 38 38 37 36 36 35 35 35 34 34 34 33 33
39 40 40 39 39 39 40 42 41 41 41 40 40 41 41 42 43 42 40 41 41 41 40 39 39 40 40 40 39 38 38 37 37 37 37 36 36 35 35 34 34 34 33 33
36 37 37 37 37 38 38 39 39 40 40 40 41 42 41 41 41 40 39 38 38 38 38 39 39 40 40 39 39 38 37 37 37 37 36 36 35 35 35 34 34 34 33 34
31 32 33 34 35 36 37 37 38 38 38 39 39 39 38 37 38 38 38 37 37 37 38 38 38 38 38 37 37 37 37 36 36 36 36 36 35 35 34 34 34 33 34 34
27 29 29 29 31 32 33 34 35 35 36 37 37 36 35 35 35 35 35 35 35 35 36 36 37 37 36 36 36 35 36 36 36 35 35 35 35 34 34 34 34 34 34 34
24 25 26 26 27 28 29 30 31 31 32 32 33 34 34 34 33 33 32 32 32 33 33 33 34 34 34 34 34 34 34 34 34 34 33 33 33 33 33 33 33 33 33 33
20 21 22 22 23 24 25 26 25 26 26 27 27 29 30 30 30 30 30 30 30 31 31 31 31 31 31 31 31 32 32 32 32 32 32 32 32 32 32 32 32 32 32 32
17 17 18 19 19 20 20 20 20 20 20 21 22 23 24 25 26 26 27 28 28 28 28 28 29 29 28 28 29 29 29 30 30 30 30 31 31 31 31 31 31 31 31 32
13 14 15 16 16 17 17 17 17 17 17 17 17 17 18 20 21 21 22 23 24 24 25 25 25 26 27 27 28 28 28 29 29 29 29 30 30 30 30 30 31 31 31 32
9 10 11 12 13 14 14 15 15 16 16 15 15 14 15 16 17 18 19 19 20 20 21 22 22 24 25 26 26 27 27 27 28 28 29 29 29 30 30 30 30 31 31 32
6 7 8 9 10 10 11 12 12 13 13 14 14 14 14 15 15 16 17 17 18 18 19 20 21 21 22 23 24 25 26 27 27 28 28 28 29 29 30 30 31 31 31 31

GEFSNGP_500_meanwind_162.txt.gz
Wind_Speed
33 33 33 32 31 29 28 27 26 24 22 19 18 18 17 16 14 13 13 12 13 13 13 14 13 12 12 12 12 12 11 11 11 11 11 12 12 12 12 13 13 13 13 13
34 33 34 34 33 32 30 28 27 26 24 21 20 19 18 17 16 15 14 14 14 15 15 15 14 13 13 13 13 13 13 12 13 13 13 13 13 13 13 14 13 13 13 14
35 33 34 35 34 33 32 30 29 28 26 24 23 21 20 19 19 18 17 17 17 17 16 16 15 15 15 15 14 15 14 14 14 14 14 14 14 14 14 14 15 15 15 15
35 34 35 34 34 34 34 33 32 30 29 26 24 24 23 22 21 19 19 19 19 19 18 17 17 16 17 16 16 17 16 15 16 15 14 15 15 15 16 15 16 17 17 17
37 36 36 34 34 34 34 34 33 32 30 28 26 25 25 23 22 21 21 21 21 21 20 19 19 19 19 19 19 19 17 16 17 16 15 16 16 16 16 17 18 18 18 18
40 39 39 37 36 35 35 35 33 33 32 31 30 28 26 25 25 24 24 23 24 23 22 22 21 21 21 21 21 21 20 18 18 17 17 17 18 18 18 18 19 19 19 19
42 41 41 40 39 38 38 37 35 35 34 34 33 32 30 29 28 28 27 27 26 26 26 25 24 24 24 24 23 22 22 20 19 20 20 20 20 20 20 20 20 20 21 21
44 44 44 42 41 40 40 39 38 37 36 36 36 35 33 32 31 31 30 29 29 29 29 28 28 28 27 27 27 26 25 24 23 23 23 23 23 23 23 23 23 23 23 23
46 46 45 44 43 42 41 41 40 39 38 37 37 37 36 36 35 35 33 32 31 32 32 31 31 30 30 30 30 29 28 28 27 26 26 26 27 27 26 26 26 25 25 25
48 47 46 45 43 42 41 41 41 40 39 39 38 38 37 37 37 36 35 35 34 34 33 33 33 32 33 33 33 32 32 31 30 30 29 29 29 29 29 28 28 27 27 27
49 49 47 46 45 43 42 41 41 40 39 39 38 38 38 38 38 38 37 38 37 37 36 36 36 35 35 35 35 35 35 34 33 33 32 31 31 31 31 31 30 30 29 29
46 47 47 46 45 44 42 41 41 41 40 40 40 40 39 39 39 39 39 40 39 38 38 38 38 37 37 37 37 36 36 35 34 33 33 33 32 32 32 32 31 31 31 31
44 45 45 45 44 44 43 42 42 42 41 41 41 41 40 40 41 42 41 41 40 39 40 40 40 40 39 38 39 39 39 37 35 34 34 34 34 33 33 32 32 32 32 32
43 43 44 44 44 43 42 41 41 41 41 41 41 41 42 42 42 42 43 42 41 41 40 39 40 40 40 41 40 39 37 35 34 35 34 33 33 32 32 32 33 33 33 33
42 43 43 42 42 41 40 40 40 40 41 41 41 42 42 42 42 42 42 42 42 41 41 41 40 40 39 39 39 39 38 37 36 35 34 34 33 33 33 33 34 34 34 34
39 40 41 41 40 40 39 39 40 40 40 40 41 41 42 42 42 41 40 40 40 40 40 39 40 40 40 41 40 40 38 37 36 35 35 35 35 35 35 35 35 35 35 35
36 38 39 39 39 39 39 39 39 39 39 39 40 40 41 41 41 40 39 39 39 39 40 40 39 40 41 40 39 38 37 37 36 36 37 37 36 36 36 37 37 37 37 36
34 35 36 36 37 38 38 38 38 38 38 38 38 39 39 39 38 38 38 38 38 39 39 40 40 40 39 38 37 37 36 36 36 36 37 37 37 37 37 37 37 37 37 36
32 33 33 33 34 35 36 36 37 36 36 35 36 37 38 38 37 38 38 37 37 38 38 38 39 38 38 37 37 37 36 36 36 37 37 37 36 37 37 37 37 36 37 37
29 30 30 31 31 32 33 33 34 33 33 34 35 35 35 36 37 37 37 37 36 37 36 36 37 36 36 36 36 36 35 35 35 36 36 36 36 36 37 37 37 37 36 36
27 27 28 28 29 29 30 30 31 31 32 32 33 34 34 35 35 35 35 35 35 35 35 34 34 34 34 35 34 34 34 34 34 35 35 35 35 35 36 36 35 35 35 35
24 25 25 26 27 27 26 27 28 28 29 30 30 30 31 31 32 32 32 33 33 33 33 32 31 31 31 32 32 32 33 33 34 34 34 34 34 35 34 34 35 35 35 35
20 22 22 23 23 23 23 24 25 26 26 26 26 27 27 27 27 28 28 29 29 28 28 28 28 28 29 29 29 30 31 32 32 32 32 33 33 33 33 34 34 34 35 35
18 18 19 19 20 20 21 22 22 23 23 23 23 23 24 24 24 25 25 25 24 25 25 26 26 26 27 28 28 29 30 30 30 30 31 31 32 32 32 33 33 33 34 34
16 16 16 16 17 18 18 19 19 19 19 19 20 20 20 21 21 21 21 22 23 23 23 23 24 25 26 27 27 27 28 28 28 29 29 29 30 31 31 31 32 33 33 33
11 12 13 13 14 14 14 14 14 14 16 17 17 18 18 18 18 18 18 20 20 20 21 22 22 22 23 24 24 25 26 26 26 26 27 28 28 29 29 30 31 32 32 32
8 8 9 10 11 11 11 12 13 13 14 14 15 15 16 16 16 16 16 16 17 17 18 19 20 20 21 22 22 23 24 24 26 27 27 27 28 28 29 29 30 31 31 32

GEFSNGP_500_meanwind_168.txt.gz
Wind_Speed
32 31 30 29 29 29 28 26 24 22 20 18 18 17 16 16 15 15 14 13 13 12 12 12 12 12 12 12 12 12 13 13 13 12 13 13 13 13 13 13 13 13 14 14
33 33 32 31 30 30 29 28 27 25 23 21 20 18 18 17 16 16 16 15 15 14 14 14 14 14 14 13 14 14 15 14 14 14 15 15 15 15 15 15 15 15 15 16
33 33 34 34 32 31 30 30 28 27 25 24 22 21 20 20 19 18 17 17 16 17 17 17 17 17 16 16 16 16 16 16 16 16 17 16 16 17 16 16 16 17 17 17
33 33 35 33 33 32 31 31 30 29 28 26 25 23 22 21 20 20 20 19 18 19 19 20 19 18 18 18 18 18 18 18 18 18 19 18 18 18 19 18 18 18 18 18
35 34 34 35 34 32 32 32 31 30 29 28 27 26 25 24 22 22 22 22 22 22 22 22 22 20 20 19 19 20 19 19 20 20 20 20 20 20 19 19 20 20 20 21
37 35 34 35 34 32 32 33 32 31 30 29 28 28 28 26 25 25 24 24 25 25 25 25 25 24 23 22 22 22 22 22 22 22 22 22 22 22 22 22 22 22 22 22
38 37 36 36 35 33 33 33 32 31 31 30 30 30 30 29 28 28 27 27 27 28 28 28 28 27 25 25 25 25 25 25 25 24 24 24 24 24 24 25 24 24 24 24
39 37 38 38 36 36 35 34 33 32 32 31 31 31 31 31 30 30 30 30 30 30 30 31 31 30 29 29 28 28 28 29 28 27 27 27 26 26 26 27 27 27 27 27
41 41 41 40 38 37 36 35 35 34 34 33 33 33 33 33 32 32 32 32 32 33 33 33 32 32 32 32 32 31 31 30 30 30 29 29 29 29 29 29 30 30 30 29
41 41 41 40 39 38 37 37 36 36 36 36 35 35 35 35 35 35 34 34 34 34 34 34 34 34 34 35 34 33 33 32 32 32 32 32 32 31 32 32 31 31 31 31
43 42 41 41 41 40 39 38 38 37 37 37 37 36 36 36 36 36 36 35 36 36 35 36 36 36 35 35 35 35 34 35 35 35 35 34 34 34 34 34 34 32 32 32
42 42 43 43 42 41 41 40 39 39 39 38 38 38 37 36 36 36 36 36 37 37 37 37 37 36 35 35 37 37 37 37 37 37 37 37 36 36 36 36 34 35 35 34
41 41 43 43 43 43 42 42 41 41 40 39 39 38 38 37 36 36 36 37 37 38 38 37 37 37 37 38 39 39 39 39 38 38 38 38 38 37 37 36 36 36 35 34
40 40 41 43 42 42 42 42 42 42 41 40 39 39 39 38 36 36 37 37 38 38 38 38 39 39 39 40 40 40 40 40 40 40 40 39 39 39 38 37 36 36 36 35
40 39 39 39 40 40 40 41 40 40 39 38 37 37 37 37 37 37 37 38 38 39 39 40 40 41 41 41 41 41 41 41 41 40 40 40 40 39 38 38 38 38 37 37
37 37 37 37 38 38 39 39 38 38 38 37 37 37 37 37 38 38 38 39 39 40 40 41 41 41 41 42 41 41 40 41 41 41 41 40 40 39 39 40 39 39 38 38
33 34 35 35 36 38 39 39 39 38 38 38 38 38 38 37 38 38 39 39 40 41 41 41 42 41 41 41 41 42 42 41 41 40 40 40 41 41 41 41 40 39 39 38
31 32 32 33 33 34 36 36 36 37 37 37 37 37 37 37 37 38 38 39 39 40 40 41 40 40 41 41 41 41 40 39 39 39 40 40 40 40 40 39 39 39 38 39
28 29 29 30 30 31 32 32 32 33 34 35 35 35 35 35 35 35 35 36 36 37 38 38 38 38 38 38 38 38 38 38 38 38 39 39 39 38 38 37 37 37 38 38
25 26 26 27 27 28 28 29 29 29 30 31 32 32 33 33 33 33 33 33 34 34 34 33 33 34 34 34 34 34 34 35 35 36 36 37 37 37 36 36 37 37 38 37
22 23 23 24 25 26 26 26 27 28 28 29 30 31 31 31 31 32 32 32 32 32 32 31 31 31 31 31 32 32 33 33 33 33 34 34 35 35 34 34 35 35 36 35
20 21 21 22 23 23 24 24 25 25 26 27 28 28 29 29 29 30 30 30 30 30 30 30 29 30 30 30 30 31 31 31 32 32 32 33 33 33 33 33 34 34 35 34
18 19 19 20 21 21 22 22 23 23 23 23 24 25 25 26 26 27 27 27 28 28 28 28 28 28 28 28 29 29 29 30 30 30 30 30 31 31 32 32 33 33 33 32
17 17 17 18 18 19 19 19 20 20 20 20 21 21 22 23 24 25 25 25 24 24 25 26 26 26 25 26 26 26 27 27 28 28 28 29 29 30 30 31 31 31 31 31
14 15 15 16 17 17 17 17 17 18 18 18 19 20 20 21 21 21 21 21 22 23 23 23 23 24 24 24 24 24 25 26 26 27 27 28 28 28 29 29 30 30 30 31
11 11 12 13 14 15 15 15 16 17 17 17 17 17 17 18 18 18 18 19 19 20 20 20 21 21 21 21 22 23 24 24 25 25 26 26 26 27 27 28 28 29 30 30
7 8 9 10 11 12 13 13 14 15 15 15 15 15 15 15 15 15 16 16 17 17 18 19 19 20 20 20 21 21 22 23 23 23 24 24 26 27 27 28 28 28 28 29

GEFSNGP_500_meanwind_174.txt.gz
Wind_Speed
34 29 24 22 21 22 24 26 26 23 22 24 24 21 21 21 20 20 19 19 19 16 16 15 15 15 15 16 16 16 16 16 16 16 16 16 15 16 16 16 16 16 16 17
36 34 30 28 25 24 24 25 25 25 25 27 26 25 25 22 22 22 21 21 19 18 18 17 17 17 16 17 17 17 18 17 17 17 18 18 17 17 18 18 18 17 18 18
36 33 33 33 30 28 27 27 26 27 28 28 28 30 30 27 24 24 23 22 21 20 19 18 18 18 18 18 18 18 18 19 19 18 19 19 19 19 19 19 19 19 19 19
36 34 36 35 30 28 28 29 29 28 29 30 31 32 32 29 27 26 25 24 23 23 22 22 21 21 21 21 20 21 21 21 21 21 21 21 21 21 21 21 20 20 20 21
37 36 36 34 32 30 29 31 29 30 31 33 34 34 33 31 28 27 27 27 26 25 25 24 24 23 23 23 23 23 23 24 23 23 23 23 23 23 23 23 23 22 22 22
37 37 36 34 31 29 30 33 33 33 33 35 35 35 35 32 30 29 29 28 28 27 27 27 27 27 26 26 27 26 26 27 27 26 25 25 25 25 24 24 24 24 24 24
38 38 36 34 33 32 34 35 34 34 35 36 36 35 35 33 31 30 29 29 29 29 29 29 29 30 30 29 29 29 30 30 29 28 27 27 26 25 25 26 26 27 27 26
37 37 38 38 36 35 37 37 36 36 36 36 36 36 36 34 33 33 32 31 31 31 31 31 32 32 32 32 32 32 32 32 31 30 29 28 28 28 28 27 28 29 29 29
36 38 39 40 40 40 40 38 37 37 37 37 36 37 37 35 35 35 34 33 33 33 34 34 34 34 35 35 35 34 34 34 33 32 31 31 30 30 30 31 31 31 30 30
39 39 40 40 41 41 41 40 39 38 38 38 38 37 36 36 36 36 35 34 34 35 35 35 35 35 35 36 36 36 35 35 34 34 33 33 34 34 33 33 33 33 32 32
41 42 43 41 41 42 40 40 42 42 41 40 40 40 39 38 38 38 37 36 36 36 37 37 36 37 37 37 37 37 37 37 37 36 36 36 36 36 35 35 35 35 35 34
43 43 43 43 43 45 44 42 42 42 42 42 41 41 40 40 39 39 39 38 38 38 39 38 38 38 39 39 39 38 38 38 38 38 38 38 38 36 36 37 37 37 36 37
42 42 40 41 41 41 43 43 43 43 43 42 42 42 41 41 40 40 41 40 40 40 40 40 40 39 39 39 39 39 39 39 39 39 39 39 38 38 38 38 38 38 38 39
40 41 40 39 42 42 42 43 43 42 43 43 43 43 43 42 42 41 41 42 41 41 41 41 40 40 40 39 39 39 39 40 41 40 40 40 40 40 40 39 39 39 40 41
39 39 39 38 39 41 42 42 41 42 42 43 43 44 44 43 42 42 43 43 43 42 41 41 41 40 40 40 40 40 40 41 41 41 41 41 42 41 41 41 41 41 42 42
39 39 38 39 39 40 41 42 42 41 42 42 43 43 43 44 43 43 43 43 42 42 42 41 40 39 40 40 41 41 41 41 41 41 41 41 42 42 42 42 43 43 42 42
37 38 37 38 38 38 39 41 42 42 42 41 41 42 42 43 43 42 42 42 42 41 41 40 40 39 40 40 41 41 41 41 42 42 42 42 42 42 43 43 43 42 42 41
35 36 36 37 38 37 38 39 39 40 41 41 40 41 41 41 41 42 41 40 40 40 39 39 40 40 40 41 41 41 40 40 40 40 40 41 41 41 41 41 40 40 40 41
31 33 33 34 34 35 36 37 38 38 39 39 38 39 39 39 40 40 40 40 40 40 39 39 39 40 40 39 39 40 39 39 38 38 38 38 38 38 39 39 39 39 40 40
29 30 30 31 32 33 34 35 35 35 35 36 36 37 38 38 37 36 37 38 39 39 39 39 38 38 39 39 39 39 38 38 37 37 37 37 38 39 39 39 39 39 40 40
26 27 28 28 29 29 30 31 31 32 32 33 34 34 34 35 35 35 35 35 35 36 36 36 36 37 38 38 38 38 37 37 37 37 37 38 38 38 38 38 38 39 38 38
22 24 25 26 26 27 28 29 28 29 30 31 32 32 32 31 31 32 33 33 33 34 34 34 34 35 35 35 35 35 35 36 36 36 36 36 36 36 36 36 36 36 36 36
20 22 23 24 25 26 26 27 27 27 28 28 28 28 29 28 28 29 30 31 31 31 31 31 31 32 33 33 33 33 33 33 34 34 34 34 34 33 33 33 33 33 34 35
18 19 20 21 21 23 23 23 24 24 25 25 24 24 25 25 26 27 27 27 27 27 28 28 29 30 30 30 30 30 30 31 31 31 31 30 30 30 30 31 31 32 32 33
16 16 16 16 16 17 18 19 20 21 21 21 21 21 21 22 23 23 24 24 25 25 25 25 26 26 27 27 27 28 27 27 27 27 28 28 28 28 28 29 29 30 30 31
12 13 13 13 14 15 16 17 18 18 18 18 18 18 18 18 18 19 19 19 20 21 21 22 23 23 23 23 23 24 24 24 25 25 26 26 27 27 27 28 29 29 29 30
9 10 10 11 13 13 14 15 15 14 14 14 14 15 15 16 16 16 16 16 17 17 18 19 20 20 20 20 21 22 22 23 23 24 25 26 27 27 28 28 28 28 29 30

GEFSNGP_500_meanwind_180.txt.gz
Wind_Speed
34 34 34 33 30 28 28 29 29 28 28 27 25 25 24 23 23 22 21 21 20 18 17 16 16 16 16 15 14 13 12 12 12 12 13 13 14 14 15 14 13 13 13 13
36 36 35 35 33 32 30 30 29 29 30 29 28 28 27 26 26 25 24 23 23 22 21 19 18 18 17 17 15 15 14 14 14 14 15 16 16 16 16 16 15 15 15 15
38 36 36 36 35 36 35 33 31 31 30 31 32 30 30 30 29 27 26 25 25 25 24 23 22 21 20 18 18 17 17 17 16 17 17 18 18 18 19 18 17 17 17 17
38 37 39 35 35 36 38 36 34 33 32 33 33 32 32 32 31 30 29 29 29 29 29 27 25 24 23 21 20 20 19 19 19 20 20 20 21 20 21 20 20 20 19 19
37 38 38 36 36 38 39 39 38 37 37 36 35 35 35 33 33 33 32 32 32 32 31 30 28 26 25 23 22 22 21 21 21 22 22 23 23 22 22 22 22 21 20 20
38 38 39 38 37 38 41 42 40 40 39 38 37 37 37 35 34 34 34 34 33 33 32 31 29 26 25 26 26 25 23 23 23 23 24 24 24 24 24 23 23 23 22 22
38 38 39 38 38 38 41 43 41 40 39 38 37 37 37 37 37 38 37 36 35 32 31 30 29 28 27 27 27 27 26 26 26 26 26 25 26 26 25 25 25 24 24 24
39 39 40 38 38 39 40 40 40 40 40 39 38 38 38 39 38 38 38 37 37 35 33 32 31 30 29 30 29 29 29 29 28 28 28 28 28 28 29 29 29 28 28 28
39 39 39 37 38 38 39 40 40 41 41 41 40 39 39 39 39 39 38 38 38 37 35 34 33 32 33 33 31 31 32 30 30 30 30 30 31 31 32 32 32 32 29 29
39 39 39 38 38 39 39 38 38 39 40 41 41 40 40 39 39 39 39 39 37 37 36 35 35 35 34 33 32 33 34 32 32 32 33 33 33 33 33 33 33 33 32 32
40 40 40 40 41 41 39 38 39 40 41 40 41 41 41 41 41 40 38 37 37 37 37 36 35 36 36 36 35 35 35 35 35 35 35 35 35 35 35 34 35 34 33 33
40 41 41 41 41 42 42 42 40 39 40 41 41 42 42 42 41 40 40 38 38 38 38 39 39 38 38 37 38 37 37 38 38 38 37 38 37 36 35 35 35 34 33 34
40 42 43 42 41 43 42 41 41 41 41 43 43 44 43 42 43 42 41 41 40 39 39 40 40 39 39 39 38 39 39 39 40 39 38 37 37 37 37 37 36 36 36 36
39 39 40 41 42 43 43 43 42 43 44 43 43 44 44 42 42 42 42 42 41 40 40 40 40 39 40 39 39 39 39 40 39 39 39 38 38 38 37 37 37 38 37 38
36 37 38 38 39 41 41 42 42 41 41 41 41 43 42 40 40 42 43 42 41 41 40 40 40 40 40 39 39 39 40 40 40 40 40 39 38 38 38 38 38 39 38 39
34 35 36 36 37 37 37 39 39 39 38 38 38 38 39 39 39 39 39 40 41 40 39 39 39 40 40 40 40 40 41 40 39 39 39 39 39 39 39 39 39 39 39 39
31 33 35 35 34 34 35 35 34 36 36 35 34 34 34 34 35 36 37 38 38 38 38 39 39 39 39 40 40 40 40 40 39 39 39 39 39 39 38 38 38 38 39 39
30 30 31 32 32 32 32 33 33 32 33 32 31 32 32 31 31 33 34 35 36 37 37 36 36 37 38 38 38 37 37 37 37 37 38 39 38 38 37 36 37 38 38 39
26 27 29 30 30 31 31 31 30 30 29 28 28 30 31 31 32 32 33 34 34 33 33 34 35 35 36 37 36 36 36 36 37 37 37 38 38 38 37 37 38 39 39 39
23 24 25 27 28 28 28 28 28 28 27 27 27 28 30 32 32 33 33 32 33 33 33 34 34 35 35 35 34 35 36 36 36 36 37 37 37 36 36 37 38 38 38 37
19 20 21 21 23 25 25 25 25 26 26 26 27 27 28 29 30 30 30 31 31 31 32 33 33 33 33 32 32 33 34 34 34 35 35 36 36 36 35 36 36 36 36 36
16 17 17 18 19 20 21 22 22 22 24 24 25 25 26 27 27 27 27 28 28 28 29 29 29 30 31 31 31 31 32 32 33 34 34 35 34 34 34 34 35 35 35 35
15 15 16 16 17 18 18 19 19 20 20 21 22 23 23 24 24 24 24 25 25 26 27 28 28 27 27 28 28 29 30 31 31 32 32 32 32 32 32 32 33 33 34 33
13 14 14 15 16 17 17 17 18 18 18 19 20 20 21 21 22 22 23 23 23 24 24 24 24 24 25 25 26 26 27 28 29 29 30 30 30 30 30 30 31 31 32 32
12 12 13 13 14 15 15 15 15 16 17 17 17 17 17 18 18 18 19 19 20 20 21 21 21 21 21 22 23 23 24 25 26 27 28 28 28 28 29 29 29 29 29 29
9 10 11 12 12 13 13 13 13 14 14 14 14 14 15 15 16 16 17 16 17 17 17 17 18 18 18 20 20 22 23 23 24 25 25 25 25 26 26 27 27 28 28 29
7 8 8 9 9 9 10 10 10 10 10 11 11 11 11 11 11 12 13 13 13 13 14 16 16 16 16 18 19 20 21 22 23 23 23 23 23 24 24 25 26 27 27 28

GEFSNGP_500_meanwind_186.txt.gz
Wind_Speed
31 31 31 31 31 31 31 31 30 29 29 28 26 25 24 23 22 23 22 21 21 20 18 17 16 16 16 16 17 16 16 16 16 17 17 17 17 17 17 17 17 17 17 17
32 32 33 33 33 33 32 32 32 31 30 29 28 27 26 25 25 25 24 24 24 23 22 20 19 18 19 19 18 19 19 18 18 19 20 20 20 20 19 19 19 20 20 19
34 33 34 35 34 35 35 35 34 34 33 31 31 30 29 29 28 27 27 26 25 24 22 22 22 22 22 22 21 21 21 21 21 21 22 22 21 21 22 21 21 20 21 20
37 36 36 35 35 36 36 36 36 36 35 34 33 32 31 31 31 30 29 28 27 27 26 25 24 24 24 24 24 24 25 25 25 25 24 23 23 23 23 23 22 21 21 20
37 37 39 38 36 37 37 38 37 38 37 37 36 35 34 32 32 32 31 31 30 28 27 27 26 26 26 26 26 26 26 26 26 27 26 24 24 24 24 24 24 23 22 21
39 39 39 38 38 38 38 39 38 38 37 37 37 37 36 35 34 33 32 32 32 31 31 29 29 28 28 27 28 28 28 27 28 28 27 26 26 25 25 25 25 25 25 23
40 40 40 39 38 38 38 39 38 38 38 38 37 37 37 37 37 37 36 34 34 34 33 32 31 30 30 30 30 30 30 30 30 30 29 29 28 27 27 26 26 26 25 25
39 40 39 38 37 38 38 38 38 38 39 39 39 39 39 39 39 38 38 37 36 36 36 35 34 33 33 33 33 33 32 32 32 31 30 30 30 30 29 28 27 27 27 27
39 39 38 38 38 38 38 39 39 39 39 40 40 41 40 41 41 40 39 38 38 38 38 38 37 36 36 35 34 34 33 33 34 33 32 33 33 33 32 31 29 29 29 29
38 37 37 38 38 37 37 37 38 39 39 40 41 40 41 41 41 41 40 40 40 40 40 39 39 39 37 36 36 35 35 35 35 34 35 35 35 35 34 34 33 31 31 31
37 37 37 37 38 38 37 37 38 39 39 40 41 41 41 41 40 41 41 42 42 40 40 39 39 39 38 36 35 36 36 35 36 36 37 36 35 35 35 35 34 34 33 33
36 37 37 37 37 38 38 38 39 39 39 40 40 41 41 42 42 41 41 41 42 42 41 40 40 40 38 36 35 36 36 35 35 35 35 35 35 36 36 36 36 36 35 35
35 36 37 37 37 38 39 39 39 39 39 39 40 40 41 42 43 43 42 42 41 42 42 42 41 40 39 38 38 37 37 36 35 36 36 36 37 37 37 38 38 36 36 37
33 34 35 35 35 36 37 38 38 38 38 39 40 40 41 42 43 43 43 43 42 42 43 43 42 41 40 39 38 37 35 36 36 36 37 38 37 37 38 38 38 37 38 39
33 33 33 33 34 35 36 37 37 37 38 38 39 40 40 40 40 40 41 41 41 41 42 42 41 41 41 40 39 37 37 37 37 38 38 38 37 37 38 38 38 38 39 39
31 32 32 32 33 34 35 36 36 36 37 37 37 39 39 38 37 36 36 37 37 38 39 40 41 41 40 39 38 37 36 37 37 38 38 38 37 37 37 37 37 36 36 37
28 28 29 30 30 32 33 34 34 34 34 34 35 36 36 36 35 34 34 34 35 36 37 38 38 37 36 37 37 37 36 36 37 37 37 37 36 36 36 37 37 37 37 37
24 24 25 26 26 27 28 29 29 30 30 31 31 31 31 31 32 32 32 32 33 33 33 34 35 34 34 35 35 34 33 34 35 36 36 37 36 36 36 36 36 37 37 37
21 22 23 24 24 24 24 25 26 27 27 27 29 29 29 29 29 28 30 31 32 33 32 31 31 32 33 32 31 32 33 33 34 35 36 36 36 36 35 35 35 36 37 37
19 20 21 23 24 23 22 23 24 25 25 26 26 26 26 26 27 27 27 29 30 31 30 29 29 30 30 31 32 33 33 33 33 33 34 34 34 35 36 35 34 35 35 35
16 17 19 19 20 20 20 21 22 22 23 24 24 24 24 24 24 24 25 26 26 27 27 27 28 29 29 30 30 31 31 32 32 32 32 32 33 34 34 34 33 33 33 34
15 16 16 17 17 18 19 20 20 20 21 21 22 22 23 23 23 24 24 25 25 25 25 26 27 28 28 29 29 29 29 29 29 30 30 30 30 31 31 31 32 32 33 33
14 15 16 16 16 16 17 17 17 17 18 19 19 20 20 20 21 21 22 23 24 24 24 24 25 26 27 26 25 25 25 26 26 26 26 27 27 28 29 30 30 30 30 30
14 14 14 14 14 14 14 14 14 14 15 16 16 17 17 17 18 19 20 20 20 21 21 21 21 21 21 22 21 21 21 22 23 23 24 25 25 26 27 27 27 27 27 28
13 13 13 13 13 12 12 12 12 12 13 13 14 14 14 15 15 15 16 17 17 18 18 17 17 17 18 18 18 19 19 20 20 21 23 23 24 24 25 25 25 26 27 27
11 11 11 11 11 12 11 12 12 11 11 11 12 12 13 13 14 14 14 14 15 15 15 15 15 16 16 17 18 19 19 19 20 21 22 23 24 23 24 25 25 26 26 27
9 9 9 9 9 10 10 10 11 11 11 11 10 10 11 12 12 12 13 14 14 14 15 15 15 16 16 17 17 18 19 20 20 21 20 20 21 22 23 23 24 25 26 26

GEFSNGP_500_meanwind_192.txt.gz
Wind_Speed
31 30 29 30 30 31 31 29 27 26 27 27 27 25 25 25 24 24 23 23 23 23 23 22 21 21 19 18 18 17 17 17 16 17 17 17 18 18 19 19 19 18 18 18
31 31 31 31 31 31 31 31 30 29 29 27 27 27 26 26 26 26 26 25 25 25 25 24 23 23 22 22 21 21 20 19 20 20 20 20 20 20 21 20 20 20 19 19
30 31 31 32 33 32 32 32 31 31 31 29 29 28 27 27 28 28 28 28 27 27 27 25 25 25 25 24 24 24 23 22 22 23 23 23 22 22 22 22 23 22 21 21
29 31 32 33 33 32 33 33 33 33 32 31 30 30 29 29 30 31 31 31 30 29 27 27 27 27 27 26 26 26 25 26 25 25 25 24 24 24 25 25 26 25 24 24
30 30 31 34 33 32 32 33 34 35 34 33 32 32 33 33 33 33 34 34 33 32 30 29 30 29 29 29 29 28 28 27 27 27 27 27 27 27 27 27 28 26 26 25
32 30 30 33 33 32 32 34 35 35 35 34 33 33 35 34 33 34 34 34 34 34 33 33 33 33 33 33 32 31 30 29 29 30 30 30 30 30 29 30 29 29 27 26
32 32 32 34 33 32 33 35 35 35 35 35 35 35 35 35 34 34 34 34 34 35 35 35 35 35 35 35 35 34 34 33 32 33 32 32 32 32 31 30 29 28 28 28
33 33 34 35 34 34 34 35 35 35 36 36 37 37 37 36 36 36 35 36 37 37 37 37 37 37 37 37 37 36 36 36 36 35 34 35 34 34 34 32 31 30 29 28
35 35 36 34 34 34 34 35 35 35 36 37 37 38 38 38 38 38 38 38 39 40 40 39 39 39 39 38 38 37 37 38 38 38 37 36 36 35 35 34 32 30 30 29
35 35 35 35 35 36 35 36 36 36 37 38 38 38 39 39 39 38 39 40 41 41 41 41 41 41 40 40 39 39 40 40 41 40 40 39 37 37 35 35 33 32 30 31
34 34 34 35 35 36 37 37 37 37 37 38 38 38 38 38 39 39 40 41 42 42 42 42 41 41 41 41 41 42 42 42 42 41 40 40 39 38 37 36 35 34 33 34
33 34 35 35 35 35 36 36 37 37 36 37 38 38 38 39 39 39 39 39 41 41 42 41 41 41 42 42 42 41 42 42 41 40 40 39 39 39 38 38 37 36 36 36
32 33 35 35 34 35 36 35 35 36 36 36 37 37 38 39 40 40 40 41 41 41 41 41 42 41 42 42 41 40 40 40 39 39 40 39 39 39 39 38 37 36 36 37
31 31 32 33 34 35 35 34 34 35 35 35 35 36 37 37 38 39 40 40 41 40 40 40 40 40 41 41 40 40 40 39 40 41 41 40 39 39 40 39 39 38 37 38
29 30 30 30 31 32 33 33 32 33 33 34 34 34 35 36 36 37 38 38 38 38 38 38 39 40 40 40 40 41 40 40 41 42 42 41 40 40 40 40 40 40 39 39
26 27 28 29 29 30 30 30 31 31 32 32 32 32 32 33 34 35 35 35 36 36 37 37 38 38 39 40 41 41 41 41 42 42 41 41 42 41 41 41 40 40 40 39
24 25 26 26 26 27 27 28 29 30 31 32 32 32 31 31 32 33 33 33 34 34 35 36 36 36 36 37 39 40 39 40 40 40 39 40 40 39 39 38 38 39 39 39
22 22 23 23 24 24 25 26 27 27 28 28 29 29 29 30 30 30 31 31 32 33 35 35 35 35 35 35 37 36 36 37 37 37 37 38 37 36 37 37 37 38 37 36
19 20 20 20 20 21 22 23 24 25 26 26 26 27 28 29 29 30 30 30 30 31 31 32 33 33 33 34 34 34 35 35 35 35 35 34 34 34 35 35 36 36 36 36
17 17 17 18 19 20 21 22 23 23 23 23 24 25 25 26 26 27 27 28 27 28 29 29 30 31 32 33 32 33 33 33 33 33 34 34 34 33 33 33 34 35 35 34
16 16 16 17 18 18 19 20 21 20 20 20 21 21 21 21 21 23 24 26 26 26 27 27 28 28 28 29 30 30 31 31 32 31 32 32 31 32 32 32 33 32 32 31
15 16 16 15 15 16 16 17 17 17 17 18 18 18 19 20 20 21 22 23 24 25 25 25 26 26 26 27 28 28 28 28 28 28 28 29 30 31 30 30 30 30 30 30
14 14 14 14 13 13 13 13 13 13 14 14 15 16 17 17 18 19 19 20 20 21 22 21 21 22 22 22 23 23 24 24 25 25 25 26 27 28 28 28 27 28 28 28
12 13 13 13 12 12 12 12 12 12 13 14 14 14 14 14 15 16 16 17 17 17 18 18 18 18 19 20 20 20 21 21 22 22 23 23 23 24 25 24 24 26 26 26
10 10 10 10 10 10 10 11 11 11 11 12 12 12 13 14 14 14 14 15 16 16 15 16 16 17 18 18 18 18 19 19 20 20 21 22 22 23 23 23 24 24 24 25
8 8 8 8 9 9 9 10 10 10 10 11 10 11 11 12 13 13 13 13 14 14 14 14 15 16 16 17 17 17 17 17 19 20 21 22 22 22 22 22 23 23 24 24
6 7 7 8 8 8 9 9 10 10 10 10 11 11 11 12 12 12 13 13 14 14 14 14 14 14 15 15 15 16 17 18 19 20 20 21 21 21 21 22 23 23 23 23

GEFSNGP_500_meanwind_198.txt.gz
Wind_Speed
30 27 26 23 22 24 26 27 25 26 26 29 29 27 28 25 25 26 28 27 26 26 26 24 23 23 24 25 24 23 22 21 20 21 21 21 20 20 20 20 21 21 21 21
32 30 28 28 26 24 26 26 27 29 30 31 31 30 29 28 28 29 30 29 28 27 27 27 27 27 27 27 27 26 25 23 22 22 22 22 22 22 22 22 23 23 24 24
32 29 29 31 29 28 28 28 29 31 32 34 34 35 33 31 33 32 32 31 31 31 30 30 30 30 30 30 29 29 28 27 25 24 23 23 23 24 24 24 24 25 25 26
31 29 32 30 30 32 33 32 31 32 35 37 38 38 38 36 35 34 34 34 33 32 31 31 32 33 32 32 32 31 30 29 28 27 26 26 26 26 26 26 26 27 28 28
30 29 30 29 31 33 34 35 34 34 36 38 38 37 39 40 38 35 34 34 33 33 32 33 34 34 35 35 34 33 32 31 30 30 29 28 29 29 28 29 29 29 30 30
31 29 29 30 33 34 35 36 38 38 39 39 37 38 40 39 37 37 36 35 34 32 33 34 34 35 36 36 35 34 34 33 32 32 32 31 31 32 31 31 32 32 32 32
32 32 32 34 36 36 36 38 38 38 37 37 36 37 39 39 38 38 37 36 36 36 35 35 36 36 36 36 36 36 36 36 34 34 34 33 33 33 34 34 34 35 35 34
33 32 35 38 39 40 39 40 38 36 36 35 36 37 37 39 39 38 37 37 37 37 37 37 37 37 37 37 37 38 38 38 37 36 36 36 36 35 35 36 36 36 36 36
34 36 37 38 39 39 39 39 39 37 37 37 37 37 38 39 40 40 39 38 38 39 39 39 39 39 39 38 38 38 39 39 39 39 38 38 38 38 37 37 37 37 37 37
35 35 37 39 40 39 38 39 38 37 37 37 37 38 39 40 41 41 40 39 39 39 40 40 40 40 40 40 40 40 39 39 39 40 40 40 40 39 38 37 38 38 38 38
36 38 37 38 39 38 38 38 37 37 37 38 39 40 40 41 41 41 41 40 40 40 40 40 40 39 39 40 39 39 39 39 39 40 40 39 40 39 39 38 37 38 38 38
37 38 38 37 38 38 40 39 39 38 38 38 38 39 39 40 41 41 41 41 41 41 41 41 42 41 41 41 40 40 41 40 40 40 40 40 40 40 39 38 38 38 38 39
34 35 36 37 37 38 39 39 39 38 38 37 38 39 40 41 41 42 42 41 41 41 41 41 42 42 42 41 41 41 41 41 41 40 39 40 39 39 40 40 40 40 39 39
33 34 35 35 36 36 36 36 37 37 38 38 39 39 40 40 41 41 41 41 41 40 40 41 41 41 41 41 41 41 41 41 40 39 39 39 40 41 41 41 41 40 40 39
31 32 33 33 33 34 34 34 34 34 35 36 38 38 38 38 39 39 39 40 40 40 39 39 39 40 40 40 40 40 40 40 39 39 39 40 40 41 41 41 41 41 40 39
29 28 28 29 30 31 32 32 33 33 33 34 34 34 35 35 36 36 36 36 36 37 37 37 38 39 40 39 39 39 39 39 39 39 40 40 40 41 41 41 40 40 40 39
26 26 27 28 29 29 30 30 31 31 31 31 31 31 32 33 33 32 33 33 33 33 35 36 37 38 38 39 39 39 39 39 39 39 39 39 39 39 39 39 38 39 40 40
24 24 25 26 27 28 27 28 28 28 28 28 28 29 29 30 30 30 31 31 31 32 33 34 34 35 36 37 37 37 37 37 37 36 36 36 37 37 37 38 38 39 39 38
22 23 23 23 23 24 25 25 24 25 26 26 26 26 27 27 27 28 29 29 30 30 31 31 32 33 34 35 35 35 35 35 34 34 34 35 35 35 36 37 37 37 36 34
20 20 21 21 21 22 22 22 22 22 23 23 23 23 23 24 25 25 26 26 27 28 28 29 30 30 31 32 33 33 32 32 32 32 32 33 33 33 34 34 34 34 33 32
19 19 19 19 19 19 19 20 19 19 19 20 20 21 21 21 22 22 23 24 24 25 27 27 27 27 27 27 28 29 29 29 29 30 30 31 31 30 30 30 30 30 30 30
17 17 17 17 17 17 18 18 18 18 18 18 19 19 19 20 20 21 22 23 23 24 24 24 24 24 25 25 25 26 26 26 27 27 27 27 27 27 27 27 28 28 29 29
15 16 16 16 16 15 16 16 16 16 17 17 17 17 18 19 19 19 19 20 20 20 20 21 22 22 23 23 22 22 21 22 23 24 24 25 26 26 26 26 27 27 28 28
14 14 14 13 13 13 13 13 13 14 14 15 15 16 16 16 16 16 16 16 17 18 19 19 19 20 20 20 21 21 20 21 21 22 23 24 25 26 26 26 26 26 26 26
13 13 12 11 11 11 12 12 12 13 14 14 14 14 14 13 13 13 14 14 15 16 16 17 18 19 20 20 20 20 20 21 21 21 22 23 24 24 23 23 24 25 25 25
11 11 10 10 10 11 11 12 12 12 13 13 13 12 12 12 12 13 13 14 15 15 16 16 17 17 17 18 18 19 19 19 20 21 21 21 22 22 22 23 24 24 24 24
9 9 8 9 9 9 9 10 11 10 11 11 11 12 12 13 13 13 14 14 14 15 15 16 17 17 17 17 17 17 17 18 18 19 19 19 20 20 21 21 21 21 21 22

GEFSNGP_500_meanwind_204.txt.gz
Wind_Speed
31 30 31 31 32 33 33 33 34 33 32 31 31 30 29 27 27 27 28 28 28 25 24 24 22 22 21 22 21 22 22 21 20 20 20 18 19 20 19 18 17 17 17 18
34 33 33 33 32 33 33 34 35 34 34 34 34 34 33 32 31 31 30 29 28 28 27 26 25 24 23 23 23 25 25 23 23 22 22 21 22 22 22 21 21 21 20 20
35 34 35 36 34 35 35 36 37 38 37 36 37 36 36 34 33 31 31 30 31 30 29 28 27 26 26 24 24 26 27 26 26 25 24 24 25 24 24 24 24 24 23 23
35 34 35 34 35 36 37 37 37 37 39 40 39 39 39 37 36 34 32 33 33 32 31 31 30 29 29 28 27 27 28 28 27 27 27 27 26 26 26 25 25 25 26 25
35 36 35 34 34 35 36 37 38 39 39 38 39 39 40 38 37 36 35 36 36 34 33 33 33 32 33 33 32 30 30 30 29 29 30 29 29 29 29 28 28 28 28 28
36 36 37 36 35 35 35 37 38 40 40 39 40 40 39 39 39 38 37 37 36 36 36 36 36 36 35 35 34 33 33 32 31 31 31 32 32 31 31 31 31 31 30 30
37 38 38 37 36 37 38 39 38 39 40 40 41 42 42 42 41 40 39 37 37 37 38 37 37 38 38 37 37 37 35 33 34 34 34 35 35 34 34 34 34 33 33 32
37 38 39 37 37 38 39 40 40 40 40 41 41 42 43 43 42 41 40 40 41 39 38 39 40 40 39 38 39 39 38 36 36 36 36 36 36 36 35 35 35 35 34 33
38 38 38 38 38 39 40 40 39 40 40 41 40 40 41 42 42 42 43 42 40 39 39 39 40 41 41 40 40 39 37 37 37 37 37 36 36 36 37 36 36 36 35 34
37 38 37 37 38 39 40 40 39 39 39 39 40 41 40 40 41 42 42 42 40 40 40 39 39 39 39 38 38 37 36 37 36 36 36 36 35 36 36 36 36 35 36 35
36 36 36 36 37 38 38 38 38 38 38 38 39 40 41 41 40 40 41 42 42 42 41 41 40 39 38 38 38 37 37 37 37 37 37 37 37 37 37 35 35 35 35 35
36 36 37 38 37 37 37 38 38 39 39 39 38 36 35 36 38 40 42 42 42 41 41 40 39 38 38 39 39 38 38 38 38 38 37 37 37 37 36 36 36 35 34 34
35 35 35 35 34 34 35 36 36 35 36 36 35 34 35 35 36 37 38 39 40 40 39 39 39 39 39 39 39 39 39 39 39 38 38 38 38 38 37 36 37 36 35 34
33 32 31 31 32 32 31 32 33 34 35 35 34 34 34 35 35 35 36 37 38 39 38 38 39 39 39 39 39 39 38 38 38 38 39 39 38 39 38 37 36 35 35 36
29 30 29 27 27 28 28 29 30 31 31 30 30 31 32 33 33 33 33 34 35 35 36 37 38 38 38 38 38 38 37 38 38 38 38 38 37 37 38 37 36 36 36 37
24 25 25 25 25 26 27 28 29 29 30 30 29 29 29 30 31 32 32 32 33 33 34 34 35 35 35 36 36 36 36 36 36 37 37 37 37 37 36 36 35 35 36 36
20 21 22 23 24 24 25 25 25 26 26 27 27 27 27 28 28 29 29 30 31 31 31 31 32 32 33 33 34 34 34 35 35 36 36 36 36 36 35 35 35 35 35 36
18 19 20 20 21 22 23 23 23 24 25 25 25 26 26 27 27 26 27 27 28 28 29 29 29 29 31 32 33 33 33 33 34 34 34 34 34 34 34 34 34 35 35 35
19 18 19 19 19 20 20 21 21 22 22 22 23 23 23 23 24 24 24 24 25 25 25 26 26 26 27 28 29 29 30 31 31 31 31 31 32 32 32 32 33 33 34 34
17 17 17 18 18 18 18 18 19 19 19 19 19 19 20 21 21 20 20 21 21 21 21 21 22 23 24 25 26 26 27 27 27 28 29 29 29 29 30 30 30 30 31 31
16 16 16 16 16 16 16 16 17 17 18 17 17 18 19 19 19 18 18 18 18 19 20 20 20 20 21 22 23 23 23 23 24 24 25 25 26 26 27 27 27 27 27 28
14 14 14 15 14 15 15 14 15 16 16 16 16 16 16 17 16 16 16 17 17 18 18 19 18 19 19 19 19 20 20 20 20 21 21 22 22 22 23 24 25 25 25 26
12 12 12 12 12 12 12 13 13 14 14 14 14 14 14 14 15 15 16 17 16 16 17 17 17 17 17 17 18 18 18 18 17 17 18 18 18 19 20 21 22 23 24 24
11 11 11 11 11 11 11 12 12 12 12 12 12 12 13 14 14 13 14 14 14 15 15 15 15 15 16 16 16 16 16 17 17 17 17 17 18 19 19 20 21 21 21 22
11 11 10 10 10 10 11 11 11 11 12 12 12 12 13 13 13 12 12 13 13 13 14 14 14 14 14 14 14 15 16 16 17 17 18 18 17 17 18 18 19 19 20 21
10 10 9 9 9 9 9 9 10 10 11 12 12 12 13 13 13 12 12 11 12 12 13 13 13 14 14 14 15 15 15 16 17 16 16 16 16 17 17 17 18 18 19 20
8 8 7 7 8 8 8 9 9 9 10 11 11 12 12 11 11 11 11 11 11 11 12 12 13 13 14 14 15 15 15 15 16 16 16 16 17 17 17 18 18 18 19 19

GEFSNGP_500_meanwind_210.txt.gz
Wind_Speed
33 33 34 35 35 35 35 35 35 34 33 31 29 28 27 26 26 26 25 25 25 25 26 26 26 25 25 25 24 23 23 23 23 23 23 24 25 25 24 23 22 22 21 21
35 34 35 36 36 36 35 34 35 35 34 32 32 30 28 27 27 27 27 27 27 27 27 28 28 27 26 25 26 26 26 26 26 27 26 26 26 26 26 25 24 23 23 24
37 37 37 38 37 36 36 35 35 35 34 33 33 31 30 29 28 29 29 28 28 28 28 29 30 30 29 28 28 28 29 29 28 29 28 28 27 27 27 27 26 26 26 26
38 37 39 38 36 36 36 36 35 35 35 35 35 34 32 32 31 30 31 30 31 31 31 31 32 31 31 31 31 30 30 30 30 30 30 30 29 29 30 30 30 30 29 28
37 37 38 37 36 34 34 35 34 34 34 34 34 35 34 34 33 33 33 34 34 34 34 34 34 33 33 33 32 31 31 30 30 31 31 32 32 32 32 32 32 32 32 31
36 37 37 35 34 33 34 35 34 34 34 35 35 35 34 35 35 35 35 35 37 37 37 36 36 34 34 34 33 33 33 33 32 32 32 32 34 34 34 33 33 33 33 33
36 37 37 36 34 33 34 34 34 34 35 35 36 36 36 36 36 36 36 37 38 39 39 38 37 37 37 36 35 35 35 34 34 34 34 35 35 35 35 34 35 34 34 34
36 37 37 36 35 34 35 35 34 34 35 35 36 36 37 38 38 38 39 39 39 39 40 40 40 40 40 38 36 35 36 37 37 37 38 38 37 36 37 36 36 35 35 35
35 35 35 36 36 36 36 36 37 37 36 36 36 37 37 38 38 39 39 40 40 40 40 41 41 40 40 38 38 38 38 38 39 38 39 39 38 37 36 36 37 37 37 36
34 34 34 35 36 36 37 37 37 37 37 37 36 37 37 38 38 38 38 40 41 42 41 41 41 41 41 40 40 40 40 39 38 38 38 38 38 37 37 37 38 38 37 37
33 33 34 34 34 35 35 35 36 37 38 38 37 37 37 37 37 37 38 40 41 41 41 41 42 42 42 42 42 41 41 41 39 39 37 37 36 37 38 38 39 38 37 38
32 32 33 33 33 33 33 34 35 36 36 37 37 37 37 37 38 38 38 39 40 40 41 40 40 41 41 42 42 41 40 40 39 38 37 37 38 38 38 38 37 38 37 36
30 30 31 31 32 32 33 33 33 34 34 35 36 36 36 36 37 38 38 38 39 39 39 38 38 38 39 39 39 38 38 37 37 37 38 38 37 37 37 37 37 37 37 37
29 29 30 30 30 31 32 32 32 33 33 34 34 35 34 35 35 36 36 36 36 36 36 36 36 36 36 36 36 35 35 36 36 36 35 35 36 36 35 35 36 36 36 36
28 28 28 29 29 29 29 29 29 30 31 32 31 30 31 32 33 34 33 33 33 33 33 33 34 33 32 33 33 33 33 34 34 34 35 35 35 34 35 34 35 36 36 36
24 25 25 26 26 27 27 27 27 27 27 26 26 27 28 28 29 30 31 31 30 29 30 30 30 30 30 30 31 31 31 31 32 32 33 33 32 33 34 34 34 35 35 35
21 22 22 23 24 24 24 24 25 24 24 23 23 23 24 24 25 25 26 27 27 27 28 29 28 28 28 29 29 29 29 30 30 30 30 31 31 32 32 33 33 33 33 34
19 20 20 20 20 21 21 21 20 20 20 21 21 21 21 21 22 23 24 25 25 26 26 26 26 26 27 28 28 28 28 28 29 29 29 29 29 30 30 29 30 30 30 31
16 17 17 18 18 18 18 18 17 18 18 18 18 19 19 20 21 22 22 23 23 24 24 24 25 25 26 26 27 26 27 27 27 27 27 28 28 28 28 28 29 30 30 30
15 15 15 16 17 17 17 16 16 16 16 16 17 18 19 19 20 21 21 21 21 22 22 23 24 24 24 24 24 24 25 25 24 25 25 27 27 27 27 27 28 28 28 28
14 14 14 14 15 15 15 15 15 15 15 15 17 18 18 18 19 19 19 19 19 19 20 20 21 21 21 21 22 22 22 23 23 23 24 24 25 25 25 25 25 25 25 25
13 13 13 13 14 14 14 14 14 14 15 15 16 16 16 17 18 18 18 18 18 18 18 18 19 19 19 20 20 20 21 22 22 22 21 22 22 22 22 22 22 22 23 23
11 11 11 12 12 12 12 12 12 13 13 14 14 15 16 16 16 17 17 17 17 18 18 18 18 17 17 18 18 19 19 20 20 20 20 20 20 20 19 19 19 20 21 21
10 10 10 10 10 11 11 12 12 13 13 13 14 15 15 15 15 15 16 16 16 16 17 16 16 16 16 15 16 16 16 17 17 17 18 18 18 17 17 18 18 19 20 20
9 10 10 10 10 10 11 11 12 12 13 13 14 14 13 14 14 14 14 14 13 13 13 13 14 14 14 14 14 14 14 15 16 17 17 17 18 18 18 18 19 19 20 20
9 9 9 9 10 10 10 10 10 10 11 11 11 12 12 12 12 12 12 12 12 12 12 12 12 13 13 13 13 13 14 14 15 15 15 16 17 17 18 19 20 20 20 20
7 8 8 8 8 8 8 8 8 9 9 10 10 10 11 11 11 10 11 11 11 12 12 12 12 12 12 13 13 14 15 15 16 16 16 16 17 17 18 18 19 20 20 21

GEFSNGP_500_meanwind_216.txt.gz
Wind_Speed
32 31 31 31 32 32 33 32 32 30 30 31 30 29 27 26 25 24 24 24 23 23 24 24 25 25 26 26 26 26 26 26 26 27 28 28 27 25 25 25 26 26 26 26
32 32 33 34 34 34 34 34 34 34 34 32 31 31 29 28 27 26 26 26 26 26 26 26 26 27 28 28 27 27 27 27 28 29 30 29 28 27 27 27 27 28 28 28
31 32 32 34 34 34 35 35 35 35 35 33 33 32 31 30 30 29 29 28 28 29 28 28 28 29 30 31 30 29 29 29 30 30 31 31 30 28 28 28 29 30 30 30
31 32 33 33 34 35 35 35 36 36 35 35 34 33 32 32 31 30 31 31 32 32 31 31 31 31 31 32 32 32 31 31 31 32 33 32 31 30 30 30 30 31 32 32
33 33 33 34 33 33 34 35 34 35 35 35 34 34 33 32 32 32 32 32 32 32 33 33 33 32 33 33 33 33 33 33 33 33 33 33 32 32 33 34 34 34 34 33
35 34 33 33 33 33 34 35 34 34 34 33 33 33 33 33 33 34 33 33 33 33 33 33 33 34 34 35 35 35 35 36 36 36 35 34 34 33 34 35 35 35 36 35
34 34 34 35 34 33 33 34 34 34 34 33 34 34 33 33 34 34 35 35 35 35 35 35 35 36 36 36 37 37 38 39 39 38 37 37 35 35 36 37 37 38 38 37
35 35 35 35 34 34 34 34 33 32 33 33 33 33 34 35 34 35 36 36 36 36 36 36 37 37 37 38 38 39 39 40 40 39 39 38 37 36 37 38 39 39 38 37
36 36 36 34 33 32 32 32 32 32 32 32 33 33 34 35 35 35 36 36 36 37 37 37 38 38 38 39 39 39 39 40 40 39 39 38 37 37 38 39 39 39 37 37
35 35 34 33 32 32 32 32 32 32 32 33 33 33 34 34 35 35 35 36 37 38 38 39 39 39 39 39 39 39 40 40 40 39 39 39 39 38 38 38 38 38 38 37
33 33 33 32 31 31 31 31 32 32 32 32 32 33 33 35 35 36 36 37 37 38 39 40 40 40 40 40 40 40 40 40 39 39 38 39 40 39 38 37 38 38 39 38
31 31 31 31 31 30 30 30 31 31 31 31 31 32 33 34 35 35 35 35 36 37 38 38 39 39 40 40 40 39 38 38 39 39 38 38 38 39 39 39 38 37 37 38
29 29 30 30 30 30 30 31 30 31 31 31 31 31 32 32 33 34 35 35 35 36 38 38 39 39 39 38 38 38 38 38 38 38 37 38 38 38 38 38 37 37 37 37
27 27 28 28 28 28 29 29 30 30 30 30 30 30 31 32 32 33 34 35 36 37 37 38 38 38 38 38 38 37 37 36 36 36 36 37 37 37 37 37 36 36 36 36
25 26 26 26 27 27 27 28 28 29 29 29 29 29 30 30 31 31 32 33 34 35 35 36 36 36 36 37 37 36 36 35 36 35 36 36 36 36 36 36 36 35 35 35
23 24 24 23 24 24 25 25 26 27 27 27 27 28 28 28 28 29 30 31 32 32 32 33 33 34 34 35 35 34 34 34 34 35 35 35 35 35 34 34 35 35 35 35
20 20 20 20 21 22 23 23 24 25 25 26 26 26 26 27 26 26 27 28 29 29 30 30 31 31 32 32 32 32 31 32 32 32 32 33 33 33 32 33 33 33 33 33
18 18 19 20 21 22 22 22 22 23 24 24 24 23 23 23 24 24 24 24 25 27 28 28 28 28 28 28 29 29 30 30 30 30 31 31 31 31 31 32 31 31 31 31
18 18 18 19 20 21 21 21 21 21 22 22 22 22 21 21 21 22 23 24 24 24 25 26 26 27 27 27 27 28 29 29 29 29 29 30 30 31 31 30 30 30 30 30
15 16 17 17 18 18 19 19 19 19 19 19 19 20 20 20 20 20 21 21 21 22 22 22 23 24 24 24 26 27 27 27 27 28 28 29 29 28 28 28 28 28 28 28
14 14 15 16 16 16 16 17 17 17 17 17 18 18 18 17 17 18 18 19 19 20 20 21 22 23 23 23 24 24 24 24 24 25 26 26 26 26 26 26 27 27 27 27
12 12 13 13 14 14 14 14 14 14 15 15 15 15 15 16 16 17 18 18 18 18 19 20 20 21 21 21 21 21 21 20 21 21 22 22 23 23 24 24 25 25 25 26
10 10 11 11 11 11 11 12 12 12 12 12 13 13 14 15 16 16 17 17 16 17 17 17 18 18 18 18 17 18 18 18 19 19 19 19 19 20 21 22 22 23 23 24
7 8 8 9 9 10 10 10 10 10 11 11 12 13 14 14 15 16 16 15 14 15 15 15 16 16 15 15 16 16 16 16 17 17 17 18 18 19 19 19 20 21 21 22
6 6 7 7 7 7 8 8 9 10 11 11 12 12 13 13 13 14 14 14 14 14 14 14 14 14 14 14 14 15 15 15 15 16 16 16 17 17 18 18 18 18 19 19
5 5 6 6 6 6 7 8 9 9 10 11 11 12 12 12 13 13 13 13 13 12 12 13 13 13 13 14 14 14 14 15 15 15 15 16 16 16 17 17 17 17 17 18
6 6 6 6 6 7 7 8 8 8 9 9 10 10 11 11 11 11 12 12 12 12 12 12 13 13 14 14 14 14 14 14 14 14 15 15 16 16 17 17 18 18 18 18

GEFSNGP_500_meanwind_222.txt.gz
Wind_Speed
32 29 28 28 27 27 29 30 30 29 30 31 33 33 31 28 28 26 27 28 27 28 28 28 27 26 26 27 26 26 26 25 25 26 27 26 26 26 27 28 27 25 25 26
34 32 30 30 30 29 29 30 30 31 32 32 33 34 34 32 31 30 29 30 29 30 30 30 29 28 28 28 28 28 28 28 28 27 28 28 28 28 28 29 28 27 27 26
34 32 32 32 31 31 31 30 31 32 33 34 36 35 35 34 32 31 31 30 31 31 31 31 31 30 30 31 30 30 30 30 30 30 29 29 29 29 30 30 29 29 29 30
34 33 35 33 32 32 33 33 34 36 36 37 39 38 37 36 35 33 32 32 32 31 32 32 33 33 33 32 33 32 32 32 33 33 31 31 31 32 32 32 32 32 32 32
34 33 33 34 34 33 33 34 34 36 37 38 39 39 39 38 37 36 35 34 34 34 33 34 34 34 35 35 36 34 33 33 33 33 33 34 34 34 34 34 34 34 34 32
34 34 34 35 33 32 32 36 34 36 37 37 38 39 39 38 37 37 36 36 37 36 34 35 35 35 36 36 36 36 35 35 35 35 36 36 36 35 36 36 35 35 34 34
35 36 36 35 35 33 34 36 35 35 36 36 37 38 38 37 37 37 36 36 36 36 35 35 36 37 37 37 37 37 37 37 37 37 38 38 38 37 37 38 38 37 36 37
35 37 37 35 36 36 36 36 37 37 37 37 36 37 37 37 37 37 37 37 36 37 37 37 38 38 38 38 38 38 39 39 38 39 39 39 39 39 38 37 39 38 37 37
35 36 36 36 36 37 38 38 37 37 37 37 37 37 37 37 37 38 38 37 37 36 36 37 38 39 39 39 40 40 40 40 40 40 39 39 40 39 40 39 38 39 37 37
36 36 35 36 36 37 37 37 37 38 38 38 37 37 36 36 36 36 36 36 36 36 36 37 38 39 39 40 40 40 40 40 41 40 40 40 40 40 41 40 39 39 37 37
36 33 35 36 37 37 37 34 34 35 36 36 36 35 35 34 35 35 36 35 35 36 37 37 38 39 40 40 40 41 41 41 41 42 42 42 41 41 41 41 40 39 38 38
35 34 35 34 34 34 35 35 34 34 34 35 35 34 34 34 33 34 34 35 36 37 38 38 38 38 39 39 40 41 41 41 42 42 42 43 42 42 41 41 41 39 39 39
34 34 34 34 33 32 33 34 34 34 34 34 34 34 34 33 33 34 35 36 36 36 37 37 38 38 38 39 39 39 40 41 42 42 41 42 41 41 41 41 41 39 39 39
30 31 31 31 32 31 32 32 32 32 32 32 33 33 33 33 33 33 34 35 35 35 35 36 37 38 38 38 38 38 39 40 40 41 40 39 39 39 39 39 38 39 38 38
27 28 28 29 30 30 30 30 30 30 31 32 32 32 32 33 33 32 32 32 33 34 35 35 36 36 37 37 37 38 39 39 39 39 38 38 38 38 37 37 37 37 37 37
25 25 25 25 26 27 27 28 29 30 30 30 30 30 31 30 30 30 30 32 33 34 35 35 36 35 35 36 36 36 36 36 36 36 36 36 37 37 36 36 36 36 36 37
22 22 23 23 24 24 26 27 28 28 28 28 28 28 28 29 29 30 30 31 31 32 33 33 33 33 34 34 34 34 34 34 34 34 34 34 34 34 34 34 34 35 34 35
18 19 19 20 21 22 23 24 25 25 26 26 26 26 27 28 28 27 27 28 28 29 29 29 29 30 31 31 31 31 31 31 31 32 32 32 32 32 32 32 33 33 33 33
17 18 18 19 19 19 20 21 22 23 24 24 24 25 25 25 25 25 26 26 26 26 26 26 27 28 28 27 27 28 29 29 29 30 30 30 30 30 30 30 31 31 31 31
15 16 16 17 18 18 19 19 20 20 21 21 22 22 23 23 23 23 23 23 23 24 24 25 26 25 25 25 26 26 27 28 28 28 29 29 29 28 28 28 28 28 29 30
14 14 15 16 17 18 18 18 17 17 18 18 19 20 20 20 21 21 21 22 22 22 22 22 22 22 23 23 24 24 25 25 26 26 26 26 26 25 25 26 26 27 27 27
12 13 14 14 15 15 15 15 16 16 16 17 17 17 17 17 18 18 18 19 19 19 19 19 19 20 21 21 21 21 22 22 22 22 22 22 22 22 23 23 24 24 24 24
11 12 12 12 12 12 13 14 14 14 14 14 15 15 15 16 16 16 16 16 16 16 16 16 17 18 19 19 19 20 20 19 19 19 20 20 20 20 21 21 22 21 22 22
10 10 10 10 10 11 11 12 12 12 12 13 13 13 13 14 14 14 14 15 14 14 14 15 16 16 17 17 18 18 18 18 18 18 19 19 19 19 19 20 20 21 21 20
9 9 9 9 9 9 10 10 11 11 11 11 11 11 11 12 13 13 13 13 13 13 14 14 14 15 15 16 16 16 17 17 17 17 18 18 18 18 19 19 19 19 19 19
8 8 8 9 8 9 9 9 9 9 9 10 10 10 11 11 12 12 12 13 13 13 13 13 14 14 15 15 15 15 16 16 16 16 17 17 18 18 19 19 19 18 19 19
6 6 7 6 5 5 5 6 6 7 8 9 9 10 11 11 11 12 12 13 13 13 13 13 14 14 15 15 15 16 16 15 15 15 16 17 17 18 19 18 18 18 18 19

GEFSNGP_500_meanwind_228.txt.gz
Wind_Speed
33 33 34 35 35 34 34 35 35 33 34 32 30 29 29 29 29 29 28 28 28 27 26 25 24 23 23 24 23 23 24 24 23 23 23 22 22 22 22 22 23 23 23 23
34 34 36 36 35 35 35 35 34 34 34 31 31 31 30 31 31 31 30 30 30 29 28 27 27 25 25 26 26 26 26 25 24 24 25 24 25 25 25 25 25 26 26 26
35 35 37 37 35 34 35 36 35 35 34 34 34 34 33 32 32 31 31 31 31 32 32 30 30 29 28 27 28 27 27 27 28 27 27 28 28 28 29 29 28 27 27 28
35 35 38 38 37 37 36 36 36 35 34 34 36 36 34 34 34 34 34 34 33 32 32 31 31 31 30 29 28 28 29 30 30 31 31 31 31 31 31 31 30 30 29 31
35 36 37 37 36 37 38 38 38 38 37 36 37 38 37 37 37 36 36 36 35 34 32 32 32 31 31 30 29 29 30 30 31 32 32 32 32 32 32 32 32 32 33 32
35 37 37 35 35 37 37 39 37 38 38 38 38 38 37 37 38 37 37 36 36 34 33 34 33 33 31 31 31 31 31 31 32 32 32 33 33 33 33 33 34 35 35 33
35 36 37 36 37 38 38 39 38 38 38 39 40 39 38 37 37 38 38 38 37 36 36 36 35 34 33 33 33 33 32 33 33 34 34 35 35 35 35 34 35 35 34 34
34 37 37 37 37 37 38 38 38 38 38 38 39 39 38 37 36 36 36 37 37 36 35 36 35 35 35 35 35 34 34 35 35 36 36 36 36 36 35 35 35 35 35 35
36 37 37 37 37 37 37 39 38 38 37 37 37 38 36 36 35 34 35 36 36 37 35 36 35 35 36 36 35 35 36 36 36 37 37 37 37 37 36 36 36 35 35 36
36 36 36 37 38 38 39 38 38 37 37 36 36 37 37 37 36 35 35 35 36 36 35 34 35 35 36 36 37 36 37 37 37 37 37 37 38 37 37 37 37 38 37 36
36 35 35 35 36 37 37 37 38 38 38 37 35 35 36 36 36 36 35 35 36 36 36 34 34 35 35 36 36 37 37 37 37 37 37 37 37 38 38 37 37 37 37 36
34 34 34 33 34 36 36 36 36 36 37 37 36 35 34 35 36 35 34 35 35 36 35 35 34 35 36 36 36 37 37 37 37 37 37 37 37 37 38 37 37 36 36 36
33 33 33 33 33 34 35 34 34 33 32 33 34 34 34 34 33 34 34 35 34 34 34 34 35 35 36 36 37 36 37 37 38 38 38 38 38 37 37 37 36 36 36 35
31 32 33 33 33 32 32 32 33 33 32 32 33 33 32 31 32 33 33 34 34 34 34 35 35 35 35 36 35 36 37 37 37 38 38 38 37 38 37 37 36 35 35 36
27 28 29 30 29 28 28 29 30 30 31 30 29 29 29 29 30 31 32 33 33 33 33 33 32 33 34 34 35 35 36 37 37 37 37 36 35 35 35 34 34 34 34 35
22 23 24 24 23 24 24 24 25 25 26 26 26 27 27 27 28 29 29 30 29 30 31 31 30 31 33 33 34 35 34 34 33 33 33 32 31 32 32 33 33 33 33 33
19 19 19 18 18 19 19 20 21 22 22 23 23 23 24 26 27 27 27 27 28 28 28 29 29 30 31 32 32 32 31 30 30 30 30 31 30 31 31 32 32 32 32 32
15 15 16 16 16 16 16 18 19 21 22 22 23 23 23 24 24 24 24 25 26 26 27 28 28 28 29 29 29 29 29 29 28 29 29 29 29 29 29 29 29 30 30 30
12 12 13 14 15 15 15 16 17 18 20 21 21 21 21 22 22 22 23 24 24 25 26 26 26 26 26 27 27 27 27 27 27 27 27 28 27 27 28 28 28 28 28 29
10 11 12 13 14 14 14 14 15 16 17 17 18 19 20 20 21 22 22 23 23 24 24 24 24 24 24 24 24 24 24 25 25 25 26 26 27 27 28 28 28 27 26 27
10 10 10 11 12 13 13 14 14 15 15 16 17 17 18 19 19 20 20 20 20 21 21 21 21 21 21 21 21 21 21 22 22 22 24 25 25 25 25 25 24 24 24 24
8 9 10 10 11 11 12 12 13 14 14 14 14 14 15 16 16 17 17 18 18 18 17 18 18 18 19 19 19 20 20 19 20 21 21 21 22 23 23 23 24 23 24 24
6 6 7 8 9 10 10 10 10 11 11 12 13 13 13 14 14 14 15 15 15 15 16 16 16 17 17 17 17 17 18 18 18 19 19 19 20 20 20 21 22 22 22 22
6 6 7 8 8 9 9 9 9 10 10 11 12 13 13 13 13 13 13 14 14 14 14 14 14 14 15 16 16 16 16 16 17 17 17 18 19 19 19 19 20 20 20 21
7 7 7 7 7 7 7 8 9 10 10 11 11 12 12 12 12 12 12 13 13 13 13 13 14 14 15 14 14 15 15 16 16 16 17 18 18 18 18 19 19 20 20 20
6 6 6 5 5 5 6 6 7 8 9 10 10 10 10 10 10 11 11 12 12 12 13 13 14 14 14 14 14 15 15 15 15 16 16 16 17 17 18 19 20 20 20 20
4 5 5 5 5 6 6 6 7 7 8 8 8 9 9 9 9 10 11 11 12 12 13 13 14 14 15 15 15 15 15 16 16 16 16 16 17 17 18 18 19 19 19 20

GEFSNGP_500_meanwind_234.txt.gz
Wind_Speed
34 34 35 35 35 35 36 37 38 36 35 32 32 31 30 29 29 29 28 27 27 26 24 23 23 24 24 24 23 23 23 22 22 22 23 23 23 24 24 24 23 23 24 25
36 35 35 35 36 36 36 36 37 37 36 34 33 32 31 31 30 30 29 29 29 29 27 26 26 25 26 26 25 25 25 24 24 25 25 26 26 26 27 26 26 26 27 27
37 36 36 36 35 35 36 36 37 38 37 35 34 33 32 32 32 32 31 30 31 31 31 30 29 29 29 29 28 27 27 27 28 28 28 28 28 29 29 29 29 29 30 30
37 36 38 36 35 35 36 36 38 39 38 37 36 34 34 34 34 33 33 33 33 33 32 32 32 32 31 31 31 30 30 30 31 32 31 30 30 30 30 30 31 31 31 32
38 38 38 36 35 36 36 37 37 38 38 37 37 37 36 36 36 35 35 35 35 35 34 34 34 33 33 32 32 32 32 33 33 33 32 31 30 29 30 32 32 32 33 34
37 37 37 35 35 36 36 36 36 37 37 37 37 37 36 37 38 38 37 37 37 36 36 35 35 35 35 34 35 34 35 35 34 34 33 31 31 31 32 32 33 33 34 34
36 36 36 36 36 36 37 36 36 36 37 36 36 37 36 37 37 38 38 38 37 37 36 36 35 35 35 35 35 35 34 34 34 33 31 31 31 32 33 34 34 34 34 35
35 36 36 36 37 37 37 37 36 37 37 36 36 37 37 37 37 37 37 36 36 35 36 36 36 35 35 36 36 35 34 34 33 33 32 32 32 33 34 34 35 35 36 37
35 35 35 35 36 37 37 37 37 37 36 36 37 37 36 36 36 37 37 36 36 35 35 36 36 36 36 36 35 35 35 34 35 34 34 34 34 34 35 35 35 37 37 38
34 33 34 35 36 37 37 37 37 37 37 37 37 36 36 36 36 36 36 36 36 35 35 35 36 36 36 36 36 36 35 35 35 35 35 35 35 36 37 37 37 37 38 39
34 34 35 35 35 36 37 38 38 38 37 37 37 37 37 37 37 37 37 36 36 36 36 36 36 36 36 37 36 35 35 36 36 36 36 37 38 38 39 39 39 39 39 39
32 33 34 34 35 36 37 37 37 36 37 37 37 37 37 37 36 36 36 36 35 35 36 37 36 35 35 34 34 34 34 34 36 37 37 38 39 39 40 41 40 40 40 39
31 31 33 33 34 34 35 36 35 35 35 36 37 36 37 37 36 34 34 34 34 34 34 35 34 34 34 33 32 32 33 34 35 36 37 38 38 39 39 39 39 39 39 39
30 31 31 32 32 32 32 32 33 34 35 34 34 34 34 35 35 34 33 33 32 33 33 33 33 33 33 32 32 33 32 33 34 34 35 36 36 37 37 38 38 38 39 39
28 28 28 29 29 29 29 29 29 29 30 30 31 31 31 31 32 32 32 32 31 30 30 30 30 31 31 31 31 32 33 33 33 33 35 35 36 37 37 37 37 38 38 39
25 25 25 25 26 26 26 26 26 25 25 25 26 27 27 27 28 28 28 29 28 28 28 28 28 29 29 30 30 31 31 32 33 33 34 36 36 37 37 36 36 36 37 37
21 21 21 21 21 22 22 23 24 23 22 22 22 22 22 23 24 25 25 25 25 25 26 26 27 27 27 28 28 29 29 30 31 32 32 33 33 33 33 33 33 33 32 32
18 18 18 17 17 17 17 18 18 18 18 17 18 18 18 19 20 21 21 21 21 21 22 24 25 25 25 25 27 28 28 29 30 30 31 31 30 30 30 31 31 31 31 31
15 15 16 17 17 17 17 16 16 15 16 16 16 17 17 17 18 18 19 19 19 20 21 21 23 23 23 24 25 26 27 26 26 26 27 28 28 28 29 29 29 29 29 29
14 14 14 15 16 15 15 15 14 13 14 14 15 15 16 16 17 17 18 19 19 19 20 21 21 21 22 22 23 23 24 24 24 24 25 26 26 26 26 27 27 27 27 27
12 12 12 13 13 13 13 13 13 12 13 14 14 15 15 16 16 17 17 18 18 18 19 19 19 20 20 20 21 22 23 23 23 24 24 25 25 25 24 24 25 25 26 26
10 10 10 10 10 11 11 11 11 12 12 13 13 14 14 15 15 15 16 16 16 16 17 18 18 19 19 19 20 21 22 22 23 23 23 23 23 23 23 23 23 23 24 24
9 9 8 8 8 8 8 9 10 10 11 11 11 12 12 13 13 14 14 15 15 15 16 16 17 17 18 18 20 20 20 20 21 20 20 20 20 21 21 22 22 22 22 22
8 8 7 7 7 7 7 8 8 9 9 9 10 10 11 11 12 13 14 14 15 15 15 15 16 16 17 18 18 18 18 18 18 18 18 18 19 20 21 21 21 21 21 21
7 7 7 7 7 7 7 7 7 8 8 9 9 10 11 11 12 12 13 13 14 14 14 15 16 16 17 17 17 17 17 16 16 16 17 17 18 18 19 19 19 19 19 19
6 6 6 7 8 7 6 6 7 7 7 8 9 9 9 10 11 11 12 13 13 14 14 15 16 16 17 17 17 17 17 17 16 16 16 17 17 18 18 18 19 19 20 20
5 5 5 5 5 5 5 6 7 7 8 8 8 9 9 10 11 11 11 12 13 13 14 15 16 16 17 17 17 17 17 17 17 18 18 18 19 19 20 20 20 21 21 22